Wetterdaten: Sonntag, 26.06.2016
Datum Zeit Temp. A. Feuchte A. Luftdruck Regen Wind Richtung Richtung Sonnenschein ET UV Solar Taupunkt Windchill Windben Empfang
26.06.2016 00:00 17,8 C 89 % 1013,2 hPa 0,0 l/m 12,7 km/h (3 Bft) S-SW 203 0 min 0,000 mm 0,0 UV-I 0 W/m 16,0 C 15,3 C 19,3 km/h (3 Bft) 98,11 %
26.06.2016 00:02 17,8 C 89 % 1013,3 hPa 0,0 l/m 14,7 km/h (3 Bft) S-SW 209 0 min 0,000 mm 0,0 UV-I 0 W/m 16,0 C 14,7 C 24,1 km/h (4 Bft) 100,00 %
26.06.2016 00:04 17,8 C 89 % 1013,2 hPa 0,0 l/m 11,6 km/h (2 Bft) S-SW 193 0 min 0,000 mm 0,0 UV-I 0 W/m 16,0 C 15,6 C 22,5 km/h (4 Bft) 100,00 %
26.06.2016 00:06 17,9 C 90 % 1013,2 hPa 0,0 l/m 11,0 km/h (2 Bft) SW 227 0 min 0,000 mm 0,0 UV-I 0 W/m 16,2 C 16,0 C 17,7 km/h (3 Bft) 100,00 %
26.06.2016 00:08 17,8 C 90 % 1013,1 hPa 0,0 l/m 8,4 km/h (2 Bft) W-SW 244 0 min 0,000 mm 0,0 UV-I 0 W/m 16,1 C 16,9 C 14,5 km/h (3 Bft) 98,08 %
26.06.2016 00:10 17,9 C 90 % 1013,2 hPa 0,0 l/m 8,5 km/h (2 Bft) SW 214 0 min 0,000 mm 0,0 UV-I 0 W/m 16,2 C 16,9 C 11,3 km/h (2 Bft) 100,00 %
26.06.2016 00:12 17,8 C 90 % 1013,2 hPa 0,0 l/m 10,6 km/h (2 Bft) S-SW 205 0 min 0,000 mm 0,0 UV-I 0 W/m 16,1 C 16,0 C 17,7 km/h (3 Bft) 100,00 %
26.06.2016 00:14 17,9 C 90 % 1013,2 hPa 0,0 l/m 8,2 km/h (2 Bft) W-SW 244 0 min 0,000 mm 0,0 UV-I 0 W/m 16,2 C 17,1 C 17,7 km/h (3 Bft) 100,00 %
26.06.2016 00:16 17,9 C 90 % 1013,3 hPa 0,0 l/m 11,1 km/h (2 Bft) S-SW 209 0 min 0,000 mm 0,0 UV-I 0 W/m 16,2 C 15,9 C 17,7 km/h (3 Bft) 100,00 %
26.06.2016 00:18 17,9 C 90 % 1013,2 hPa 0,0 l/m 12,6 km/h (3 Bft) S-SO 161 0 min 0,000 mm 0,0 UV-I 0 W/m 16,2 C 15,4 C 19,3 km/h (3 Bft) 100,00 %
26.06.2016 00:20 17,8 C 90 % 1013,3 hPa 0,0 l/m 12,8 km/h (3 Bft) S-SW 206 0 min 0,000 mm 0,0 UV-I 0 W/m 16,1 C 15,2 C 19,3 km/h (3 Bft) 100,00 %
26.06.2016 00:22 17,8 C 90 % 1013,3 hPa 0,0 l/m 13,4 km/h (3 Bft) SW 228 0 min 0,000 mm 0,0 UV-I 0 W/m 16,1 C 15,1 C 20,9 km/h (4 Bft) 97,87 %
26.06.2016 00:24 17,9 C 90 % 1013,3 hPa 0,0 l/m 11,9 km/h (2 Bft) S-SW 202 0 min 0,000 mm 0,0 UV-I 0 W/m 16,2 C 15,6 C 17,7 km/h (3 Bft) 100,00 %
26.06.2016 00:26 17,9 C 90 % 1013,2 hPa 0,0 l/m 15,9 km/h (3 Bft) SW 219 0 min 0,000 mm 0,0 UV-I 0 W/m 16,2 C 14,5 C 24,1 km/h (4 Bft) 96,23 %
26.06.2016 00:28 17,9 C 90 % 1013,3 hPa 0,0 l/m 14,7 km/h (3 Bft) W 271 0 min 0,000 mm 0,0 UV-I 0 W/m 16,2 C 14,8 C 20,9 km/h (4 Bft) 97,73 %
26.06.2016 00:30 17,9 C 90 % 1013,3 hPa 0,0 l/m 15,3 km/h (3 Bft) SW 234 0 min 0,000 mm 0,0 UV-I 0 W/m 16,2 C 14,6 C 27,4 km/h (4 Bft) 98,11 %
26.06.2016 00:32 17,9 C 90 % 1013,3 hPa 0,0 l/m 19,0 km/h (3 Bft) SW 224 0 min 0,000 mm 0,0 UV-I 0 W/m 16,2 C 13,7 C 24,1 km/h (4 Bft) 95,35 %
26.06.2016 00:34 17,9 C 90 % 1013,3 hPa 0,0 l/m 18,0 km/h (3 Bft) SW 234 0 min 0,000 mm 0,0 UV-I 0 W/m 16,2 C 13,9 C 25,7 km/h (4 Bft) 100,00 %
26.06.2016 00:36 17,9 C 90 % 1013,4 hPa 0,0 l/m 15,2 km/h (3 Bft) SW 230 0 min 0,000 mm 0,0 UV-I 0 W/m 16,2 C 14,7 C 24,1 km/h (4 Bft) 92,00 %
26.06.2016 00:38 17,9 C 90 % 1013,4 hPa 0,0 l/m 15,7 km/h (3 Bft) SW 234 0 min 0,000 mm 0,0 UV-I 0 W/m 16,2 C 14,5 C 24,1 km/h (4 Bft) 98,11 %
26.06.2016 00:40 18,0 C 90 % 1013,4 hPa 0,0 l/m 17,8 km/h (3 Bft) W 259 0 min 0,000 mm 0,0 UV-I 0 W/m 16,3 C 14,1 C 25,7 km/h (4 Bft) 97,56 %
26.06.2016 00:42 18,0 C 90 % 1013,4 hPa 0,0 l/m 14,4 km/h (3 Bft) S-SW 192 0 min 0,000 mm 0,0 UV-I 0 W/m 16,3 C 15,0 C 24,1 km/h (4 Bft) 92,59 %
26.06.2016 00:44 18,0 C 90 % 1013,3 hPa 0,0 l/m 14,3 km/h (3 Bft) SW 214 0 min 0,000 mm 0,0 UV-I 0 W/m 16,3 C 15,0 C 19,3 km/h (3 Bft) 98,57 %
26.06.2016 00:46 18,1 C 90 % 1013,4 hPa 0,0 l/m 16,0 km/h (3 Bft) SW 219 0 min 0,000 mm 0,0 UV-I 0 W/m 16,4 C 14,7 C 22,5 km/h (4 Bft) 97,62 %
26.06.2016 00:48 18,1 C 90 % 1013,3 hPa 0,0 l/m 16,8 km/h (3 Bft) W-SW 252 0 min 0,000 mm 0,0 UV-I 0 W/m 16,4 C 14,5 C 24,1 km/h (4 Bft) 96,36 %
26.06.2016 00:50 18,1 C 90 % 1013,4 hPa 0,0 l/m 15,6 km/h (3 Bft) SW 225 0 min 0,000 mm 0,0 UV-I 0 W/m 16,4 C 14,8 C 22,5 km/h (4 Bft) 97,73 %
26.06.2016 00:52 18,1 C 90 % 1013,4 hPa 0,0 l/m 13,5 km/h (3 Bft) SW 215 0 min 0,000 mm 0,0 UV-I 0 W/m 16,4 C 15,4 C 17,7 km/h (3 Bft) 98,00 %
26.06.2016 00:54 18,1 C 90 % 1013,3 hPa 0,0 l/m 15,5 km/h (3 Bft) W-SW 257 0 min 0,000 mm 0,0 UV-I 0 W/m 16,4 C 14,8 C 20,9 km/h (4 Bft) 97,87 %
26.06.2016 00:56 18,1 C 90 % 1013,3 hPa 0,0 l/m 14,2 km/h (3 Bft) W-SW 238 0 min 0,000 mm 0,0 UV-I 0 W/m 16,4 C 15,2 C 19,3 km/h (3 Bft) 97,37 %
26.06.2016 00:58 18,1 C 90 % 1013,3 hPa 0,0 l/m 14,5 km/h (3 Bft) SW 225 0 min 0,000 mm 0,0 UV-I 0 W/m 16,4 C 15,1 C 20,9 km/h (4 Bft) 96,43 %
26.06.2016 01:00 18,1 C 90 % 1013,4 hPa 0,0 l/m 18,1 km/h (3 Bft) W-SW 246 0 min 0,025 mm 0,0 UV-I 0 W/m 16,4 C 14,2 C 25,7 km/h (4 Bft) 100,00 %
26.06.2016 01:01 18,1 C 90 % 1013,5 hPa 0,0 l/m 17,6 km/h (3 Bft) W-SW 256 0 min 0,000 mm 0,0 UV-I 0 W/m 16,4 C 14,3 C 24,1 km/h (4 Bft) 100,00 %
26.06.2016 01:04 18,1 C 90 % 1013,6 hPa 0,0 l/m 14,2 km/h (3 Bft) SW 215 0 min 0,000 mm 0,0 UV-I 0 W/m 16,4 C 15,2 C 20,9 km/h (4 Bft) 100,00 %
26.06.2016 01:06 18,1 C 90 % 1013,7 hPa 0,0 l/m 15,4 km/h (3 Bft) SW 216 0 min 0,000 mm 0,0 UV-I 0 W/m 16,4 C 14,8 C 20,9 km/h (4 Bft) 100,00 %
26.06.2016 01:08 18,1 C 90 % 1013,7 hPa 0,0 l/m 14,8 km/h (3 Bft) S-SW 210 0 min 0,000 mm 0,0 UV-I 0 W/m 16,4 C 15,0 C 22,5 km/h (4 Bft) 98,00 %
26.06.2016 01:10 18,1 C 90 % 1013,7 hPa 0,0 l/m 14,4 km/h (3 Bft) S-SW 200 0 min 0,000 mm 0,0 UV-I 0 W/m 16,4 C 15,1 C 19,3 km/h (3 Bft) 98,00 %
26.06.2016 01:12 18,1 C 90 % 1013,6 hPa 0,0 l/m 13,6 km/h (3 Bft) SW 231 0 min 0,000 mm 0,0 UV-I 0 W/m 16,4 C 15,3 C 20,9 km/h (4 Bft) 94,74 %
26.06.2016 01:14 18,0 C 90 % 1013,6 hPa 0,0 l/m 13,6 km/h (3 Bft) SW 227 0 min 0,000 mm 0,0 UV-I 0 W/m 16,3 C 15,2 C 20,9 km/h (4 Bft) 98,00 %
26.06.2016 01:16 18,0 C 90 % 1013,6 hPa 0,0 l/m 17,4 km/h (3 Bft) SW 234 0 min 0,000 mm 0,0 UV-I 0 W/m 16,3 C 14,2 C 20,9 km/h (4 Bft) 100,00 %
26.06.2016 01:18 18,0 C 90 % 1013,7 hPa 0,0 l/m 13,7 km/h (3 Bft) W-SW 240 0 min 0,000 mm 0,0 UV-I 0 W/m 16,3 C 15,2 C 19,3 km/h (3 Bft) 97,56 %
26.06.2016 01:20 18,0 C 90 % 1013,6 hPa 0,0 l/m 15,0 km/h (3 Bft) SW 216 0 min 0,000 mm 0,0 UV-I 0 W/m 16,3 C 14,8 C 20,9 km/h (4 Bft) 100,00 %
26.06.2016 01:22 17,9 C 91 % 1013,7 hPa 0,0 l/m 12,1 km/h (2 Bft) W-SW 237 0 min 0,000 mm 0,0 UV-I 0 W/m 16,4 C 15,6 C 19,3 km/h (3 Bft) 100,00 %
26.06.2016 01:24 17,9 C 91 % 1013,7 hPa 0,0 l/m 12,1 km/h (2 Bft) W-SW 243 0 min 0,000 mm 0,0 UV-I 0 W/m 16,4 C 15,6 C 17,7 km/h (3 Bft) 96,00 %
26.06.2016 01:26 17,9 C 91 % 1013,6 hPa 0,0 l/m 13,1 km/h (3 Bft) S-SW 213 0 min 0,000 mm 0,0 UV-I 0 W/m 16,4 C 15,3 C 20,9 km/h (4 Bft) 100,00 %
26.06.2016 01:28 17,9 C 91 % 1013,6 hPa 0,0 l/m 12,5 km/h (3 Bft) W-SW 246 0 min 0,000 mm 0,0 UV-I 0 W/m 16,4 C 15,4 C 19,3 km/h (3 Bft) 100,00 %
26.06.2016 01:30 17,9 C 91 % 1013,6 hPa 0,0 l/m 11,2 km/h (2 Bft) W-SW 246 0 min 0,000 mm 0,0 UV-I 0 W/m 16,4 C 15,9 C 17,7 km/h (3 Bft) 100,00 %
26.06.2016 01:32 17,9 C 91 % 1013,7 hPa 0,0 l/m 13,3 km/h (3 Bft) W 272 0 min 0,000 mm 0,0 UV-I 0 W/m 16,4 C 15,2 C 24,1 km/h (4 Bft) 100,00 %
26.06.2016 01:34 17,9 C 91 % 1013,6 hPa 0,0 l/m 11,0 km/h (2 Bft) SW 235 0 min 0,000 mm 0,0 UV-I 0 W/m 16,4 C 16,0 C 17,7 km/h (3 Bft) 100,00 %
26.06.2016 01:36 17,9 C 91 % 1013,6 hPa 0,0 l/m 10,7 km/h (2 Bft) W-SW 252 0 min 0,000 mm 0,0 UV-I 0 W/m 16,4 C 16,1 C 16,1 km/h (3 Bft) 95,12 %
26.06.2016 01:38 17,9 C 91 % 1013,6 hPa 0,0 l/m 12,4 km/h (3 Bft) SW 232 0 min 0,000 mm 0,0 UV-I 0 W/m 16,4 C 15,5 C 22,5 km/h (4 Bft) 100,00 %
26.06.2016 01:40 17,9 C 91 % 1013,6 hPa 0,0 l/m 12,0 km/h (2 Bft) W-SW 248 0 min 0,000 mm 0,0 UV-I 0 W/m 16,4 C 15,6 C 16,1 km/h (3 Bft) 100,00 %
26.06.2016 01:42 17,9 C 91 % 1013,7 hPa 0,0 l/m 11,4 km/h (2 Bft) SW 232 0 min 0,000 mm 0,0 UV-I 0 W/m 16,4 C 15,8 C 16,1 km/h (3 Bft) 100,00 %
26.06.2016 01:44 17,9 C 91 % 1013,7 hPa 0,0 l/m 12,4 km/h (3 Bft) W-SW 248 0 min 0,000 mm 0,0 UV-I 0 W/m 16,4 C 15,5 C 16,1 km/h (3 Bft) 100,00 %
26.06.2016 01:46 17,9 C 91 % 1013,6 hPa 0,0 l/m 9,7 km/h (2 Bft) W-SW 244 0 min 0,000 mm 0,0 UV-I 0 W/m 16,4 C 16,4 C 14,5 km/h (3 Bft) 100,00 %
26.06.2016 01:48 17,9 C 91 % 1013,7 hPa 0,0 l/m 10,1 km/h (2 Bft) W 261 0 min 0,000 mm 0,0 UV-I 0 W/m 16,4 C 16,3 C 12,9 km/h (3 Bft) 97,87 %
26.06.2016 01:50 17,9 C 91 % 1013,7 hPa 0,0 l/m 9,7 km/h (2 Bft) W-SW 257 0 min 0,000 mm 0,0 UV-I 0 W/m 16,4 C 16,4 C 14,5 km/h (3 Bft) 100,00 %
26.06.2016 01:53 17,9 C 91 % 1013,8 hPa 0,0 l/m 10,0 km/h (2 Bft) SW 232 0 min 0,000 mm 0,0 UV-I 0 W/m 16,4 C 16,3 C 17,7 km/h (3 Bft) 100,00 %
26.06.2016 01:54 17,9 C 91 % 1013,8 hPa 0,0 l/m 9,7 km/h (2 Bft) W-SW 247 0 min 0,000 mm 0,0 UV-I 0 W/m 16,4 C 16,4 C 12,9 km/h (3 Bft) 96,88 %
26.06.2016 01:56 17,9 C 91 % 1013,9 hPa 0,0 l/m 10,3 km/h (2 Bft) SW 215 0 min 0,000 mm 0,0 UV-I 0 W/m 16,4 C 16,2 C 16,1 km/h (3 Bft) 100,00 %
26.06.2016 01:58 17,9 C 91 % 1013,9 hPa 0,0 l/m 9,1 km/h (2 Bft) S 190 0 min 0,000 mm 0,0 UV-I 0 W/m 16,4 C 16,7 C 14,5 km/h (3 Bft) 98,51 %
26.06.2016 02:00 17,9 C 91 % 1013,9 hPa 0,0 l/m 9,5 km/h (2 Bft) SW 227 0 min 0,026 mm 0,0 UV-I 0 W/m 16,4 C 16,5 C 17,7 km/h (3 Bft) 100,00 %
26.06.2016 02:02 17,9 C 91 % 1014,0 hPa 0,0 l/m 5,9 km/h (2 Bft) SW 218 0 min 0,000 mm 0,0 UV-I 0 W/m 16,4 C 17,9 C 9,7 km/h (2 Bft) 100,00 %
26.06.2016 02:04 17,9 C 91 % 1014,0 hPa 0,0 l/m 11,1 km/h (2 Bft) SW 223 0 min 0,000 mm 0,0 UV-I 0 W/m 16,4 C 15,9 C 19,3 km/h (3 Bft) 100,00 %
26.06.2016 02:06 17,9 C 91 % 1013,9 hPa 0,0 l/m 7,5 km/h (2 Bft) W-SW 237 0 min 0,000 mm 0,0 UV-I 0 W/m 16,4 C 17,4 C 11,3 km/h (2 Bft) 100,00 %
26.06.2016 02:08 17,9 C 91 % 1013,9 hPa 0,0 l/m 7,8 km/h (2 Bft) W 268 0 min 0,000 mm 0,0 UV-I 0 W/m 16,4 C 17,2 C 11,3 km/h (2 Bft) 100,00 %
26.06.2016 02:10 17,9 C 91 % 1013,8 hPa 0,0 l/m 6,2 km/h (2 Bft) W-SW 244 0 min 0,000 mm 0,0 UV-I 0 W/m 16,4 C 17,9 C 9,7 km/h (2 Bft) 100,00 %
26.06.2016 02:12 17,8 C 91 % 1013,9 hPa 0,0 l/m 8,4 km/h (2 Bft) W-SW 254 0 min 0,000 mm 0,0 UV-I 0 W/m 16,3 C 16,9 C 17,7 km/h (3 Bft) 100,00 %
26.06.2016 02:14 17,8 C 91 % 1013,8 hPa 0,0 l/m 9,7 km/h (2 Bft) SW 219 0 min 0,000 mm 0,0 UV-I 0 W/m 16,3 C 16,3 C 14,5 km/h (3 Bft) 100,00 %
26.06.2016 02:16 17,8 C 90 % 1013,8 hPa 0,0 l/m 11,0 km/h (2 Bft) S-SW 200 0 min 0,000 mm 0,0 UV-I 0 W/m 16,1 C 15,8 C 16,1 km/h (3 Bft) 98,11 %
26.06.2016 02:18 17,8 C 90 % 1013,8 hPa 0,0 l/m 7,0 km/h (2 Bft) SW 225 0 min 0,000 mm 0,0 UV-I 0 W/m 16,1 C 17,5 C 12,9 km/h (3 Bft) 100,00 %
26.06.2016 02:20 17,8 C 91 % 1013,9 hPa 0,0 l/m 9,5 km/h (2 Bft) W-SW 253 0 min 0,000 mm 0,0 UV-I 0 W/m 16,3 C 16,4 C 17,7 km/h (3 Bft) 100,00 %
26.06.2016 02:22 17,8 C 90 % 1013,9 hPa 0,0 l/m 11,2 km/h (2 Bft) SW 235 0 min 0,000 mm 0,0 UV-I 0 W/m 16,1 C 15,8 C 14,5 km/h (3 Bft) 100,00 %
26.06.2016 02:24 17,8 C 91 % 1013,9 hPa 0,0 l/m 10,7 km/h (2 Bft) W-SW 247 0 min 0,000 mm 0,0 UV-I 0 W/m 16,3 C 15,9 C 19,3 km/h (3 Bft) 100,00 %
26.06.2016 02:26 17,8 C 90 % 1013,8 hPa 0,0 l/m 10,0 km/h (2 Bft) SW 228 0 min 0,000 mm 0,0 UV-I 0 W/m 16,1 C 16,2 C 12,9 km/h (3 Bft) 97,14 %
26.06.2016 02:28 17,8 C 90 % 1013,8 hPa 0,0 l/m 11,0 km/h (2 Bft) S-SW 211 0 min 0,000 mm 0,0 UV-I 0 W/m 16,1 C 15,8 C 17,7 km/h (3 Bft) 96,43 %
26.06.2016 02:30 17,8 C 90 % 1013,9 hPa 0,0 l/m 9,7 km/h (2 Bft) W-SW 247 0 min 0,000 mm 0,0 UV-I 0 W/m 16,1 C 16,3 C 17,7 km/h (3 Bft) 97,73 %
26.06.2016 02:32 17,8 C 90 % 1013,8 hPa 0,0 l/m 8,4 km/h (2 Bft) W-SW 237 0 min 0,000 mm 0,0 UV-I 0 W/m 16,1 C 16,9 C 12,9 km/h (3 Bft) 96,23 %
26.06.2016 02:34 17,8 C 91 % 1013,7 hPa 0,0 l/m 9,4 km/h (2 Bft) W-SW 237 0 min 0,000 mm 0,0 UV-I 0 W/m 16,3 C 16,4 C 16,1 km/h (3 Bft) 100,00 %
26.06.2016 02:36 17,8 C 91 % 1013,8 hPa 0,0 l/m 13,1 km/h (3 Bft) SW 221 0 min 0,000 mm 0,0 UV-I 0 W/m 16,3 C 15,1 C 19,3 km/h (3 Bft) 95,74 %
26.06.2016 02:38 17,8 C 91 % 1013,8 hPa 0,0 l/m 11,7 km/h (2 Bft) SW 220 0 min 0,000 mm 0,0 UV-I 0 W/m 16,3 C 15,6 C 19,3 km/h (3 Bft) 98,11 %
26.06.2016 02:40 17,8 C 90 % 1013,7 hPa 0,0 l/m 11,3 km/h (2 Bft) SW 234 0 min 0,000 mm 0,0 UV-I 0 W/m 16,1 C 15,7 C 19,3 km/h (3 Bft) 96,00 %
26.06.2016 02:42 17,8 C 90 % 1013,7 hPa 0,0 l/m 12,9 km/h (3 Bft) W-SW 239 0 min 0,000 mm 0,0 UV-I 0 W/m 16,1 C 15,2 C 20,9 km/h (4 Bft) 97,56 %
26.06.2016 02:44 17,8 C 91 % 1013,6 hPa 0,0 l/m 11,1 km/h (2 Bft) SW 229 0 min 0,000 mm 0,0 UV-I 0 W/m 16,3 C 15,8 C 16,1 km/h (3 Bft) 97,78 %
26.06.2016 02:46 17,8 C 91 % 1013,7 hPa 0,0 l/m 12,0 km/h (2 Bft) SW 232 0 min 0,000 mm 0,0 UV-I 0 W/m 16,3 C 15,5 C 19,3 km/h (3 Bft) 95,12 %
26.06.2016 02:48 17,7 C 91 % 1013,7 hPa 0,0 l/m 10,5 km/h (2 Bft) S-SW 209 0 min 0,000 mm 0,0 UV-I 0 W/m 16,2 C 15,9 C 17,7 km/h (3 Bft) 96,23 %
26.06.2016 02:50 17,7 C 91 % 1013,7 hPa 0,0 l/m 10,6 km/h (2 Bft) SW 225 0 min 0,000 mm 0,0 UV-I 0 W/m 16,2 C 15,9 C 16,1 km/h (3 Bft) 96,00 %
26.06.2016 02:52 17,7 C 91 % 1013,7 hPa 0,0 l/m 8,4 km/h (2 Bft) SW 221 0 min 0,000 mm 0,0 UV-I 0 W/m 16,2 C 16,8 C 16,1 km/h (3 Bft) 95,12 %
26.06.2016 02:54 17,7 C 91 % 1013,7 hPa 0,0 l/m 8,1 km/h (2 Bft) SW 232 0 min 0,000 mm 0,0 UV-I 0 W/m 16,2 C 16,9 C 14,5 km/h (3 Bft) 97,73 %
26.06.2016 02:56 17,7 C 91 % 1013,8 hPa 0,0 l/m 8,4 km/h (2 Bft) W-SW 247 0 min 0,000 mm 0,0 UV-I 0 W/m 16,2 C 16,8 C 14,5 km/h (3 Bft) 96,43 %
26.06.2016 02:58 17,7 C 91 % 1013,8 hPa 0,0 l/m 9,8 km/h (2 Bft) S-SW 211 0 min 0,000 mm 0,0 UV-I 0 W/m 16,2 C 16,2 C 12,9 km/h (3 Bft) 100,00 %
26.06.2016 03:00 17,6 C 91 % 1013,7 hPa 0,0 l/m 11,3 km/h (2 Bft) S 182 0 min 0,025 mm 0,0 UV-I 0 W/m 16,1 C 15,5 C 17,7 km/h (3 Bft) 100,00 %
26.06.2016 03:02 17,6 C 91 % 1013,8 hPa 0,0 l/m 11,6 km/h (2 Bft) SW 234 0 min 0,000 mm 0,0 UV-I 0 W/m 16,1 C 15,4 C 19,3 km/h (3 Bft) 100,00 %
26.06.2016 03:04 17,6 C 91 % 1013,9 hPa 0,0 l/m 13,0 km/h (3 Bft) W-SW 248 0 min 0,000 mm 0,0 UV-I 0 W/m 16,1 C 14,9 C 20,9 km/h (4 Bft) 98,11 %
26.06.2016 03:06 17,6 C 91 % 1013,8 hPa 0,0 l/m 11,2 km/h (2 Bft) SW 227 0 min 0,000 mm 0,0 UV-I 0 W/m 16,1 C 15,5 C 16,1 km/h (3 Bft) 100,00 %
26.06.2016 03:08 17,6 C 91 % 1013,8 hPa 0,0 l/m 10,9 km/h (2 Bft) SW 230 0 min 0,000 mm 0,0 UV-I 0 W/m 16,1 C 15,7 C 16,1 km/h (3 Bft) 100,00 %
26.06.2016 03:10 17,6 C 91 % 1013,8 hPa 0,0 l/m 11,9 km/h (2 Bft) W-SW 240 0 min 0,000 mm 0,0 UV-I 0 W/m 16,1 C 15,3 C 16,1 km/h (3 Bft) 100,00 %
26.06.2016 03:12 17,6 C 91 % 1013,8 hPa 0,0 l/m 9,9 km/h (2 Bft) SW 224 0 min 0,000 mm 0,0 UV-I 0 W/m 16,1 C 16,0 C 16,1 km/h (3 Bft) 100,00 %
26.06.2016 03:14 17,6 C 91 % 1013,9 hPa 0,0 l/m 10,5 km/h (2 Bft) S-SW 196 0 min 0,000 mm 0,0 UV-I 0 W/m 16,1 C 15,8 C 17,7 km/h (3 Bft) 100,00 %
26.06.2016 03:16 17,6 C 91 % 1013,9 hPa 0,0 l/m 10,2 km/h (2 Bft) W 263 0 min 0,000 mm 0,0 UV-I 0 W/m 16,1 C 15,9 C 16,1 km/h (3 Bft) 100,00 %
26.06.2016 03:18 17,6 C 91 % 1013,9 hPa 0,0 l/m 14,9 km/h (3 Bft) W-SW 256 0 min 0,000 mm 0,0 UV-I 0 W/m 16,1 C 14,4 C 22,5 km/h (4 Bft) 100,00 %
26.06.2016 03:20 17,6 C 91 % 1013,9 hPa 0,0 l/m 13,0 km/h (3 Bft) W-SW 250 0 min 0,000 mm 0,0 UV-I 0 W/m 16,1 C 14,9 C 17,7 km/h (3 Bft) 97,87 %
26.06.2016 03:22 17,7 C 91 % 1013,9 hPa 0,0 l/m 13,4 km/h (3 Bft) W-SW 254 0 min 0,000 mm 0,0 UV-I 0 W/m 16,2 C 14,9 C 19,3 km/h (3 Bft) 100,00 %
26.06.2016 03:24 17,7 C 90 % 1013,9 hPa 0,0 l/m 13,1 km/h (3 Bft) W 261 0 min 0,000 mm 0,0 UV-I 0 W/m 16,0 C 15,0 C 17,7 km/h (3 Bft) 98,08 %
26.06.2016 03:26 17,7 C 90 % 1013,9 hPa 0,0 l/m 11,1 km/h (2 Bft) W-SW 250 0 min 0,000 mm 0,0 UV-I 0 W/m 16,0 C 15,7 C 16,1 km/h (3 Bft) 97,44 %
26.06.2016 03:28 17,7 C 90 % 1013,9 hPa 0,0 l/m 13,0 km/h (3 Bft) S-SW 202 0 min 0,000 mm 0,0 UV-I 0 W/m 16,0 C 15,1 C 17,7 km/h (3 Bft) 100,00 %
26.06.2016 03:30 17,7 C 90 % 1014,0 hPa 0,0 l/m 9,9 km/h (2 Bft) SW 236 0 min 0,000 mm 0,0 UV-I 0 W/m 16,0 C 16,1 C 14,5 km/h (3 Bft) 100,00 %
26.06.2016 03:32 17,7 C 90 % 1014,0 hPa 0,0 l/m 11,1 km/h (2 Bft) W 270 0 min 0,000 mm 0,0 UV-I 0 W/m 16,0 C 15,7 C 16,1 km/h (3 Bft) 98,00 %
26.06.2016 03:34 17,7 C 91 % 1014,0 hPa 0,0 l/m 10,7 km/h (2 Bft) W-SW 250 0 min 0,000 mm 0,0 UV-I 0 W/m 16,2 C 15,8 C 16,1 km/h (3 Bft) 97,87 %
26.06.2016 03:36 17,7 C 91 % 1014,0 hPa 0,0 l/m 10,2 km/h (2 Bft) W 273 0 min 0,000 mm 0,0 UV-I 0 W/m 16,2 C 16,0 C 14,5 km/h (3 Bft) 100,00 %
26.06.2016 03:38 17,7 C 91 % 1014,0 hPa 0,0 l/m 10,9 km/h (2 Bft) W-SW 252 0 min 0,000 mm 0,0 UV-I 0 W/m 16,2 C 15,8 C 17,7 km/h (3 Bft) 100,00 %
26.06.2016 03:40 17,7 C 91 % 1014,0 hPa 0,0 l/m 11,2 km/h (2 Bft) W-SW 253 0 min 0,000 mm 0,0 UV-I 0 W/m 16,2 C 15,7 C 16,1 km/h (3 Bft) 100,00 %
26.06.2016 03:42 17,7 C 91 % 1014,0 hPa 0,0 l/m 11,3 km/h (2 Bft) W-SW 249 0 min 0,000 mm 0,0 UV-I 0 W/m 16,2 C 15,6 C 14,5 km/h (3 Bft) 100,00 %
26.06.2016 03:44 17,7 C 91 % 1014,0 hPa 0,0 l/m 12,3 km/h (3 Bft) W 263 0 min 0,000 mm 0,0 UV-I 0 W/m 16,2 C 15,3 C 16,1 km/h (3 Bft) 100,00 %
26.06.2016 03:46 17,7 C 91 % 1014,1 hPa 0,0 l/m 11,6 km/h (2 Bft) SW 222 0 min 0,000 mm 0,0 UV-I 0 W/m 16,2 C 15,5 C 16,1 km/h (3 Bft) 98,21 %
26.06.2016 03:48 17,7 C 91 % 1014,1 hPa 0,0 l/m 10,5 km/h (2 Bft) SW 232 0 min 0,000 mm 0,0 UV-I 0 W/m 16,2 C 15,9 C 16,1 km/h (3 Bft) 100,00 %
26.06.2016 03:50 17,7 C 91 % 1014,1 hPa 0,0 l/m 8,9 km/h (2 Bft) W-SW 247 0 min 0,000 mm 0,0 UV-I 0 W/m 16,2 C 16,5 C 14,5 km/h (3 Bft) 100,00 %
26.06.2016 03:52 17,7 C 91 % 1014,1 hPa 0,0 l/m 9,6 km/h (2 Bft) W 262 0 min 0,000 mm 0,0 UV-I 0 W/m 16,2 C 16,3 C 14,5 km/h (3 Bft) 100,00 %
26.06.2016 03:54 17,7 C 91 % 1014,2 hPa 0,0 l/m 9,5 km/h (2 Bft) SW 224 0 min 0,000 mm 0,0 UV-I 0 W/m 16,2 C 16,3 C 14,5 km/h (3 Bft) 98,31 %
26.06.2016 03:56 17,7 C 91 % 1014,2 hPa 0,0 l/m 7,0 km/h (2 Bft) W-SW 244 0 min 0,000 mm 0,0 UV-I 0 W/m 16,2 C 17,4 C 9,7 km/h (2 Bft) 100,00 %
26.06.2016 03:58 17,7 C 91 % 1014,3 hPa 0,0 l/m 8,0 km/h (2 Bft) SW 236 0 min 0,000 mm 0,0 UV-I 0 W/m 16,2 C 16,9 C 14,5 km/h (3 Bft) 98,21 %
26.06.2016 04:00 17,7 C 91 % 1014,2 hPa 0,0 l/m 7,4 km/h (2 Bft) S-SW 200 0 min 0,026 mm 0,0 UV-I 0 W/m 16,2 C 17,2 C 11,3 km/h (2 Bft) 95,12 %
26.06.2016 04:02 17,7 C 91 % 1014,3 hPa 0,0 l/m 8,0 km/h (2 Bft) SW 217 0 min 0,000 mm 0,0 UV-I 0 W/m 16,2 C 16,9 C 8,0 km/h (2 Bft) 100,00 %
26.06.2016 04:04 17,7 C 92 % 1014,2 hPa 0,0 l/m 5,6 km/h (1 Bft) W-SW 248 0 min 0,000 mm 0,0 UV-I 0 W/m 16,4 C 17,7 C 8,0 km/h (2 Bft) 100,00 %
26.06.2016 04:06 17,7 C 92 % 1014,3 hPa 0,0 l/m 7,8 km/h (2 Bft) SW 228 0 min 0,000 mm 0,0 UV-I 0 W/m 16,4 C 17,0 C 11,3 km/h (2 Bft) 97,62 %
26.06.2016 04:08 17,7 C 92 % 1014,4 hPa 0,0 l/m 6,5 km/h (2 Bft) W-SW 244 0 min 0,000 mm 0,0 UV-I 0 W/m 16,4 C 17,7 C 11,3 km/h (2 Bft) 100,00 %
26.06.2016 04:10 17,7 C 92 % 1014,3 hPa 0,0 l/m 4,5 km/h (1 Bft) SW 223 0 min 0,000 mm 0,0 UV-I 0 W/m 16,4 C 17,7 C 8,0 km/h (2 Bft) 97,56 %
26.06.2016 04:12 17,6 C 92 % 1014,4 hPa 0,0 l/m 5,3 km/h (1 Bft) SW 235 0 min 0,000 mm 0,0 UV-I 0 W/m 16,3 C 17,6 C 8,0 km/h (2 Bft) 100,00 %
26.06.2016 04:14 17,6 C 92 % 1014,4 hPa 0,0 l/m 5,8 km/h (2 Bft) SW 223 0 min 0,000 mm 0,0 UV-I 0 W/m 16,3 C 17,6 C 9,7 km/h (2 Bft) 100,00 %
26.06.2016 04:16 17,6 C 92 % 1014,5 hPa 0,0 l/m 6,9 km/h (2 Bft) SW 228 0 min 0,000 mm 0,0 UV-I 0 W/m 16,3 C 17,4 C 9,7 km/h (2 Bft) 100,00 %
26.06.2016 04:18 17,6 C 92 % 1014,5 hPa 0,0 l/m 4,6 km/h (1 Bft) SW 235 0 min 0,000 mm 0,0 UV-I 0 W/m 16,3 C 17,6 C 6,4 km/h (2 Bft) 100,00 %
26.06.2016 04:20 17,6 C 92 % 1014,5 hPa 0,0 l/m 5,1 km/h (1 Bft) SW 236 0 min 0,000 mm 0,0 UV-I 0 W/m 16,3 C 17,6 C 9,7 km/h (2 Bft) 97,87 %
26.06.2016 04:22 17,6 C 92 % 1014,6 hPa 0,0 l/m 5,4 km/h (1 Bft) W-SW 247 0 min 0,000 mm 0,0 UV-I 0 W/m 16,3 C 17,6 C 11,3 km/h (2 Bft) 98,00 %
26.06.2016 04:24 17,6 C 92 % 1014,6 hPa 0,0 l/m 5,5 km/h (1 Bft) SW 233 0 min 0,000 mm 0,0 UV-I 0 W/m 16,3 C 17,6 C 8,0 km/h (2 Bft) 97,56 %
26.06.2016 04:26 17,6 C 92 % 1014,6 hPa 0,0 l/m 5,8 km/h (2 Bft) W-SW 257 0 min 0,000 mm 0,0 UV-I 0 W/m 16,3 C 17,6 C 11,3 km/h (2 Bft) 98,31 %
26.06.2016 04:28 17,6 C 92 % 1014,6 hPa 0,0 l/m 7,0 km/h (2 Bft) W-SW 238 0 min 0,000 mm 0,0 UV-I 0 W/m 16,3 C 17,3 C 11,3 km/h (2 Bft) 97,73 %
26.06.2016 04:30 17,6 C 92 % 1014,6 hPa 0,0 l/m 4,9 km/h (1 Bft) SW 225 0 min 0,000 mm 0,0 UV-I 0 W/m 16,3 C 17,6 C 8,0 km/h (2 Bft) 96,00 %
26.06.2016 04:32 17,6 C 92 % 1014,6 hPa 0,0 l/m 4,2 km/h (1 Bft) W-SW 246 0 min 0,000 mm 0,0 UV-I 0 W/m 16,3 C 17,6 C 6,4 km/h (2 Bft) 97,14 %
26.06.2016 04:34 17,6 C 92 % 1014,6 hPa 0,0 l/m 3,8 km/h (1 Bft) W 277 0 min 0,000 mm 0,0 UV-I 0 W/m 16,3 C 17,6 C 6,4 km/h (2 Bft) 95,92 %
26.06.2016 04:36 17,6 C 92 % 1014,6 hPa 0,0 l/m 4,2 km/h (1 Bft) W 265 0 min 0,000 mm 0,0 UV-I 0 W/m 16,3 C 17,6 C 9,7 km/h (2 Bft) 96,00 %
26.06.2016 04:38 17,6 C 92 % 1014,7 hPa 0,0 l/m 4,0 km/h (1 Bft) W 273 0 min 0,000 mm 0,0 UV-I 0 W/m 16,3 C 17,6 C 6,4 km/h (2 Bft) 96,00 %
26.06.2016 04:40 17,6 C 92 % 1014,7 hPa 0,0 l/m 8,9 km/h (2 Bft) W 261 0 min 0,000 mm 0,0 UV-I 0 W/m 16,3 C 16,4 C 14,5 km/h (3 Bft) 97,73 %
26.06.2016 04:42 17,5 C 91 % 1014,7 hPa 0,0 l/m 6,0 km/h (2 Bft) W-SW 240 0 min 0,000 mm 0,0 UV-I 0 W/m 16,0 C 17,5 C 11,3 km/h (2 Bft) 96,00 %
26.06.2016 04:44 17,5 C 91 % 1014,7 hPa 0,0 l/m 6,2 km/h (2 Bft) W-SW 254 0 min 0,000 mm 0,0 UV-I 0 W/m 16,0 C 17,5 C 12,9 km/h (3 Bft) 97,87 %
26.06.2016 04:46 17,5 C 91 % 1014,7 hPa 0,0 l/m 7,5 km/h (2 Bft) SW 226 0 min 0,000 mm 0,0 UV-I 0 W/m 16,0 C 17,0 C 12,9 km/h (3 Bft) 97,22 %
26.06.2016 04:48 17,5 C 91 % 1014,7 hPa 0,0 l/m 10,1 km/h (2 Bft) W-SW 252 0 min 0,000 mm 0,0 UV-I 0 W/m 16,0 C 15,8 C 17,7 km/h (3 Bft) 98,00 %
26.06.2016 04:50 17,5 C 90 % 1014,8 hPa 0,0 l/m 10,4 km/h (2 Bft) W-SW 256 0 min 0,000 mm 0,0 UV-I 0 W/m 15,8 C 15,7 C 17,7 km/h (3 Bft) 98,00 %
26.06.2016 04:52 17,4 C 90 % 1014,8 hPa 0,0 l/m 8,4 km/h (2 Bft) W-SW 240 0 min 0,000 mm 0,0 UV-I 0 W/m 15,7 C 16,4 C 16,1 km/h (3 Bft) 97,56 %
26.06.2016 04:54 17,4 C 90 % 1014,8 hPa 0,0 l/m 8,6 km/h (2 Bft) W-SW 257 0 min 0,000 mm 0,0 UV-I 0 W/m 15,7 C 16,4 C 14,5 km/h (3 Bft) 95,12 %
26.06.2016 04:56 17,4 C 89 % 1014,8 hPa 0,0 l/m 10,9 km/h (2 Bft) SW 221 0 min 0,000 mm 0,0 UV-I 0 W/m 15,6 C 15,4 C 19,3 km/h (3 Bft) 94,34 %
26.06.2016 04:58 17,4 C 89 % 1014,8 hPa 0,0 l/m 6,4 km/h (2 Bft) W-SW 251 0 min 0,000 mm 0,0 UV-I 0 W/m 15,6 C 17,4 C 12,9 km/h (3 Bft) 100,00 %
26.06.2016 05:00 17,4 C 89 % 1014,8 hPa 0,0 l/m 6,7 km/h (2 Bft) W 260 0 min 0,000 mm 0,0 UV-I 0 W/m 15,6 C 17,3 C 11,3 km/h (2 Bft) 98,00 %
26.06.2016 05:02 17,4 C 89 % 1014,9 hPa 0,0 l/m 5,0 km/h (1 Bft) W-SW 252 0 min 0,000 mm 0,0 UV-I 0 W/m 15,6 C 17,4 C 6,4 km/h (2 Bft) 97,87 %
26.06.2016 05:04 17,4 C 89 % 1014,8 hPa 0,0 l/m 6,3 km/h (2 Bft) W-SW 249 0 min 0,000 mm 0,0 UV-I 0 W/m 15,6 C 17,4 C 8,0 km/h (2 Bft) 100,00 %
26.06.2016 05:06 17,4 C 89 % 1014,8 hPa 0,0 l/m 5,0 km/h (1 Bft) W-SW 254 0 min 0,000 mm 0,0 UV-I 0 W/m 15,6 C 17,4 C 8,0 km/h (2 Bft) 100,00 %
26.06.2016 05:08 17,4 C 89 % 1014,9 hPa 0,0 l/m 3,8 km/h (1 Bft) W-SW 254 0 min 0,000 mm 0,0 UV-I 0 W/m 15,6 C 17,4 C 6,4 km/h (2 Bft) 98,11 %
26.06.2016 05:10 17,4 C 89 % 1014,8 hPa 0,0 l/m 4,3 km/h (1 Bft) W 260 0 min 0,000 mm 0,0 UV-I 0 W/m 15,6 C 17,4 C 6,4 km/h (2 Bft) 100,00 %
26.06.2016 05:12 17,4 C 89 % 1014,9 hPa 0,0 l/m 3,5 km/h (1 Bft) W 273 0 min 0,000 mm 0,0 UV-I 0 W/m 15,6 C 17,4 C 4,8 km/h (1 Bft) 100,00 %
26.06.2016 05:14 17,4 C 89 % 1014,9 hPa 0,0 l/m 4,3 km/h (1 Bft) W-SW 257 0 min 0,000 mm 0,0 UV-I 0 W/m 15,6 C 17,4 C 4,8 km/h (1 Bft) 100,00 %
26.06.2016 05:16 17,4 C 89 % 1014,9 hPa 0,0 l/m 4,2 km/h (1 Bft) W 274 0 min 0,000 mm 0,0 UV-I 0 W/m 15,6 C 17,4 C 9,7 km/h (2 Bft) 100,00 %
26.06.2016 05:18 17,4 C 89 % 1014,8 hPa 0,0 l/m 3,1 km/h (1 Bft) W 279 0 min 0,000 mm 0,0 UV-I 0 W/m 15,6 C 17,4 C 4,8 km/h (1 Bft) 100,00 %
26.06.2016 05:20 17,4 C 89 % 1014,8 hPa 0,0 l/m 5,5 km/h (1 Bft) W-SW 254 0 min 0,000 mm 0,0 UV-I 0 W/m 15,6 C 17,4 C 11,3 km/h (2 Bft) 98,00 %
26.06.2016 05:22 17,4 C 89 % 1014,8 hPa 0,0 l/m 5,7 km/h (1 Bft) W-SW 249 0 min 0,000 mm 0,0 UV-I 0 W/m 15,6 C 17,4 C 11,3 km/h (2 Bft) 100,00 %
26.06.2016 05:24 17,4 C 89 % 1014,9 hPa 0,0 l/m 5,9 km/h (2 Bft) W 261 0 min 0,000 mm 0,0 UV-I 0 W/m 15,6 C 17,4 C 9,7 km/h (2 Bft) 100,00 %
26.06.2016 05:26 17,3 C 89 % 1014,9 hPa 0,0 l/m 8,0 km/h (2 Bft) W-SW 247 0 min 0,000 mm 0,0 UV-I 0 W/m 15,5 C 16,5 C 11,3 km/h (2 Bft) 100,00 %
26.06.2016 05:28 17,3 C 89 % 1014,9 hPa 0,0 l/m 8,8 km/h (2 Bft) W-SW 257 0 min 0,000 mm 0,0 UV-I 4 W/m 15,5 C 16,2 C 14,5 km/h (3 Bft) 100,00 %
26.06.2016 05:30 17,3 C 89 % 1014,8 hPa 0,0 l/m 6,6 km/h (2 Bft) W 261 0 min 0,000 mm 0,0 UV-I 5 W/m 15,5 C 17,2 C 11,3 km/h (2 Bft) 100,00 %
26.06.2016 05:32 17,3 C 89 % 1014,9 hPa 0,0 l/m 7,0 km/h (2 Bft) W-SW 250 0 min 0,000 mm 0,0 UV-I 7 W/m 15,5 C 17,0 C 9,7 km/h (2 Bft) 100,00 %
26.06.2016 05:34 17,3 C 89 % 1014,9 hPa 0,0 l/m 6,8 km/h (2 Bft) W-SW 248 0 min 0,000 mm 0,0 UV-I 6 W/m 15,5 C 17,1 C 9,7 km/h (2 Bft) 100,00 %
26.06.2016 05:36 17,3 C 89 % 1014,8 hPa 0,0 l/m 6,1 km/h (2 Bft) W-SW 256 0 min 0,000 mm 0,0 UV-I 5 W/m 15,5 C 17,3 C 11,3 km/h (2 Bft) 100,00 %
26.06.2016 05:38 17,3 C 89 % 1014,9 hPa 0,0 l/m 8,9 km/h (2 Bft) W-SW 254 0 min 0,000 mm 0,0 UV-I 5 W/m 15,5 C 16,1 C 14,5 km/h (3 Bft) 100,00 %
26.06.2016 05:40 17,3 C 89 % 1015,0 hPa 0,0 l/m 7,2 km/h (2 Bft) W-SW 239 0 min 0,000 mm 0,0 UV-I 5 W/m 15,5 C 16,9 C 11,3 km/h (2 Bft) 100,00 %
26.06.2016 05:42 17,3 C 89 % 1015,1 hPa 0,0 l/m 8,7 km/h (2 Bft) W 272 0 min 0,000 mm 0,0 UV-I 6 W/m 15,5 C 16,2 C 12,9 km/h (3 Bft) 100,00 %
26.06.2016 05:44 17,2 C 89 % 1015,0 hPa 0,0 l/m 8,1 km/h (2 Bft) W-SW 240 0 min 0,000 mm 0,0 UV-I 8 W/m 15,4 C 16,4 C 12,9 km/h (3 Bft) 100,00 %
26.06.2016 05:46 17,2 C 89 % 1015,1 hPa 0,0 l/m 7,9 km/h (2 Bft) W-SW 253 0 min 0,000 mm 0,0 UV-I 9 W/m 15,4 C 16,5 C 12,9 km/h (3 Bft) 100,00 %
26.06.2016 05:48 17,2 C 89 % 1015,1 hPa 0,0 l/m 8,6 km/h (2 Bft) W-SW 240 0 min 0,000 mm 0,0 UV-I 9 W/m 15,4 C 16,1 C 12,9 km/h (3 Bft) 100,00 %
26.06.2016 05:50 17,2 C 89 % 1015,1 hPa 0,0 l/m 9,2 km/h (2 Bft) SW 217 0 min 0,000 mm 0,0 UV-I 9 W/m 15,4 C 15,9 C 14,5 km/h (3 Bft) 100,00 %
26.06.2016 05:52 17,2 C 89 % 1015,1 hPa 0,0 l/m 11,8 km/h (2 Bft) W 259 0 min 0,000 mm 0,0 UV-I 11 W/m 15,4 C 14,9 C 17,7 km/h (3 Bft) 100,00 %
26.06.2016 05:54 17,2 C 89 % 1015,1 hPa 0,0 l/m 9,4 km/h (2 Bft) W 277 0 min 0,000 mm 0,0 UV-I 11 W/m 15,4 C 15,8 C 14,5 km/h (3 Bft) 98,00 %
26.06.2016 05:56 17,2 C 89 % 1015,1 hPa 0,0 l/m 9,0 km/h (2 Bft) W-SW 248 0 min 0,000 mm 0,0 UV-I 11 W/m 15,4 C 16,0 C 14,5 km/h (3 Bft) 100,00 %
26.06.2016 05:58 17,1 C 90 % 1015,2 hPa 0,0 l/m 8,7 km/h (2 Bft) S-SW 210 0 min 0,000 mm 0,0 UV-I 12 W/m 15,4 C 16,0 C 14,5 km/h (3 Bft) 100,00 %
26.06.2016 06:00 17,1 C 90 % 1015,2 hPa 0,0 l/m 8,3 km/h (2 Bft) W-SW 242 0 min 0,025 mm 0,0 UV-I 12 W/m 15,4 C 16,2 C 14,5 km/h (3 Bft) 100,00 %
26.06.2016 06:02 17,1 C 90 % 1015,2 hPa 0,0 l/m 8,4 km/h (2 Bft) W-SW 244 0 min 0,000 mm 0,0 UV-I 14 W/m 15,4 C 16,1 C 12,9 km/h (3 Bft) 100,00 %
26.06.2016 06:04 17,1 C 90 % 1015,2 hPa 0,0 l/m 7,7 km/h (2 Bft) S-SW 211 0 min 0,000 mm 0,0 UV-I 17 W/m 15,4 C 16,5 C 11,3 km/h (2 Bft) 100,00 %
26.06.2016 06:06 17,1 C 91 % 1015,1 hPa 0,0 l/m 9,2 km/h (2 Bft) W-SW 242 0 min 0,000 mm 0,0 UV-I 19 W/m 15,6 C 15,8 C 14,5 km/h (3 Bft) 100,00 %
26.06.2016 06:08 17,1 C 91 % 1015,2 hPa 0,0 l/m 8,9 km/h (2 Bft) SW 236 0 min 0,000 mm 0,0 UV-I 19 W/m 15,6 C 15,9 C 14,5 km/h (3 Bft) 96,43 %
26.06.2016 06:10 17,0 C 91 % 1015,2 hPa 0,0 l/m 11,1 km/h (2 Bft) S-SW 211 0 min 0,000 mm 0,0 UV-I 21 W/m 15,5 C 14,9 C 16,1 km/h (3 Bft) 100,00 %
26.06.2016 06:12 17,0 C 91 % 1015,1 hPa 0,0 l/m 10,2 km/h (2 Bft) SW 225 0 min 0,000 mm 0,0 UV-I 22 W/m 15,5 C 15,2 C 14,5 km/h (3 Bft) 100,00 %
26.06.2016 06:14 16,9 C 91 % 1015,2 hPa 0,0 l/m 10,5 km/h (2 Bft) S-SW 213 0 min 0,000 mm 0,0 UV-I 24 W/m 15,4 C 15,0 C 16,1 km/h (3 Bft) 98,00 %
26.06.2016 06:16 16,9 C 90 % 1015,3 hPa 0,0 l/m 11,5 km/h (2 Bft) SW 233 0 min 0,000 mm 0,0 UV-I 27 W/m 15,2 C 14,6 C 17,7 km/h (3 Bft) 100,00 %
26.06.2016 06:18 16,9 C 90 % 1015,3 hPa 0,0 l/m 10,1 km/h (2 Bft) W-SW 248 0 min 0,000 mm 0,0 UV-I 30 W/m 15,2 C 15,2 C 16,1 km/h (3 Bft) 100,00 %
26.06.2016 06:20 16,8 C 90 % 1015,4 hPa 0,0 l/m 11,5 km/h (2 Bft) W-SW 258 0 min 0,000 mm 0,0 UV-I 33 W/m 15,1 C 14,5 C 19,3 km/h (3 Bft) 100,00 %
26.06.2016 06:22 16,8 C 90 % 1015,4 hPa 0,0 l/m 11,7 km/h (2 Bft) W 272 0 min 0,000 mm 0,0 UV-I 35 W/m 15,1 C 14,5 C 16,1 km/h (3 Bft) 100,00 %
26.06.2016 06:24 16,8 C 90 % 1015,4 hPa 0,0 l/m 15,3 km/h (3 Bft) W-SW 249 0 min 0,000 mm 0,0 UV-I 38 W/m 15,1 C 13,3 C 20,9 km/h (4 Bft) 97,87 %
26.06.2016 06:26 16,8 C 90 % 1015,3 hPa 0,0 l/m 12,3 km/h (3 Bft) W 262 0 min 0,000 mm 0,0 UV-I 40 W/m 15,1 C 14,2 C 19,3 km/h (3 Bft) 96,00 %
26.06.2016 06:28 16,8 C 90 % 1015,4 hPa 0,0 l/m 10,2 km/h (2 Bft) W-SW 248 0 min 0,000 mm 0,0 UV-I 44 W/m 15,1 C 15,0 C 17,7 km/h (3 Bft) 95,74 %
26.06.2016 06:30 16,8 C 90 % 1015,4 hPa 0,0 l/m 11,8 km/h (2 Bft) W 260 0 min 0,000 mm 0,0 UV-I 48 W/m 15,1 C 14,4 C 16,1 km/h (3 Bft) 97,37 %
26.06.2016 06:32 16,7 C 90 % 1015,4 hPa 0,0 l/m 11,4 km/h (2 Bft) W 266 0 min 0,000 mm 0,0 UV-I 53 W/m 15,0 C 14,4 C 19,3 km/h (3 Bft) 98,31 %
26.06.2016 06:34 16,7 C 90 % 1015,4 hPa 0,0 l/m 12,9 km/h (3 Bft) W 275 0 min 0,000 mm 0,0 UV-I 57 W/m 15,0 C 13,9 C 16,1 km/h (3 Bft) 97,37 %
26.06.2016 06:36 16,7 C 90 % 1015,4 hPa 0,2 l/m 10,8 km/h (2 Bft) W-SW 256 0 min 0,000 mm 0,0 UV-I 60 W/m 15,0 C 14,7 C 14,5 km/h (3 Bft) 96,23 %
26.06.2016 06:38 16,7 C 91 % 1015,4 hPa 0,0 l/m 9,3 km/h (2 Bft) W-SW 237 0 min 0,000 mm 0,0 UV-I 62 W/m 15,2 C 15,3 C 16,1 km/h (3 Bft) 96,00 %
26.06.2016 06:40 16,7 C 91 % 1015,4 hPa 0,0 l/m 8,5 km/h (2 Bft) W-SW 248 0 min 0,000 mm 0,0 UV-I 62 W/m 15,2 C 15,6 C 12,9 km/h (3 Bft) 97,62 %
26.06.2016 06:42 16,7 C 91 % 1015,5 hPa 0,0 l/m 8,9 km/h (2 Bft) S-SW 213 0 min 0,000 mm 0,0 UV-I 62 W/m 15,2 C 15,5 C 12,9 km/h (3 Bft) 96,15 %
26.06.2016 06:44 16,7 C 91 % 1015,4 hPa 0,0 l/m 9,7 km/h (2 Bft) W-SW 257 0 min 0,000 mm 0,0 UV-I 62 W/m 15,2 C 15,1 C 14,5 km/h (3 Bft) 97,62 %
26.06.2016 06:46 16,7 C 90 % 1015,5 hPa 0,0 l/m 8,4 km/h (2 Bft) W 281 0 min 0,000 mm 0,0 UV-I 62 W/m 15,0 C 15,7 C 12,9 km/h (3 Bft) 98,00 %
26.06.2016 06:48 16,7 C 91 % 1015,5 hPa 0,0 l/m 7,5 km/h (2 Bft) W-SW 250 0 min 0,000 mm 0,0 UV-I 62 W/m 15,2 C 16,1 C 14,5 km/h (3 Bft) 95,74 %
26.06.2016 06:50 16,7 C 91 % 1015,5 hPa 0,0 l/m 7,3 km/h (2 Bft) W-SW 248 0 min 0,000 mm 0,0 UV-I 62 W/m 15,2 C 16,2 C 14,5 km/h (3 Bft) 96,00 %
26.06.2016 06:52 16,7 C 91 % 1015,5 hPa 0,0 l/m 6,5 km/h (2 Bft) W-SW 255 0 min 0,000 mm 0,0 UV-I 62 W/m 15,2 C 16,7 C 9,7 km/h (2 Bft) 97,37 %
26.06.2016 06:54 16,7 C 90 % 1015,5 hPa 0,0 l/m 9,7 km/h (2 Bft) SW 227 0 min 0,000 mm 0,0 UV-I 62 W/m 15,0 C 15,1 C 14,5 km/h (3 Bft) 96,23 %
26.06.2016 06:56 16,7 C 90 % 1015,6 hPa 0,0 l/m 7,2 km/h (2 Bft) W-SW 254 0 min 0,000 mm 0,0 UV-I 63 W/m 15,0 C 16,3 C 11,3 km/h (2 Bft) 98,00 %
26.06.2016 06:58 16,7 C 90 % 1015,6 hPa 0,0 l/m 8,0 km/h (2 Bft) W 268 0 min 0,000 mm 0,0 UV-I 63 W/m 15,0 C 15,9 C 17,7 km/h (3 Bft) 100,00 %
26.06.2016 07:00 16,7 C 91 % 1015,6 hPa 0,0 l/m 5,5 km/h (1 Bft) W-NW 291 0 min 0,000 mm 0,0 UV-I 63 W/m 15,2 C 16,7 C 11,3 km/h (2 Bft) 100,00 %
26.06.2016 07:02 16,7 C 90 % 1015,6 hPa 0,0 l/m 6,0 km/h (2 Bft) W-SW 251 0 min 0,025 mm 0,0 UV-I 63 W/m 15,0 C 16,7 C 11,3 km/h (2 Bft) 100,00 %
26.06.2016 07:04 16,7 C 90 % 1015,6 hPa 0,0 l/m 6,3 km/h (2 Bft) W-SW 258 0 min 0,000 mm 0,0 UV-I 62 W/m 15,0 C 16,7 C 9,7 km/h (2 Bft) 100,00 %
26.06.2016 07:06 16,7 C 90 % 1015,6 hPa 0,0 l/m 4,7 km/h (1 Bft) W-SW 246 0 min 0,000 mm 0,0 UV-I 60 W/m 15,0 C 16,7 C 8,0 km/h (2 Bft) 98,21 %
26.06.2016 07:08 16,7 C 90 % 1015,6 hPa 0,0 l/m 7,2 km/h (2 Bft) W-SW 250 0 min 0,000 mm 0,0 UV-I 58 W/m 15,0 C 16,3 C 12,9 km/h (3 Bft) 100,00 %
26.06.2016 07:10 16,7 C 90 % 1015,6 hPa 0,0 l/m 5,8 km/h (2 Bft) W-SW 242 0 min 0,000 mm 0,0 UV-I 57 W/m 15,0 C 16,7 C 9,7 km/h (2 Bft) 98,21 %
26.06.2016 07:12 16,7 C 90 % 1015,7 hPa 0,0 l/m 5,6 km/h (1 Bft) W-SW 237 0 min 0,000 mm 0,0 UV-I 56 W/m 15,0 C 16,7 C 8,0 km/h (2 Bft) 100,00 %
26.06.2016 07:14 16,7 C 90 % 1015,7 hPa 0,0 l/m 6,6 km/h (2 Bft) W 262 0 min 0,000 mm 0,0 UV-I 58 W/m 15,0 C 16,6 C 12,9 km/h (3 Bft) 96,72 %
26.06.2016 07:16 16,7 C 90 % 1015,7 hPa 0,0 l/m 4,6 km/h (1 Bft) SW 225 0 min 0,000 mm 0,0 UV-I 59 W/m 15,0 C 16,7 C 8,0 km/h (2 Bft) 97,73 %
26.06.2016 07:18 16,7 C 90 % 1015,7 hPa 0,0 l/m 5,9 km/h (2 Bft) W 269 0 min 0,000 mm 0,0 UV-I 61 W/m 15,0 C 16,7 C 9,7 km/h (2 Bft) 98,00 %
26.06.2016 07:20 16,7 C 90 % 1015,7 hPa 0,0 l/m 6,9 km/h (2 Bft) W 268 0 min 0,000 mm 0,0 UV-I 62 W/m 15,0 C 16,4 C 11,3 km/h (2 Bft) 100,00 %
26.06.2016 07:22 16,7 C 90 % 1015,7 hPa 0,0 l/m 5,4 km/h (1 Bft) W-SW 256 0 min 0,000 mm 0,0 UV-I 62 W/m 15,0 C 16,7 C 9,7 km/h (2 Bft) 100,00 %
26.06.2016 07:24 16,7 C 90 % 1015,7 hPa 0,0 l/m 5,4 km/h (1 Bft) W-SW 256 0 min 0,000 mm 0,0 UV-I 63 W/m 15,0 C 16,7 C 9,7 km/h (2 Bft) 98,11 %
26.06.2016 07:26 16,7 C 90 % 1015,7 hPa 0,0 l/m 5,8 km/h (2 Bft) W-SW 254 0 min 0,000 mm 0,0 UV-I 65 W/m 15,0 C 16,7 C 11,3 km/h (2 Bft) 100,00 %
26.06.2016 07:28 16,7 C 91 % 1015,7 hPa 0,0 l/m 5,2 km/h (1 Bft) W 263 0 min 0,000 mm 0,0 UV-I 67 W/m 15,2 C 16,7 C 8,0 km/h (2 Bft) 100,00 %
26.06.2016 07:30 16,7 C 91 % 1015,7 hPa 0,0 l/m 4,2 km/h (1 Bft) SW 231 0 min 0,000 mm 0,0 UV-I 67 W/m 15,2 C 16,7 C 9,7 km/h (2 Bft) 100,00 %
26.06.2016 07:32 16,7 C 91 % 1015,7 hPa 0,0 l/m 8,2 km/h (2 Bft) W-SW 250 0 min 0,000 mm 0,0 UV-I 69 W/m 15,2 C 15,8 C 12,9 km/h (3 Bft) 98,11 %
26.06.2016 07:34 16,7 C 90 % 1015,7 hPa 0,0 l/m 8,9 km/h (2 Bft) W-SW 254 0 min 0,000 mm 0,0 UV-I 70 W/m 15,0 C 15,5 C 16,1 km/h (3 Bft) 100,00 %
26.06.2016 07:36 16,7 C 90 % 1015,7 hPa 0,0 l/m 7,6 km/h (2 Bft) W-SW 253 0 min 0,000 mm 0,0 UV-I 72 W/m 15,0 C 16,1 C 11,3 km/h (2 Bft) 100,00 %
26.06.2016 07:38 16,7 C 90 % 1015,7 hPa 0,0 l/m 4,6 km/h (1 Bft) W 267 0 min 0,000 mm 0,0 UV-I 76 W/m 15,0 C 16,7 C 6,4 km/h (2 Bft) 97,14 %
26.06.2016 07:40 16,7 C 91 % 1015,8 hPa 0,0 l/m 5,8 km/h (2 Bft) W 265 0 min 0,000 mm 0,0 UV-I 81 W/m 15,2 C 16,7 C 12,9 km/h (3 Bft) 100,00 %
26.06.2016 07:42 16,7 C 91 % 1015,8 hPa 0,0 l/m 5,2 km/h (1 Bft) W 264 0 min 0,000 mm 0,0 UV-I 84 W/m 15,2 C 16,7 C 11,3 km/h (2 Bft) 100,00 %
26.06.2016 07:44 16,7 C 90 % 1015,8 hPa 0,0 l/m 3,9 km/h (1 Bft) W 259 0 min 0,000 mm 0,0 UV-I 86 W/m 15,0 C 16,7 C 6,4 km/h (2 Bft) 100,00 %
26.06.2016 07:46 16,7 C 90 % 1015,9 hPa 0,0 l/m 3,5 km/h (1 Bft) W 260 0 min 0,000 mm 0,0 UV-I 86 W/m 15,0 C 16,7 C 6,4 km/h (2 Bft) 100,00 %
26.06.2016 07:48 16,7 C 90 % 1015,9 hPa 0,0 l/m 4,2 km/h (1 Bft) W 267 0 min 0,000 mm 0,0 UV-I 85 W/m 15,0 C 16,7 C 6,4 km/h (2 Bft) 100,00 %
26.06.2016 07:50 16,7 C 90 % 1015,9 hPa 0,0 l/m 4,8 km/h (1 Bft) W-SW 246 0 min 0,000 mm 0,0 UV-I 84 W/m 15,0 C 16,7 C 9,7 km/h (2 Bft) 100,00 %
26.06.2016 07:52 16,7 C 90 % 1015,9 hPa 0,0 l/m 5,0 km/h (1 Bft) W-NW 299 0 min 0,000 mm 0,0 UV-I 84 W/m 15,0 C 16,7 C 8,0 km/h (2 Bft) 100,00 %
26.06.2016 07:54 16,7 C 90 % 1015,9 hPa 0,0 l/m 3,4 km/h (1 Bft) W 267 0 min 0,000 mm 0,0 UV-I 87 W/m 15,0 C 16,7 C 6,4 km/h (2 Bft) 100,00 %
26.06.2016 07:56 16,7 C 90 % 1015,8 hPa 0,0 l/m 3,5 km/h (1 Bft) W 279 0 min 0,000 mm 0,0 UV-I 89 W/m 15,0 C 16,7 C 6,4 km/h (2 Bft) 100,00 %
26.06.2016 07:58 16,7 C 91 % 1015,8 hPa 0,0 l/m 4,2 km/h (1 Bft) W-SW 244 0 min 0,000 mm 0,0 UV-I 90 W/m 15,2 C 16,7 C 11,3 km/h (2 Bft) 100,00 %
26.06.2016 08:00 16,7 C 90 % 1015,9 hPa 0,0 l/m 4,6 km/h (1 Bft) W 279 0 min 0,051 mm 0,0 UV-I 90 W/m 15,0 C 16,7 C 9,7 km/h (2 Bft) 98,00 %
26.06.2016 08:02 16,8 C 90 % 1015,9 hPa 0,0 l/m 4,9 km/h (1 Bft) W-SW 257 0 min 0,000 mm 0,0 UV-I 90 W/m 15,1 C 16,8 C 11,3 km/h (2 Bft) 100,00 %
26.06.2016 08:04 16,7 C 90 % 1015,9 hPa 0,0 l/m 5,1 km/h (1 Bft) W 265 0 min 0,000 mm 0,0 UV-I 91 W/m 15,0 C 16,7 C 9,7 km/h (2 Bft) 100,00 %
26.06.2016 08:06 16,8 C 90 % 1015,9 hPa 0,0 l/m 4,6 km/h (1 Bft) W-NW 300 0 min 0,000 mm 0,0 UV-I 94 W/m 15,1 C 16,8 C 12,9 km/h (3 Bft) 98,00 %
26.06.2016 08:08 16,8 C 90 % 1016,0 hPa 0,0 l/m 4,3 km/h (1 Bft) W 275 0 min 0,000 mm 0,0 UV-I 95 W/m 15,1 C 16,8 C 6,4 km/h (2 Bft) 97,37 %
26.06.2016 08:10 16,8 C 90 % 1016,0 hPa 0,0 l/m 4,7 km/h (1 Bft) W-NW 296 0 min 0,000 mm 0,0 UV-I 97 W/m 15,1 C 16,8 C 9,7 km/h (2 Bft) 100,00 %
26.06.2016 08:12 16,8 C 90 % 1016,1 hPa 0,0 l/m 3,6 km/h (1 Bft) W 265 0 min 0,000 mm 0,1 UV-I 99 W/m 15,1 C 16,8 C 8,0 km/h (2 Bft) 100,00 %
26.06.2016 08:14 16,8 C 89 % 1016,1 hPa 0,0 l/m 3,1 km/h (1 Bft) W 268 0 min 0,000 mm 0,5 UV-I 102 W/m 15,0 C 16,8 C 6,4 km/h (2 Bft) 97,87 %
26.06.2016 08:16 16,8 C 89 % 1016,0 hPa 0,0 l/m 2,6 km/h (1 Bft) W-SW 238 0 min 0,000 mm 0,5 UV-I 108 W/m 15,0 C 16,8 C 4,8 km/h (1 Bft) 100,00 %
26.06.2016 08:18 16,8 C 89 % 1016,1 hPa 0,0 l/m 5,0 km/h (1 Bft) W 259 0 min 0,000 mm 0,5 UV-I 114 W/m 15,0 C 16,8 C 9,7 km/h (2 Bft) 100,00 %
26.06.2016 08:20 16,8 C 89 % 1016,0 hPa 0,0 l/m 4,0 km/h (1 Bft) W 269 0 min 0,000 mm 0,6 UV-I 120 W/m 15,0 C 16,8 C 8,0 km/h (2 Bft) 100,00 %
26.06.2016 08:22 16,8 C 89 % 1016,1 hPa 0,0 l/m 5,4 km/h (1 Bft) W-SW 248 0 min 0,000 mm 0,6 UV-I 124 W/m 15,0 C 16,8 C 9,7 km/h (2 Bft) 98,11 %
26.06.2016 08:24 16,9 C 89 % 1016,1 hPa 0,0 l/m 5,8 km/h (2 Bft) W 267 0 min 0,000 mm 0,6 UV-I 127 W/m 15,1 C 16,9 C 11,3 km/h (2 Bft) 98,00 %
26.06.2016 08:26 16,9 C 89 % 1016,0 hPa 0,0 l/m 5,1 km/h (1 Bft) W 276 0 min 0,000 mm 0,6 UV-I 131 W/m 15,1 C 16,9 C 11,3 km/h (2 Bft) 95,74 %
26.06.2016 08:28 16,9 C 89 % 1016,0 hPa 0,0 l/m 5,8 km/h (2 Bft) W-SW 242 0 min 0,000 mm 0,7 UV-I 135 W/m 15,1 C 16,9 C 8,0 km/h (2 Bft) 97,37 %
26.06.2016 08:30 16,9 C 89 % 1016,1 hPa 0,0 l/m 7,2 km/h (2 Bft) W-SW 255 0 min 0,000 mm 0,7 UV-I 137 W/m 15,1 C 16,5 C 12,9 km/h (3 Bft) 98,11 %
26.06.2016 08:32 16,9 C 89 % 1016,1 hPa 0,0 l/m 4,8 km/h (1 Bft) W-SW 250 0 min 0,000 mm 0,7 UV-I 139 W/m 15,1 C 16,9 C 9,7 km/h (2 Bft) 97,37 %
26.06.2016 08:34 16,9 C 89 % 1016,0 hPa 0,0 l/m 3,5 km/h (1 Bft) W-SW 257 0 min 0,000 mm 0,7 UV-I 139 W/m 15,1 C 16,9 C 9,7 km/h (2 Bft) 98,31 %
26.06.2016 08:36 16,9 C 88 % 1016,1 hPa 0,0 l/m 6,8 km/h (2 Bft) W-SW 257 0 min 0,000 mm 0,7 UV-I 141 W/m 14,9 C 16,7 C 12,9 km/h (3 Bft) 97,44 %
26.06.2016 08:38 17,0 C 89 % 1016,2 hPa 0,0 l/m 5,1 km/h (1 Bft) W-SW 250 0 min 0,000 mm 0,8 UV-I 145 W/m 15,2 C 17,0 C 6,4 km/h (2 Bft) 93,62 %
26.06.2016 08:40 17,0 C 89 % 1016,1 hPa 0,0 l/m 3,9 km/h (1 Bft) W-SW 245 0 min 0,000 mm 0,8 UV-I 152 W/m 15,2 C 17,0 C 6,4 km/h (2 Bft) 96,00 %
26.06.2016 08:42 17,0 C 89 % 1016,1 hPa 0,0 l/m 3,3 km/h (1 Bft) W 278 0 min 0,000 mm 0,9 UV-I 156 W/m 15,2 C 17,0 C 9,7 km/h (2 Bft) 96,00 %
26.06.2016 08:44 17,0 C 89 % 1016,1 hPa 0,0 l/m 4,5 km/h (1 Bft) W-SW 252 0 min 0,000 mm 0,9 UV-I 161 W/m 15,2 C 17,0 C 9,7 km/h (2 Bft) 97,14 %
26.06.2016 08:46 17,0 C 89 % 1016,1 hPa 0,0 l/m 1,7 km/h (1 Bft) W-SW 252 0 min 0,000 mm 0,9 UV-I 162 W/m 15,2 C 17,0 C 3,2 km/h (1 Bft) 98,00 %
26.06.2016 08:48 17,1 C 89 % 1016,1 hPa 0,0 l/m 1,0 km/h (0 Bft) W-SW 252 0 min 0,000 mm 1,0 UV-I 164 W/m 15,3 C 17,1 C 3,2 km/h (1 Bft) 98,00 %
26.06.2016 08:50 17,1 C 89 % 1016,1 hPa 0,0 l/m 3,5 km/h (1 Bft) W 273 0 min 0,000 mm 1,0 UV-I 169 W/m 15,3 C 17,1 C 9,7 km/h (2 Bft) 98,00 %
26.06.2016 08:52 17,1 C 90 % 1016,1 hPa 0,0 l/m 4,6 km/h (1 Bft) W 261 0 min 0,000 mm 1,0 UV-I 171 W/m 15,4 C 17,1 C 9,7 km/h (2 Bft) 97,56 %
26.06.2016 08:54 17,1 C 89 % 1016,2 hPa 0,0 l/m 4,5 km/h (1 Bft) W 261 0 min 0,000 mm 1,1 UV-I 170 W/m 15,3 C 17,1 C 9,7 km/h (2 Bft) 95,74 %
26.06.2016 08:56 17,1 C 89 % 1016,1 hPa 0,0 l/m 4,4 km/h (1 Bft) W 276 0 min 0,000 mm 1,2 UV-I 178 W/m 15,3 C 17,1 C 6,4 km/h (2 Bft) 100,00 %
26.06.2016 08:58 17,1 C 89 % 1016,1 hPa 0,0 l/m 4,6 km/h (1 Bft) W-SW 253 0 min 0,000 mm 1,2 UV-I 191 W/m 15,3 C 17,1 C 6,4 km/h (2 Bft) 96,23 %
26.06.2016 09:00 17,2 C 89 % 1016,2 hPa 0,0 l/m 3,4 km/h (1 Bft) W-SW 244 0 min 0,076 mm 1,3 UV-I 209 W/m 15,4 C 17,2 C 8,0 km/h (2 Bft) 100,00 %
26.06.2016 09:02 17,2 C 90 % 1016,1 hPa 0,0 l/m 2,7 km/h (1 Bft) W-SW 247 0 min 0,000 mm 1,4 UV-I 226 W/m 15,5 C 17,2 C 4,8 km/h (1 Bft) 98,00 %
26.06.2016 09:04 17,3 C 89 % 1016,1 hPa 0,0 l/m 3,6 km/h (1 Bft) W-NW 299 0 min 0,000 mm 1,4 UV-I 241 W/m 15,5 C 17,3 C 6,4 km/h (2 Bft) 97,73 %
26.06.2016 09:06 17,3 C 89 % 1016,1 hPa 0,0 l/m 4,0 km/h (1 Bft) W-SW 254 0 min 0,000 mm 1,5 UV-I 244 W/m 15,5 C 17,3 C 6,4 km/h (2 Bft) 100,00 %
26.06.2016 09:08 17,4 C 89 % 1016,2 hPa 0,0 l/m 4,3 km/h (1 Bft) W-SW 251 0 min 0,000 mm 1,5 UV-I 257 W/m 15,6 C 17,4 C 6,4 km/h (2 Bft) 100,00 %
26.06.2016 09:10 17,5 C 90 % 1016,2 hPa 0,0 l/m 3,6 km/h (1 Bft) W-SW 254 0 min 0,000 mm 1,8 UV-I 271 W/m 15,8 C 17,5 C 6,4 km/h (2 Bft) 100,00 %
26.06.2016 09:12 17,6 C 89 % 1016,2 hPa 0,0 l/m 2,5 km/h (1 Bft) W-SW 239 2 min 0,000 mm 2,1 UV-I 386 W/m 15,8 C 17,6 C 4,8 km/h (1 Bft) 100,00 %
26.06.2016 09:14 17,7 C 89 % 1016,1 hPa 0,0 l/m 5,2 km/h (1 Bft) W-SW 252 2 min 0,000 mm 2,0 UV-I 416 W/m 15,9 C 17,7 C 9,7 km/h (2 Bft) 100,00 %
26.06.2016 09:16 17,7 C 88 % 1016,1 hPa 0,0 l/m 6,5 km/h (2 Bft) W-SW 248 0 min 0,000 mm 2,0 UV-I 312 W/m 15,7 C 17,7 C 11,3 km/h (2 Bft) 100,00 %
26.06.2016 09:18 17,8 C 87 % 1016,1 hPa 0,0 l/m 4,9 km/h (1 Bft) W-SW 249 0 min 0,000 mm 2,0 UV-I 320 W/m 15,6 C 17,8 C 9,7 km/h (2 Bft) 100,00 %
26.06.2016 09:20 17,8 C 87 % 1016,1 hPa 0,0 l/m 3,3 km/h (1 Bft) W-NW 286 0 min 0,000 mm 1,9 UV-I 280 W/m 15,6 C 17,8 C 4,8 km/h (1 Bft) 97,87 %
26.06.2016 09:22 17,9 C 87 % 1016,1 hPa 0,0 l/m 3,5 km/h (1 Bft) W 280 0 min 0,000 mm 2,0 UV-I 289 W/m 15,7 C 17,9 C 6,4 km/h (2 Bft) 100,00 %
26.06.2016 09:24 18,0 C 87 % 1016,2 hPa 0,0 l/m 4,6 km/h (1 Bft) N-NW 329 2 min 0,000 mm 2,3 UV-I 384 W/m 15,8 C 18,0 C 9,7 km/h (2 Bft) 100,00 %
26.06.2016 09:26 18,0 C 85 % 1016,1 hPa 0,0 l/m 7,1 km/h (2 Bft) W-SW 257 0 min 0,000 mm 2,1 UV-I 345 W/m 15,4 C 17,7 C 12,9 km/h (3 Bft) 100,00 %
26.06.2016 09:28 18,1 C 85 % 1016,1 hPa 0,0 l/m 4,9 km/h (1 Bft) W 279 2 min 0,000 mm 2,2 UV-I 351 W/m 15,5 C 18,1 C 11,3 km/h (2 Bft) 100,00 %
26.06.2016 09:30 18,1 C 85 % 1016,1 hPa 0,0 l/m 2,3 km/h (1 Bft) SW 236 2 min 0,000 mm 2,8 UV-I 387 W/m 15,5 C 18,1 C 6,4 km/h (2 Bft) 100,00 %
26.06.2016 09:32 18,2 C 86 % 1016,1 hPa 0,0 l/m 3,3 km/h (1 Bft) NW 313 2 min 0,000 mm 2,6 UV-I 400 W/m 15,8 C 18,2 C 6,4 km/h (2 Bft) 98,00 %
26.06.2016 09:34 18,3 C 86 % 1016,0 hPa 0,0 l/m 4,2 km/h (1 Bft) N-NO 15 2 min 0,000 mm 2,1 UV-I 369 W/m 15,9 C 18,3 C 8,0 km/h (2 Bft) 100,00 %
26.06.2016 09:36 18,3 C 86 % 1016,0 hPa 0,0 l/m 2,3 km/h (1 Bft) NW 308 0 min 0,000 mm 1,8 UV-I 296 W/m 15,9 C 18,3 C 4,8 km/h (1 Bft) 100,00 %
26.06.2016 09:38 18,3 C 85 % 1016,0 hPa 0,0 l/m 2,9 km/h (1 Bft) NW 307 0 min 0,000 mm 1,5 UV-I 254 W/m 15,7 C 18,3 C 6,4 km/h (2 Bft) 100,00 %
26.06.2016 09:40 18,3 C 85 % 1016,0 hPa 0,0 l/m 3,2 km/h (1 Bft) NW 313 0 min 0,000 mm 1,6 UV-I 263 W/m 15,7 C 18,3 C 8,0 km/h (2 Bft) 100,00 %
26.06.2016 09:42 18,3 C 86 % 1016,0 hPa 0,0 l/m 4,7 km/h (1 Bft) N-NO 18 0 min 0,000 mm 1,9 UV-I 296 W/m 15,9 C 18,3 C 12,9 km/h (3 Bft) 98,11 %
26.06.2016 09:44 18,3 C 85 % 1015,9 hPa 0,0 l/m 2,7 km/h (1 Bft) NW 304 0 min 0,000 mm 2,1 UV-I 325 W/m 15,7 C 18,3 C 6,4 km/h (2 Bft) 100,00 %
26.06.2016 09:46 18,3 C 84 % 1016,0 hPa 0,0 l/m 2,7 km/h (1 Bft) W 279 0 min 0,000 mm 2,1 UV-I 327 W/m 15,5 C 18,3 C 6,4 km/h (2 Bft) 98,00 %
26.06.2016 09:48 18,3 C 85 % 1015,9 hPa 0,0 l/m 2,4 km/h (1 Bft) NO 42 0 min 0,000 mm 2,1 UV-I 325 W/m 15,7 C 18,3 C 6,4 km/h (2 Bft) 98,11 %
26.06.2016 09:50 18,3 C 84 % 1016,0 hPa 0,0 l/m 5,3 km/h (1 Bft) NW 325 0 min 0,000 mm 2,1 UV-I 315 W/m 15,5 C 18,3 C 11,3 km/h (2 Bft) 97,56 %
26.06.2016 09:52 18,3 C 84 % 1015,9 hPa 0,0 l/m 1,0 km/h (0 Bft) N-NW 327 0 min 0,000 mm 2,1 UV-I 313 W/m 15,5 C 18,3 C 4,8 km/h (1 Bft) 98,00 %
26.06.2016 09:54 18,4 C 85 % 1015,9 hPa 0,0 l/m 1,8 km/h (1 Bft) W-NW 302 0 min 0,000 mm 2,1 UV-I 316 W/m 15,8 C 18,4 C 12,9 km/h (3 Bft) 100,00 %
26.06.2016 09:56 18,4 C 83 % 1015,9 hPa 0,0 l/m 2,8 km/h (1 Bft) N-NW 335 0 min 0,000 mm 2,2 UV-I 318 W/m 15,5 C 18,4 C 6,4 km/h (2 Bft) 100,00 %
26.06.2016 09:58 18,4 C 84 % 1015,9 hPa 0,0 l/m 3,9 km/h (1 Bft) W-NW 300 0 min 0,000 mm 2,3 UV-I 323 W/m 15,6 C 18,4 C 9,7 km/h (2 Bft) 100,00 %
26.06.2016 10:00 18,4 C 84 % 1015,9 hPa 0,0 l/m 3,1 km/h (1 Bft) W 278 0 min 0,000 mm 2,3 UV-I 328 W/m 15,6 C 18,4 C 6,4 km/h (2 Bft) 100,00 %
26.06.2016 10:02 18,4 C 84 % 1016,0 hPa 0,0 l/m 2,5 km/h (1 Bft) SW 215 0 min 0,178 mm 2,3 UV-I 303 W/m 15,6 C 18,4 C 4,8 km/h (1 Bft) 100,00 %
26.06.2016 10:04 18,5 C 84 % 1016,0 hPa 0,0 l/m 1,2 km/h (1 Bft) S-SW 196 0 min 0,000 mm 2,2 UV-I 274 W/m 15,7 C 18,5 C 3,2 km/h (1 Bft) 100,00 %
26.06.2016 10:06 18,6 C 84 % 1016,0 hPa 0,0 l/m 2,4 km/h (1 Bft) W 267 0 min 0,000 mm 2,1 UV-I 239 W/m 15,8 C 18,6 C 6,4 km/h (2 Bft) 100,00 %
26.06.2016 10:08 18,6 C 83 % 1016,0 hPa 0,0 l/m 2,4 km/h (1 Bft) N 5 0 min 0,000 mm 2,2 UV-I 223 W/m 15,7 C 18,6 C 6,4 km/h (2 Bft) 100,00 %
26.06.2016 10:10 18,6 C 83 % 1016,0 hPa 0,0 l/m 3,9 km/h (1 Bft) W-SW 253 0 min 0,000 mm 2,4 UV-I 266 W/m 15,7 C 18,6 C 8,0 km/h (2 Bft) 100,00 %
26.06.2016 10:12 18,7 C 83 % 1016,1 hPa 0,0 l/m 3,3 km/h (1 Bft) NW 313 0 min 0,000 mm 3,1 UV-I 366 W/m 15,8 C 18,7 C 6,4 km/h (2 Bft) 100,00 %
26.06.2016 10:14 18,7 C 82 % 1016,1 hPa 0,0 l/m 4,8 km/h (1 Bft) W-NW 299 0 min 0,000 mm 3,4 UV-I 366 W/m 15,6 C 18,7 C 9,7 km/h (2 Bft) 100,00 %
26.06.2016 10:16 18,7 C 83 % 1016,0 hPa 0,0 l/m 7,9 km/h (2 Bft) NW 321 2 min 0,000 mm 3,4 UV-I 450 W/m 15,8 C 18,0 C 12,9 km/h (3 Bft) 100,00 %
26.06.2016 10:18 18,8 C 83 % 1016,1 hPa 0,0 l/m 2,1 km/h (1 Bft) N-NW 348 2 min 0,000 mm 3,7 UV-I 558 W/m 15,8 C 18,8 C 9,7 km/h (2 Bft) 96,23 %
26.06.2016 10:20 18,8 C 82 % 1016,1 hPa 0,0 l/m 7,4 km/h (2 Bft) SW 216 2 min 0,000 mm 3,4 UV-I 479 W/m 15,7 C 18,4 C 11,3 km/h (2 Bft) 96,23 %
26.06.2016 10:22 18,8 C 82 % 1016,1 hPa 0,0 l/m 5,9 km/h (2 Bft) W-NW 288 0 min 0,000 mm 3,2 UV-I 399 W/m 15,7 C 18,8 C 11,3 km/h (2 Bft) 97,87 %
26.06.2016 10:24 18,9 C 83 % 1016,1 hPa 0,0 l/m 2,4 km/h (1 Bft) O 97 2 min 0,000 mm 3,5 UV-I 449 W/m 15,9 C 18,9 C 6,4 km/h (2 Bft) 97,14 %
26.06.2016 10:26 19,1 C 82 % 1016,1 hPa 0,0 l/m 2,6 km/h (1 Bft) NW 319 2 min 0,000 mm 3,9 UV-I 546 W/m 16,0 C 19,1 C 4,8 km/h (1 Bft) 98,11 %
26.06.2016 10:28 19,2 C 83 % 1016,1 hPa 0,0 l/m 2,8 km/h (1 Bft) S 184 2 min 0,000 mm 4,8 UV-I 578 W/m 16,2 C 19,2 C 6,4 km/h (2 Bft) 97,56 %
26.06.2016 10:30 19,3 C 81 % 1016,1 hPa 0,0 l/m 5,7 km/h (1 Bft) W 269 2 min 0,000 mm 3,7 UV-I 549 W/m 16,0 C 19,3 C 9,7 km/h (2 Bft) 98,00 %
26.06.2016 10:32 19,3 C 79 % 1016,2 hPa 0,0 l/m 8,5 km/h (2 Bft) W 278 0 min 0,000 mm 3,0 UV-I 386 W/m 15,6 C 18,4 C 12,9 km/h (3 Bft) 98,11 %
26.06.2016 10:34 19,3 C 76 % 1016,1 hPa 0,0 l/m 5,3 km/h (1 Bft) W-SW 248 0 min 0,000 mm 2,8 UV-I 363 W/m 15,0 C 19,3 C 11,3 km/h (2 Bft) 97,44 %
26.06.2016 10:36 19,3 C 77 % 1016,2 hPa 0,0 l/m 3,6 km/h (1 Bft) SW 234 0 min 0,000 mm 2,5 UV-I 319 W/m 15,2 C 19,3 C 8,0 km/h (2 Bft) 98,08 %
26.06.2016 10:38 19,4 C 79 % 1016,2 hPa 0,0 l/m 3,1 km/h (1 Bft) W-NW 302 0 min 0,000 mm 2,4 UV-I 274 W/m 15,7 C 19,4 C 6,4 km/h (2 Bft) 95,83 %
26.06.2016 10:40 19,4 C 79 % 1016,2 hPa 0,0 l/m 5,1 km/h (1 Bft) N 355 0 min 0,000 mm 2,5 UV-I 264 W/m 15,7 C 19,4 C 12,9 km/h (3 Bft) 100,00 %
26.06.2016 10:42 19,3 C 78 % 1016,2 hPa 0,0 l/m 3,4 km/h (1 Bft) W-NW 292 0 min 0,000 mm 3,1 UV-I 318 W/m 15,4 C 19,3 C 9,7 km/h (2 Bft) 96,23 %
26.06.2016 10:44 19,3 C 78 % 1016,2 hPa 0,0 l/m 4,3 km/h (1 Bft) W 275 2 min 0,000 mm 4,2 UV-I 444 W/m 15,4 C 19,3 C 11,3 km/h (2 Bft) 97,73 %
26.06.2016 10:46 19,4 C 79 % 1016,2 hPa 0,0 l/m 3,9 km/h (1 Bft) W 277 2 min 0,000 mm 5,0 UV-I 674 W/m 15,7 C 19,4 C 8,0 km/h (2 Bft) 98,21 %
26.06.2016 10:48 19,4 C 78 % 1016,2 hPa 0,0 l/m 6,0 km/h (2 Bft) W-SW 241 2 min 0,000 mm 4,5 UV-I 705 W/m 15,5 C 19,4 C 11,3 km/h (2 Bft) 97,73 %
26.06.2016 10:50 19,4 C 78 % 1016,2 hPa 0,0 l/m 6,9 km/h (2 Bft) SW 223 2 min 0,000 mm 5,2 UV-I 798 W/m 15,5 C 19,2 C 16,1 km/h (3 Bft) 98,00 %
26.06.2016 10:52 19,6 C 78 % 1016,2 hPa 0,0 l/m 7,7 km/h (2 Bft) W-SW 250 2 min 0,000 mm 4,2 UV-I 718 W/m 15,7 C 19,1 C 12,9 km/h (3 Bft) 97,56 %
26.06.2016 10:54 19,7 C 79 % 1016,1 hPa 0,0 l/m 5,4 km/h (1 Bft) W 275 2 min 0,000 mm 4,9 UV-I 460 W/m 16,0 C 19,7 C 9,7 km/h (2 Bft) 100,00 %
26.06.2016 10:56 19,7 C 78 % 1016,1 hPa 0,0 l/m 2,2 km/h (1 Bft) W 280 2 min 0,000 mm 5,8 UV-I 625 W/m 15,8 C 19,7 C 6,4 km/h (2 Bft) 100,00 %
26.06.2016 10:58 19,9 C 80 % 1016,1 hPa 0,0 l/m 4,1 km/h (1 Bft) SW 232 2 min 0,000 mm 6,0 UV-I 940 W/m 16,3 C 19,9 C 8,0 km/h (2 Bft) 98,11 %
26.06.2016 11:00 20,1 C 76 % 1016,1 hPa 0,0 l/m 5,8 km/h (2 Bft) N-NW 329 2 min 0,000 mm 5,5 UV-I 980 W/m 15,7 C 20,1 C 11,3 km/h (2 Bft) 100,00 %
26.06.2016 11:02 20,1 C 76 % 1016,1 hPa 0,0 l/m 6,3 km/h (2 Bft) W-SW 242 2 min 0,305 mm 5,1 UV-I 988 W/m 15,7 C 20,1 C 11,3 km/h (2 Bft) 100,00 %
26.06.2016 11:04 20,2 C 77 % 1016,1 hPa 0,0 l/m 5,1 km/h (1 Bft) W-SW 246 2 min 0,000 mm 4,4 UV-I 932 W/m 16,0 C 20,2 C 9,7 km/h (2 Bft) 98,00 %
26.06.2016 11:06 20,3 C 76 % 1016,2 hPa 0,0 l/m 5,0 km/h (1 Bft) W-SW 257 0 min 0,000 mm 3,5 UV-I 385 W/m 15,9 C 20,3 C 8,0 km/h (2 Bft) 100,00 %
26.06.2016 11:08 20,3 C 75 % 1016,2 hPa 0,0 l/m 8,6 km/h (2 Bft) W 264 2 min 0,000 mm 3,4 UV-I 453 W/m 15,7 C 19,4 C 12,9 km/h (3 Bft) 100,00 %
26.06.2016 11:10 20,2 C 74 % 1016,2 hPa 0,0 l/m 6,9 km/h (2 Bft) W-SW 257 2 min 0,000 mm 3,3 UV-I 455 W/m 15,4 C 20,0 C 12,9 km/h (3 Bft) 100,00 %
26.06.2016 11:12 20,2 C 74 % 1016,2 hPa 0,0 l/m 3,4 km/h (1 Bft) W 277 0 min 0,000 mm 3,7 UV-I 434 W/m 15,4 C 20,2 C 6,4 km/h (2 Bft) 98,18 %
26.06.2016 11:14 20,1 C 76 % 1016,2 hPa 0,0 l/m 2,7 km/h (1 Bft) NW 309 0 min 0,000 mm 4,0 UV-I 435 W/m 15,7 C 20,1 C 4,8 km/h (1 Bft) 100,00 %
26.06.2016 11:16 20,1 C 75 % 1016,2 hPa 0,0 l/m 9,4 km/h (2 Bft) W-SW 251 2 min 0,000 mm 4,1 UV-I 518 W/m 15,5 C 19,0 C 16,1 km/h (3 Bft) 100,00 %
26.06.2016 11:18 20,0 C 75 % 1016,2 hPa 0,0 l/m 6,8 km/h (2 Bft) W-SW 254 2 min 0,000 mm 4,5 UV-I 467 W/m 15,4 C 19,8 C 12,9 km/h (3 Bft) 100,00 %
26.06.2016 11:20 20,0 C 74 % 1016,2 hPa 0,0 l/m 5,8 km/h (2 Bft) SW 233 2 min 0,000 mm 5,3 UV-I 549 W/m 15,2 C 20,0 C 12,9 km/h (3 Bft) 100,00 %
26.06.2016 11:22 20,0 C 75 % 1016,2 hPa 0,0 l/m 6,8 km/h (2 Bft) W 260 2 min 0,000 mm 5,8 UV-I 554 W/m 15,4 C 19,8 C 12,9 km/h (3 Bft) 100,00 %
26.06.2016 11:24 20,0 C 76 % 1016,2 hPa 0,0 l/m 3,9 km/h (1 Bft) W-SW 244 2 min 0,000 mm 6,3 UV-I 858 W/m 15,6 C 20,0 C 11,3 km/h (2 Bft) 100,00 %
26.06.2016 11:26 20,1 C 74 % 1016,2 hPa 0,0 l/m 7,6 km/h (2 Bft) W-SW 254 2 min 0,000 mm 6,4 UV-I 885 W/m 15,3 C 19,6 C 14,5 km/h (3 Bft) 100,00 %
26.06.2016 11:28 20,2 C 74 % 1016,2 hPa 0,0 l/m 6,6 km/h (2 Bft) W-SW 250 2 min 0,000 mm 6,6 UV-I 742 W/m 15,4 C 20,1 C 14,5 km/h (3 Bft) 96,23 %
26.06.2016 11:30 20,4 C 75 % 1016,1 hPa 0,0 l/m 7,0 km/h (2 Bft) S-SW 213 2 min 0,000 mm 6,1 UV-I 742 W/m 15,8 C 20,2 C 14,5 km/h (3 Bft) 97,56 %
26.06.2016 11:32 20,4 C 73 % 1016,1 hPa 0,0 l/m 7,6 km/h (2 Bft) W 263 0 min 0,000 mm 5,1 UV-I 394 W/m 15,4 C 19,9 C 14,5 km/h (3 Bft) 100,00 %
26.06.2016 11:34 20,4 C 72 % 1016,1 hPa 0,0 l/m 5,0 km/h (1 Bft) W 261 2 min 0,000 mm 6,3 UV-I 738 W/m 15,2 C 20,4 C 12,9 km/h (3 Bft) 97,73 %
26.06.2016 11:36 20,4 C 74 % 1016,1 hPa 0,0 l/m 5,0 km/h (1 Bft) W 273 2 min 0,000 mm 6,5 UV-I 872 W/m 15,6 C 20,4 C 11,3 km/h (2 Bft) 100,00 %
26.06.2016 11:38 20,4 C 72 % 1016,1 hPa 0,0 l/m 6,2 km/h (2 Bft) N 5 2 min 0,000 mm 6,7 UV-I 892 W/m 15,2 C 20,4 C 11,3 km/h (2 Bft) 100,00 %
26.06.2016 11:40 20,4 C 72 % 1016,1 hPa 0,0 l/m 6,0 km/h (2 Bft) N-NW 342 2 min 0,000 mm 6,6 UV-I 863 W/m 15,2 C 20,4 C 14,5 km/h (3 Bft) 100,00 %
26.06.2016 11:42 20,4 C 72 % 1016,1 hPa 0,0 l/m 7,7 km/h (2 Bft) W-NW 286 2 min 0,000 mm 5,1 UV-I 471 W/m 15,2 C 19,9 C 12,9 km/h (3 Bft) 100,00 %
26.06.2016 11:44 20,5 C 71 % 1016,1 hPa 0,0 l/m 2,4 km/h (1 Bft) NW 319 2 min 0,000 mm 6,7 UV-I 563 W/m 15,1 C 20,5 C 4,8 km/h (1 Bft) 100,00 %
26.06.2016 11:46 20,5 C 72 % 1016,0 hPa 0,0 l/m 2,6 km/h (1 Bft) W 281 2 min 0,000 mm 6,9 UV-I 890 W/m 15,3 C 20,5 C 4,8 km/h (1 Bft) 100,00 %
26.06.2016 11:48 20,7 C 75 % 1016,0 hPa 0,0 l/m 3,1 km/h (1 Bft) NW 314 2 min 0,000 mm 6,3 UV-I 926 W/m 16,1 C 20,7 C 6,4 km/h (2 Bft) 100,00 %
26.06.2016 11:50 20,7 C 72 % 1016,1 hPa 0,0 l/m 4,8 km/h (1 Bft) W-NW 300 2 min 0,000 mm 5,3 UV-I 937 W/m 15,5 C 20,7 C 14,5 km/h (3 Bft) 95,74 %
26.06.2016 11:52 20,8 C 71 % 1016,1 hPa 0,0 l/m 3,1 km/h (1 Bft) N 9 2 min 0,000 mm 6,0 UV-I 937 W/m 15,3 C 20,8 C 6,4 km/h (2 Bft) 100,00 %
26.06.2016 11:54 20,8 C 72 % 1016,1 hPa 0,0 l/m 2,3 km/h (1 Bft) NW 304 2 min 0,000 mm 6,4 UV-I 937 W/m 15,6 C 20,8 C 4,8 km/h (1 Bft) 100,00 %
26.06.2016 11:56 20,8 C 70 % 1016,1 hPa 0,0 l/m 4,0 km/h (1 Bft) W-NW 300 2 min 0,000 mm 6,2 UV-I 937 W/m 15,1 C 20,8 C 9,7 km/h (2 Bft) 97,56 %
26.06.2016 11:58 20,8 C 70 % 1016,1 hPa 0,0 l/m 3,8 km/h (1 Bft) W-SW 251 2 min 0,000 mm 6,1 UV-I 893 W/m 15,1 C 20,8 C 12,9 km/h (3 Bft) 96,23 %
26.06.2016 12:00 20,8 C 71 % 1016,1 hPa 0,0 l/m 2,6 km/h (1 Bft) W-NW 284 2 min 0,406 mm 6,3 UV-I 735 W/m 15,3 C 20,8 C 6,4 km/h (2 Bft) 100,00 %
26.06.2016 12:02 20,8 C 70 % 1016,2 hPa 0,0 l/m 6,3 km/h (2 Bft) W-SW 240 2 min 0,000 mm 7,1 UV-I 733 W/m 15,1 C 20,8 C 12,9 km/h (3 Bft) 97,37 %
26.06.2016 12:04 20,8 C 69 % 1016,2 hPa 0,0 l/m 8,5 km/h (2 Bft) W-SW 251 2 min 0,000 mm 6,1 UV-I 696 W/m 14,9 C 20,0 C 16,1 km/h (3 Bft) 97,87 %
26.06.2016 12:06 20,8 C 68 % 1016,2 hPa 0,0 l/m 5,3 km/h (1 Bft) W-NW 282 2 min 0,000 mm 5,7 UV-I 570 W/m 14,7 C 20,8 C 12,9 km/h (3 Bft) 97,87 %
26.06.2016 12:08 20,9 C 69 % 1016,2 hPa 0,0 l/m 2,9 km/h (1 Bft) NW 304 2 min 0,000 mm 6,0 UV-I 584 W/m 15,0 C 20,9 C 4,8 km/h (1 Bft) 100,00 %
26.06.2016 12:10 20,9 C 71 % 1016,1 hPa 0,0 l/m 2,5 km/h (1 Bft) NW 317 2 min 0,000 mm 5,9 UV-I 645 W/m 15,4 C 20,9 C 4,8 km/h (1 Bft) 100,00 %
26.06.2016 12:12 21,0 C 72 % 1016,2 hPa 0,0 l/m 2,4 km/h (1 Bft) W-NW 283 2 min 0,000 mm 6,2 UV-I 796 W/m 15,8 C 21,0 C 6,4 km/h (2 Bft) 100,00 %
26.06.2016 12:14 21,0 C 67 % 1016,2 hPa 0,0 l/m 6,1 km/h (2 Bft) N-NW 348 2 min 0,000 mm 6,1 UV-I 834 W/m 14,6 C 21,0 C 11,3 km/h (2 Bft) 100,00 %
26.06.2016 12:16 21,0 C 70 % 1016,1 hPa 0,0 l/m 4,5 km/h (1 Bft) W 273 2 min 0,000 mm 6,2 UV-I 590 W/m 15,3 C 21,0 C 11,3 km/h (2 Bft) 98,00 %
26.06.2016 12:18 21,1 C 70 % 1016,1 hPa 0,0 l/m 4,0 km/h (1 Bft) N-NW 340 2 min 0,000 mm 6,2 UV-I 699 W/m 15,4 C 21,1 C 8,0 km/h (2 Bft) 98,11 %
26.06.2016 12:20 21,1 C 71 % 1016,1 hPa 0,0 l/m 3,3 km/h (1 Bft) N-NO 23 2 min 0,000 mm 6,5 UV-I 689 W/m 15,6 C 21,1 C 8,0 km/h (2 Bft) 97,37 %
26.06.2016 12:22 21,1 C 72 % 1016,2 hPa 0,0 l/m 6,4 km/h (2 Bft) W-SW 245 2 min 0,000 mm 6,4 UV-I 677 W/m 15,8 C 21,1 C 11,3 km/h (2 Bft) 92,73 %
26.06.2016 12:24 21,2 C 68 % 1016,1 hPa 0,0 l/m 9,0 km/h (2 Bft) SW 233 2 min 0,000 mm 6,3 UV-I 671 W/m 15,1 C 20,3 C 16,1 km/h (3 Bft) 97,73 %
26.06.2016 12:26 21,2 C 70 % 1016,1 hPa 0,0 l/m 5,2 km/h (1 Bft) W 275 2 min 0,000 mm 6,7 UV-I 746 W/m 15,5 C 21,2 C 11,3 km/h (2 Bft) 98,00 %
26.06.2016 12:28 21,3 C 71 % 1016,1 hPa 0,0 l/m 6,1 km/h (2 Bft) N-NW 334 2 min 0,000 mm 6,5 UV-I 847 W/m 15,8 C 21,3 C 12,9 km/h (3 Bft) 97,56 %
26.06.2016 12:30 21,3 C 68 % 1016,1 hPa 0,0 l/m 4,3 km/h (1 Bft) W 275 2 min 0,000 mm 6,6 UV-I 819 W/m 15,1 C 21,3 C 9,7 km/h (2 Bft) 98,11 %
26.06.2016 12:32 21,3 C 68 % 1016,1 hPa 0,0 l/m 7,5 km/h (2 Bft) W-SW 238 2 min 0,000 mm 6,4 UV-I 817 W/m 15,1 C 20,9 C 12,9 km/h (3 Bft) 97,62 %
26.06.2016 12:34 21,5 C 71 % 1016,1 hPa 0,0 l/m 2,6 km/h (1 Bft) W-NW 296 2 min 0,000 mm 7,0 UV-I 878 W/m 16,0 C 21,5 C 6,4 km/h (2 Bft) 96,00 %
26.06.2016 12:36 21,6 C 72 % 1016,0 hPa 0,0 l/m 4,1 km/h (1 Bft) N 5 2 min 0,000 mm 7,5 UV-I 890 W/m 16,3 C 21,6 C 12,9 km/h (3 Bft) 95,12 %
26.06.2016 12:38 21,7 C 69 % 1016,0 hPa 0,0 l/m 5,1 km/h (1 Bft) N 355 2 min 0,000 mm 7,4 UV-I 942 W/m 15,8 C 21,7 C 14,5 km/h (3 Bft) 95,74 %
26.06.2016 12:40 21,7 C 69 % 1016,0 hPa 0,0 l/m 3,4 km/h (1 Bft) W-NW 290 2 min 0,000 mm 7,5 UV-I 1041 W/m 15,8 C 21,7 C 12,9 km/h (3 Bft) 96,00 %
26.06.2016 12:42 21,8 C 72 % 1016,1 hPa 0,0 l/m 3,1 km/h (1 Bft) NW 305 2 min 0,000 mm 7,5 UV-I 1120 W/m 16,5 C 21,8 C 8,0 km/h (2 Bft) 98,00 %
26.06.2016 12:44 21,9 C 69 % 1016,1 hPa 0,0 l/m 1,6 km/h (1 Bft) O-NO 59 2 min 0,000 mm 6,5 UV-I 825 W/m 15,9 C 21,9 C 3,2 km/h (1 Bft) 96,00 %
26.06.2016 12:46 22,1 C 71 % 1016,0 hPa 0,0 l/m 2,6 km/h (1 Bft) W-NW 302 2 min 0,000 mm 5,8 UV-I 648 W/m 16,6 C 22,1 C 4,8 km/h (1 Bft) 97,73 %
26.06.2016 12:48 22,2 C 68 % 1016,1 hPa 0,0 l/m 4,5 km/h (1 Bft) N 5 2 min 0,000 mm 5,9 UV-I 593 W/m 16,0 C 22,2 C 8,0 km/h (2 Bft) 100,00 %
26.06.2016 12:50 22,2 C 67 % 1016,0 hPa 0,0 l/m 3,5 km/h (1 Bft) W-NW 290 2 min 0,000 mm 7,1 UV-I 603 W/m 15,8 C 22,2 C 8,0 km/h (2 Bft) 100,00 %
26.06.2016 12:52 22,1 C 67 % 1016,1 hPa 0,0 l/m 4,8 km/h (1 Bft) W 260 2 min 0,000 mm 6,0 UV-I 668 W/m 15,7 C 22,1 C 9,7 km/h (2 Bft) 100,00 %
26.06.2016 12:54 22,1 C 65 % 1016,0 hPa 0,0 l/m 8,4 km/h (2 Bft) W 271 2 min 0,000 mm 5,5 UV-I 607 W/m 15,2 C 21,4 C 12,9 km/h (3 Bft) 100,00 %
26.06.2016 12:56 22,1 C 65 % 1016,0 hPa 0,0 l/m 5,1 km/h (1 Bft) W-SW 248 2 min 0,000 mm 5,5 UV-I 569 W/m 15,2 C 22,1 C 9,7 km/h (2 Bft) 97,37 %
26.06.2016 12:58 22,1 C 67 % 1016,0 hPa 0,0 l/m 2,9 km/h (1 Bft) W-NW 288 2 min 0,000 mm 5,1 UV-I 560 W/m 15,7 C 22,1 C 6,4 km/h (2 Bft) 100,00 %
26.06.2016 13:00 22,1 C 69 % 1016,1 hPa 0,0 l/m 4,1 km/h (1 Bft) N-NW 331 2 min 0,483 mm 5,0 UV-I 547 W/m 16,1 C 22,1 C 11,3 km/h (2 Bft) 100,00 %
26.06.2016 13:02 22,1 C 68 % 1016,1 hPa 0,0 l/m 4,1 km/h (1 Bft) NW 313 2 min 0,000 mm 5,0 UV-I 547 W/m 15,9 C 22,1 C 11,3 km/h (2 Bft) 100,00 %
26.06.2016 13:04 22,1 C 65 % 1016,0 hPa 0,0 l/m 5,0 km/h (1 Bft) W-SW 246 2 min 0,000 mm 5,1 UV-I 576 W/m 15,2 C 22,1 C 8,0 km/h (2 Bft) 100,00 %
26.06.2016 13:06 22,1 C 69 % 1016,0 hPa 0,0 l/m 4,6 km/h (1 Bft) N 5 2 min 0,000 mm 5,7 UV-I 636 W/m 16,1 C 22,1 C 12,9 km/h (3 Bft) 100,00 %
26.06.2016 13:08 21,9 C 64 % 1015,9 hPa 0,0 l/m 5,5 km/h (1 Bft) NW 307 2 min 0,000 mm 6,1 UV-I 683 W/m 14,8 C 21,9 C 14,5 km/h (3 Bft) 100,00 %
26.06.2016 13:10 21,9 C 68 % 1015,9 hPa 0,0 l/m 5,4 km/h (1 Bft) N 11 2 min 0,000 mm 7,6 UV-I 694 W/m 15,7 C 21,9 C 14,5 km/h (3 Bft) 98,00 %
26.06.2016 13:12 22,0 C 68 % 1015,9 hPa 0,0 l/m 2,4 km/h (1 Bft) W 273 2 min 0,000 mm 6,5 UV-I 678 W/m 15,8 C 22,0 C 6,4 km/h (2 Bft) 97,87 %
26.06.2016 13:14 22,1 C 67 % 1015,9 hPa 0,0 l/m 2,0 km/h (1 Bft) W 276 2 min 0,000 mm 6,0 UV-I 712 W/m 15,7 C 22,1 C 3,2 km/h (1 Bft) 94,87 %
26.06.2016 13:16 22,2 C 67 % 1015,8 hPa 0,0 l/m 4,4 km/h (1 Bft) NO 39 2 min 0,000 mm 5,8 UV-I 673 W/m 15,8 C 22,2 C 12,9 km/h (3 Bft) 100,00 %
26.06.2016 13:18 22,2 C 67 % 1015,8 hPa 0,0 l/m 5,0 km/h (1 Bft) N 11 2 min 0,000 mm 5,6 UV-I 594 W/m 15,8 C 22,2 C 16,1 km/h (3 Bft) 100,00 %
26.06.2016 13:20 22,2 C 64 % 1015,8 hPa 0,0 l/m 5,9 km/h (2 Bft) NW 325 2 min 0,000 mm 6,2 UV-I 668 W/m 15,1 C 22,2 C 16,1 km/h (3 Bft) 100,00 %
26.06.2016 13:22 22,0 C 63 % 1015,7 hPa 0,0 l/m 4,2 km/h (1 Bft) N 360 2 min 0,000 mm 5,2 UV-I 583 W/m 14,6 C 22,0 C 9,7 km/h (2 Bft) 100,00 %
26.06.2016 13:24 22,0 C 67 % 1015,7 hPa 0,0 l/m 3,1 km/h (1 Bft) NW 306 2 min 0,000 mm 5,0 UV-I 572 W/m 15,6 C 22,0 C 6,4 km/h (2 Bft) 98,11 %
26.06.2016 13:26 22,1 C 65 % 1015,8 hPa 0,0 l/m 3,2 km/h (1 Bft) NW 304 2 min 0,000 mm 4,8 UV-I 538 W/m 15,2 C 22,1 C 4,8 km/h (1 Bft) 100,00 %
26.06.2016 13:28 22,1 C 65 % 1015,8 hPa 0,0 l/m 5,5 km/h (1 Bft) NW 308 0 min 0,000 mm 4,3 UV-I 482 W/m 15,2 C 22,1 C 14,5 km/h (3 Bft) 100,00 %
26.06.2016 13:30 21,9 C 64 % 1015,8 hPa 0,0 l/m 4,3 km/h (1 Bft) N 360 2 min 0,000 mm 4,3 UV-I 501 W/m 14,8 C 21,9 C 11,3 km/h (2 Bft) 100,00 %
26.06.2016 13:32 21,9 C 66 % 1015,8 hPa 0,0 l/m 3,5 km/h (1 Bft) NW 308 2 min 0,000 mm 4,4 UV-I 519 W/m 15,3 C 21,9 C 8,0 km/h (2 Bft) 100,00 %
26.06.2016 13:34 21,9 C 69 % 1015,8 hPa 0,0 l/m 3,6 km/h (1 Bft) W-NW 303 0 min 0,000 mm 4,2 UV-I 469 W/m 15,9 C 21,9 C 8,0 km/h (2 Bft) 98,00 %
26.06.2016 13:36 21,8 C 66 % 1015,8 hPa 0,0 l/m 2,5 km/h (1 Bft) N-NW 344 2 min 0,000 mm 4,0 UV-I 499 W/m 15,2 C 21,8 C 6,4 km/h (2 Bft) 100,00 %
26.06.2016 13:38 21,8 C 67 % 1015,8 hPa 0,0 l/m 5,1 km/h (1 Bft) N-NW 336 0 min 0,000 mm 3,8 UV-I 459 W/m 15,4 C 21,8 C 11,3 km/h (2 Bft) 100,00 %
26.06.2016 13:40 21,8 C 65 % 1015,8 hPa 0,0 l/m 4,1 km/h (1 Bft) W-NW 298 0 min 0,000 mm 3,7 UV-I 415 W/m 14,9 C 21,8 C 8,0 km/h (2 Bft) 100,00 %
26.06.2016 13:42 21,7 C 65 % 1015,8 hPa 0,0 l/m 3,4 km/h (1 Bft) W-NW 296 0 min 0,000 mm 3,8 UV-I 432 W/m 14,8 C 21,7 C 9,7 km/h (2 Bft) 100,00 %
26.06.2016 13:44 21,7 C 66 % 1015,7 hPa 0,0 l/m 3,4 km/h (1 Bft) W 272 2 min 0,000 mm 4,5 UV-I 540 W/m 15,1 C 21,7 C 8,0 km/h (2 Bft) 100,00 %
26.06.2016 13:46 21,7 C 67 % 1015,7 hPa 0,0 l/m 3,5 km/h (1 Bft) N 5 2 min 0,000 mm 4,3 UV-I 523 W/m 15,3 C 21,7 C 8,0 km/h (2 Bft) 100,00 %
26.06.2016 13:48 21,7 C 68 % 1015,7 hPa 0,0 l/m 3,3 km/h (1 Bft) W-NW 301 2 min 0,000 mm 4,3 UV-I 499 W/m 15,5 C 21,7 C 6,4 km/h (2 Bft) 97,87 %
26.06.2016 13:50 21,7 C 66 % 1015,7 hPa 0,0 l/m 5,7 km/h (1 Bft) N-NW 338 2 min 0,000 mm 4,3 UV-I 488 W/m 15,1 C 21,7 C 9,7 km/h (2 Bft) 100,00 %
26.06.2016 13:52 21,6 C 64 % 1015,7 hPa 0,0 l/m 6,4 km/h (2 Bft) NW 325 2 min 0,000 mm 4,3 UV-I 512 W/m 14,5 C 21,6 C 12,9 km/h (3 Bft) 100,00 %
26.06.2016 13:54 21,5 C 66 % 1015,6 hPa 0,0 l/m 3,2 km/h (1 Bft) N-NO 20 2 min 0,000 mm 4,5 UV-I 523 W/m 14,9 C 21,5 C 12,9 km/h (3 Bft) 100,00 %
26.06.2016 13:56 21,5 C 66 % 1015,6 hPa 0,0 l/m 3,1 km/h (1 Bft) W-NW 292 2 min 0,000 mm 5,7 UV-I 571 W/m 14,9 C 21,5 C 4,8 km/h (1 Bft) 100,00 %
26.06.2016 13:58 21,6 C 67 % 1015,6 hPa 0,0 l/m 3,7 km/h (1 Bft) NW 322 2 min 0,000 mm 6,3 UV-I 668 W/m 15,2 C 21,6 C 6,4 km/h (2 Bft) 97,56 %
26.06.2016 14:00 21,6 C 67 % 1015,5 hPa 0,0 l/m 3,8 km/h (1 Bft) N 5 2 min 0,356 mm 5,8 UV-I 791 W/m 15,2 C 21,6 C 12,9 km/h (3 Bft) 100,00 %
26.06.2016 14:02 21,6 C 67 % 1015,5 hPa 0,0 l/m 4,0 km/h (1 Bft) W 281 2 min 0,000 mm 5,4 UV-I 662 W/m 15,2 C 21,6 C 11,3 km/h (2 Bft) 100,00 %
26.06.2016 14:04 21,7 C 67 % 1015,5 hPa 0,0 l/m 3,5 km/h (1 Bft) NW 321 2 min 0,000 mm 4,9 UV-I 609 W/m 15,3 C 21,7 C 8,0 km/h (2 Bft) 100,00 %
26.06.2016 14:06 21,7 C 69 % 1015,4 hPa 0,0 l/m 2,1 km/h (1 Bft) N-NW 339 2 min 0,000 mm 4,9 UV-I 547 W/m 15,8 C 21,7 C 4,8 km/h (1 Bft) 97,73 %
26.06.2016 14:08 21,8 C 68 % 1015,4 hPa 0,0 l/m 4,5 km/h (1 Bft) NW 311 2 min 0,000 mm 4,5 UV-I 512 W/m 15,6 C 21,8 C 11,3 km/h (2 Bft) 98,11 %
26.06.2016 14:10 21,8 C 65 % 1015,3 hPa 0,0 l/m 4,1 km/h (1 Bft) W-NW 298 2 min 0,000 mm 4,9 UV-I 582 W/m 14,9 C 21,8 C 6,4 km/h (2 Bft) 97,37 %
26.06.2016 14:12 21,8 C 67 % 1015,3 hPa 0,0 l/m 2,7 km/h (1 Bft) N 9 2 min 0,000 mm 4,7 UV-I 555 W/m 15,4 C 21,8 C 3,2 km/h (1 Bft) 98,11 %
26.06.2016 14:14 21,7 C 67 % 1015,3 hPa 0,0 l/m 2,9 km/h (1 Bft) W 275 0 min 0,000 mm 4,0 UV-I 432 W/m 15,3 C 21,7 C 6,4 km/h (2 Bft) 97,37 %
26.06.2016 14:16 21,7 C 67 % 1015,4 hPa 0,0 l/m 4,7 km/h (1 Bft) N-NW 327 0 min 0,000 mm 3,8 UV-I 393 W/m 15,3 C 21,7 C 11,3 km/h (2 Bft) 96,43 %
26.06.2016 14:18 21,7 C 68 % 1015,4 hPa 0,0 l/m 3,0 km/h (1 Bft) NW 325 0 min 0,000 mm 3,7 UV-I 392 W/m 15,5 C 21,7 C 6,4 km/h (2 Bft) 93,33 %
26.06.2016 14:20 21,7 C 65 % 1015,4 hPa 0,0 l/m 2,6 km/h (1 Bft) NW 323 0 min 0,000 mm 3,5 UV-I 389 W/m 14,8 C 21,7 C 4,8 km/h (1 Bft) 98,51 %
26.06.2016 14:22 21,7 C 64 % 1015,4 hPa 0,0 l/m 4,8 km/h (1 Bft) W-NW 288 0 min 0,000 mm 3,2 UV-I 362 W/m 14,6 C 21,7 C 8,0 km/h (2 Bft) 96,61 %
26.06.2016 14:24 21,7 C 66 % 1015,4 hPa 0,0 l/m 3,3 km/h (1 Bft) S-SW 202 0 min 0,000 mm 3,0 UV-I 334 W/m 15,1 C 21,7 C 6,4 km/h (2 Bft) 100,00 %
26.06.2016 14:26 21,7 C 67 % 1015,4 hPa 0,0 l/m 3,5 km/h (1 Bft) W 272 0 min 0,000 mm 2,8 UV-I 325 W/m 15,3 C 21,7 C 9,7 km/h (2 Bft) 96,23 %
26.06.2016 14:28 21,7 C 68 % 1015,4 hPa 0,0 l/m 1,8 km/h (1 Bft) SW 215 0 min 0,000 mm 2,7 UV-I 321 W/m 15,5 C 21,7 C 4,8 km/h (1 Bft) 97,62 %
26.06.2016 14:30 21,7 C 67 % 1015,4 hPa 0,0 l/m 2,9 km/h (1 Bft) S-SW 198 0 min 0,000 mm 2,7 UV-I 328 W/m 15,3 C 21,7 C 6,4 km/h (2 Bft) 97,96 %
26.06.2016 14:32 21,6 C 67 % 1015,4 hPa 0,0 l/m 4,0 km/h (1 Bft) N-NO 15 0 min 0,000 mm 2,8 UV-I 340 W/m 15,2 C 21,6 C 12,9 km/h (3 Bft) 98,00 %
26.06.2016 14:34 21,5 C 66 % 1015,4 hPa 0,0 l/m 3,5 km/h (1 Bft) N-NW 333 0 min 0,000 mm 2,9 UV-I 360 W/m 14,9 C 21,5 C 8,0 km/h (2 Bft) 97,62 %
26.06.2016 14:36 21,4 C 69 % 1015,4 hPa 0,0 l/m 2,7 km/h (1 Bft) N 11 0 min 0,000 mm 3,1 UV-I 385 W/m 15,5 C 21,4 C 4,8 km/h (1 Bft) 98,11 %
26.06.2016 14:38 21,4 C 67 % 1015,3 hPa 0,0 l/m 4,6 km/h (1 Bft) W-NW 288 0 min 0,000 mm 3,1 UV-I 375 W/m 15,0 C 21,4 C 16,1 km/h (3 Bft) 97,37 %
26.06.2016 14:40 21,4 C 66 % 1015,4 hPa 0,0 l/m 3,3 km/h (1 Bft) NW 324 0 min 0,000 mm 3,0 UV-I 366 W/m 14,8 C 21,4 C 4,8 km/h (1 Bft) 94,00 %
26.06.2016 14:42 21,4 C 68 % 1015,3 hPa 0,0 l/m 1,0 km/h (0 Bft) N-NW 344 0 min 0,000 mm 2,9 UV-I 353 W/m 15,2 C 21,4 C 3,2 km/h (1 Bft) 96,00 %
26.06.2016 14:44 21,3 C 70 % 1015,3 hPa 0,0 l/m 2,0 km/h (1 Bft) N 11 0 min 0,000 mm 2,9 UV-I 359 W/m 15,6 C 21,3 C 4,8 km/h (1 Bft) 100,00 %
26.06.2016 14:46 21,3 C 71 % 1015,3 hPa 0,0 l/m 2,5 km/h (1 Bft) N 11 0 min 0,000 mm 3,0 UV-I 364 W/m 15,8 C 21,3 C 4,8 km/h (1 Bft) 100,00 %
26.06.2016 14:48 21,3 C 69 % 1015,3 hPa 0,0 l/m 3,1 km/h (1 Bft) N 355 0 min 0,000 mm 2,9 UV-I 354 W/m 15,4 C 21,3 C 8,0 km/h (2 Bft) 100,00 %
26.06.2016 14:50 21,3 C 68 % 1015,3 hPa 0,0 l/m 3,2 km/h (1 Bft) N-NW 334 0 min 0,000 mm 2,8 UV-I 344 W/m 15,1 C 21,3 C 6,4 km/h (2 Bft) 100,00 %
26.06.2016 14:52 21,3 C 68 % 1015,3 hPa 0,0 l/m 2,0 km/h (1 Bft) NW 320 0 min 0,000 mm 2,7 UV-I 326 W/m 15,1 C 21,3 C 6,4 km/h (2 Bft) 97,56 %
26.06.2016 14:54 21,3 C 69 % 1015,3 hPa 0,0 l/m 2,0 km/h (1 Bft) W 263 0 min 0,000 mm 2,6 UV-I 316 W/m 15,4 C 21,3 C 6,4 km/h (2 Bft) 100,00 %
26.06.2016 14:56 21,3 C 68 % 1015,3 hPa 0,0 l/m 3,4 km/h (1 Bft) W 271 0 min 0,000 mm 2,6 UV-I 327 W/m 15,1 C 21,3 C 6,4 km/h (2 Bft) 98,00 %
26.06.2016 14:58 21,3 C 68 % 1015,3 hPa 0,0 l/m 3,3 km/h (1 Bft) NW 312 0 min 0,000 mm 2,7 UV-I 340 W/m 15,1 C 21,3 C 8,0 km/h (2 Bft) 100,00 %
26.06.2016 15:00 21,4 C 67 % 1015,2 hPa 0,0 l/m 2,3 km/h (1 Bft) W-NW 296 0 min 0,254 mm 2,8 UV-I 342 W/m 15,0 C 21,4 C 4,8 km/h (1 Bft) 100,00 %
26.06.2016 15:02 21,5 C 68 % 1015,3 hPa 0,0 l/m 2,1 km/h (1 Bft) W-NW 292 0 min 0,000 mm 2,7 UV-I 330 W/m 15,3 C 21,5 C 4,8 km/h (1 Bft) 100,00 %
26.06.2016 15:04 21,5 C 69 % 1015,3 hPa 0,0 l/m 2,5 km/h (1 Bft) N-NW 329 0 min 0,000 mm 2,6 UV-I 326 W/m 15,6 C 21,5 C 8,0 km/h (2 Bft) 100,00 %
26.06.2016 15:06 21,6 C 68 % 1015,3 hPa 0,0 l/m 1,4 km/h (1 Bft) N 351 0 min 0,000 mm 2,6 UV-I 332 W/m 15,4 C 21,6 C 3,2 km/h (1 Bft) 97,73 %
26.06.2016 15:08 21,6 C 70 % 1015,3 hPa 0,0 l/m 0,8 km/h (0 Bft) N 355 0 min 0,000 mm 2,7 UV-I 344 W/m 15,9 C 21,6 C 3,2 km/h (1 Bft) 100,00 %
26.06.2016 15:10 21,6 C 69 % 1015,3 hPa 0,0 l/m 1,7 km/h (1 Bft) N-NW 329 0 min 0,000 mm 2,7 UV-I 352 W/m 15,7 C 21,6 C 4,8 km/h (1 Bft) 100,00 %
26.06.2016 15:12 21,6 C 67 % 1015,3 hPa 0,0 l/m 2,9 km/h (1 Bft) N-NW 329 0 min 0,000 mm 2,7 UV-I 352 W/m 15,2 C 21,6 C 6,4 km/h (2 Bft) 100,00 %
26.06.2016 15:14 21,6 C 69 % 1015,3 hPa 0,0 l/m 2,7 km/h (1 Bft) N-NW 329 0 min 0,000 mm 2,8 UV-I 351 W/m 15,7 C 21,6 C 4,8 km/h (1 Bft) 100,00 %
26.06.2016 15:16 21,6 C 67 % 1015,2 hPa 0,0 l/m 1,2 km/h (1 Bft) N-NW 336 0 min 0,000 mm 2,8 UV-I 359 W/m 15,2 C 21,6 C 3,2 km/h (1 Bft) 98,00 %
26.06.2016 15:18 21,6 C 67 % 1015,2 hPa 0,0 l/m 2,0 km/h (1 Bft) W-SW 246 0 min 0,000 mm 3,2 UV-I 367 W/m 15,2 C 21,6 C 4,8 km/h (1 Bft) 100,00 %
26.06.2016 15:20 21,7 C 69 % 1015,2 hPa 0,0 l/m 2,6 km/h (1 Bft) W-NW 290 0 min 0,000 mm 2,9 UV-I 371 W/m 15,8 C 21,7 C 4,8 km/h (1 Bft) 100,00 %
26.06.2016 15:22 21,7 C 66 % 1015,2 hPa 0,0 l/m 3,0 km/h (1 Bft) NW 305 0 min 0,000 mm 3,0 UV-I 398 W/m 15,1 C 21,7 C 4,8 km/h (1 Bft) 98,11 %
26.06.2016 15:24 21,8 C 68 % 1015,2 hPa 0,0 l/m 1,7 km/h (1 Bft) NW 308 0 min 0,000 mm 3,1 UV-I 428 W/m 15,6 C 21,8 C 3,2 km/h (1 Bft) 100,00 %
26.06.2016 15:26 21,8 C 67 % 1015,1 hPa 0,0 l/m 1,7 km/h (1 Bft) NW 308 0 min 0,000 mm 3,5 UV-I 399 W/m 15,4 C 21,8 C 3,2 km/h (1 Bft) 100,00 %
26.06.2016 15:28 21,9 C 66 % 1015,0 hPa 0,0 l/m 2,5 km/h (1 Bft) W 277 2 min 0,000 mm 4,2 UV-I 747 W/m 15,3 C 21,9 C 4,8 km/h (1 Bft) 100,00 %
26.06.2016 15:30 22,1 C 67 % 1015,0 hPa 0,0 l/m 2,1 km/h (1 Bft) N-NW 329 2 min 0,000 mm 4,3 UV-I 599 W/m 15,7 C 22,1 C 4,8 km/h (1 Bft) 100,00 %
26.06.2016 15:32 22,2 C 66 % 1015,0 hPa 0,0 l/m 3,1 km/h (1 Bft) W 265 2 min 0,000 mm 3,6 UV-I 568 W/m 15,5 C 22,2 C 4,8 km/h (1 Bft) 100,00 %
26.06.2016 15:34 22,3 C 65 % 1014,9 hPa 0,0 l/m 1,2 km/h (1 Bft) N-NW 336 0 min 0,000 mm 3,3 UV-I 410 W/m 15,4 C 22,3 C 4,8 km/h (1 Bft) 100,00 %
26.06.2016 15:36 22,3 C 65 % 1014,9 hPa 0,0 l/m 3,6 km/h (1 Bft) W-NW 300 0 min 0,000 mm 3,2 UV-I 386 W/m 15,4 C 22,3 C 8,0 km/h (2 Bft) 100,00 %
26.06.2016 15:38 22,3 C 68 % 1014,8 hPa 0,0 l/m 1,8 km/h (1 Bft) NW 319 0 min 0,000 mm 3,2 UV-I 384 W/m 16,1 C 22,3 C 4,8 km/h (1 Bft) 97,73 %
26.06.2016 15:40 22,3 C 68 % 1014,7 hPa 0,0 l/m 1,4 km/h (1 Bft) N 360 0 min 0,000 mm 3,2 UV-I 411 W/m 16,1 C 22,3 C 3,2 km/h (1 Bft) 97,87 %
26.06.2016 15:42 22,3 C 68 % 1014,8 hPa 0,0 l/m 2,1 km/h (1 Bft) N-NW 340 0 min 0,000 mm 3,3 UV-I 409 W/m 16,1 C 22,3 C 6,4 km/h (2 Bft) 100,00 %
26.06.2016 15:44 22,2 C 67 % 1014,8 hPa 0,0 l/m 2,2 km/h (1 Bft) N-NW 333 2 min 0,000 mm 3,4 UV-I 425 W/m 15,8 C 22,2 C 6,4 km/h (2 Bft) 100,00 %
26.06.2016 15:46 22,2 C 66 % 1014,7 hPa 0,0 l/m 2,2 km/h (1 Bft) N-NO 20 2 min 0,000 mm 3,4 UV-I 452 W/m 15,5 C 22,2 C 4,8 km/h (1 Bft) 100,00 %
26.06.2016 15:48 22,2 C 66 % 1014,8 hPa 0,0 l/m 1,5 km/h (1 Bft) N 5 2 min 0,000 mm 3,6 UV-I 493 W/m 15,5 C 22,2 C 3,2 km/h (1 Bft) 98,33 %
26.06.2016 15:50 22,2 C 67 % 1014,8 hPa 0,0 l/m 1,9 km/h (1 Bft) W-NW 291 2 min 0,000 mm 3,8 UV-I 499 W/m 15,8 C 22,2 C 6,4 km/h (2 Bft) 100,00 %
26.06.2016 15:52 22,3 C 65 % 1014,8 hPa 0,0 l/m 4,7 km/h (1 Bft) W-NW 291 2 min 0,000 mm 3,4 UV-I 470 W/m 15,4 C 22,3 C 9,7 km/h (2 Bft) 100,00 %
26.06.2016 15:54 22,3 C 66 % 1014,8 hPa 0,0 l/m 3,1 km/h (1 Bft) W-NW 294 2 min 0,000 mm 3,2 UV-I 440 W/m 15,6 C 22,3 C 4,8 km/h (1 Bft) 100,00 %
26.06.2016 15:56 22,4 C 67 % 1014,8 hPa 0,0 l/m 3,5 km/h (1 Bft) N-NW 333 2 min 0,000 mm 3,3 UV-I 473 W/m 16,0 C 22,4 C 8,0 km/h (2 Bft) 98,11 %
26.06.2016 15:58 22,4 C 66 % 1014,8 hPa 0,0 l/m 2,8 km/h (1 Bft) SW 232 2 min 0,000 mm 3,4 UV-I 496 W/m 15,7 C 22,4 C 9,7 km/h (2 Bft) 100,00 %
26.06.2016 16:00 22,5 C 64 % 1014,8 hPa 0,0 l/m 5,2 km/h (1 Bft) SW 229 2 min 0,279 mm 3,4 UV-I 482 W/m 15,3 C 22,5 C 8,0 km/h (2 Bft) 100,00 %
26.06.2016 16:02 22,5 C 63 % 1014,7 hPa 0,0 l/m 3,1 km/h (1 Bft) W 267 2 min 0,000 mm 3,0 UV-I 417 W/m 15,1 C 22,5 C 9,7 km/h (2 Bft) 97,87 %
26.06.2016 16:04 22,6 C 65 % 1014,7 hPa 0,0 l/m 1,3 km/h (1 Bft) W 274 0 min 0,000 mm 2,5 UV-I 315 W/m 15,7 C 22,6 C 3,2 km/h (1 Bft) 100,00 %
26.06.2016 16:06 22,5 C 63 % 1014,7 hPa 0,0 l/m 5,6 km/h (1 Bft) W-SW 237 0 min 0,000 mm 2,3 UV-I 270 W/m 15,1 C 22,5 C 11,3 km/h (2 Bft) 97,50 %
26.06.2016 16:08 22,5 C 66 % 1014,7 hPa 0,0 l/m 1,6 km/h (1 Bft) N-NW 332 0 min 0,000 mm 2,2 UV-I 267 W/m 15,8 C 22,5 C 4,8 km/h (1 Bft) 98,00 %
26.06.2016 16:10 22,5 C 64 % 1014,7 hPa 0,0 l/m 1,9 km/h (1 Bft) W-NW 292 0 min 0,000 mm 2,2 UV-I 287 W/m 15,3 C 22,5 C 3,2 km/h (1 Bft) 98,00 %
26.06.2016 16:12 22,4 C 63 % 1014,6 hPa 0,0 l/m 1,7 km/h (1 Bft) W-NW 291 0 min 0,000 mm 2,3 UV-I 308 W/m 15,0 C 22,4 C 3,2 km/h (1 Bft) 97,37 %
26.06.2016 16:14 22,4 C 64 % 1014,6 hPa 0,0 l/m 2,2 km/h (1 Bft) N-NW 343 0 min 0,000 mm 2,4 UV-I 320 W/m 15,2 C 22,4 C 4,8 km/h (1 Bft) 98,11 %
26.06.2016 16:16 22,4 C 65 % 1014,5 hPa 0,0 l/m 1,4 km/h (1 Bft) W-NW 284 0 min 0,000 mm 2,4 UV-I 315 W/m 15,5 C 22,4 C 3,2 km/h (1 Bft) 93,62 %
26.06.2016 16:18 22,4 C 64 % 1014,5 hPa 0,0 l/m 3,9 km/h (1 Bft) W 262 0 min 0,000 mm 2,3 UV-I 293 W/m 15,2 C 22,4 C 9,7 km/h (2 Bft) 97,37 %
26.06.2016 16:20 22,4 C 62 % 1014,5 hPa 0,0 l/m 4,7 km/h (1 Bft) W-SW 249 0 min 0,000 mm 2,1 UV-I 276 W/m 14,8 C 22,4 C 6,4 km/h (2 Bft) 96,23 %
26.06.2016 16:22 22,4 C 62 % 1014,5 hPa 0,0 l/m 6,7 km/h (2 Bft) SW 223 0 min 0,000 mm 2,1 UV-I 283 W/m 14,8 C 22,3 C 9,7 km/h (2 Bft) 97,73 %
26.06.2016 16:24 22,3 C 62 % 1014,4 hPa 0,0 l/m 4,5 km/h (1 Bft) W-SW 243 0 min 0,000 mm 2,2 UV-I 310 W/m 14,7 C 22,3 C 6,4 km/h (2 Bft) 97,62 %
26.06.2016 16:26 22,3 C 63 % 1014,4 hPa 0,0 l/m 6,3 km/h (2 Bft) S-SW 205 0 min 0,000 mm 2,3 UV-I 334 W/m 14,9 C 22,3 C 12,9 km/h (3 Bft) 94,55 %
26.06.2016 16:28 22,3 C 63 % 1014,4 hPa 0,0 l/m 6,5 km/h (2 Bft) SW 236 0 min 0,000 mm 2,3 UV-I 348 W/m 14,9 C 22,3 C 11,3 km/h (2 Bft) 97,87 %
26.06.2016 16:30 22,3 C 63 % 1014,4 hPa 0,0 l/m 5,1 km/h (1 Bft) W-SW 237 0 min 0,000 mm 2,3 UV-I 350 W/m 14,9 C 22,3 C 9,7 km/h (2 Bft) 98,00 %
26.06.2016 16:32 22,3 C 66 % 1014,4 hPa 0,0 l/m 3,7 km/h (1 Bft) W-SW 254 2 min 0,000 mm 2,3 UV-I 378 W/m 15,6 C 22,3 C 6,4 km/h (2 Bft) 97,56 %
26.06.2016 16:34 22,3 C 64 % 1014,4 hPa 0,0 l/m 3,2 km/h (1 Bft) W 271 2 min 0,000 mm 2,4 UV-I 380 W/m 15,2 C 22,3 C 6,4 km/h (2 Bft) 97,87 %
26.06.2016 16:36 22,4 C 65 % 1014,4 hPa 0,0 l/m 2,5 km/h (1 Bft) N-NW 333 2 min 0,000 mm 2,4 UV-I 406 W/m 15,5 C 22,4 C 4,8 km/h (1 Bft) 98,11 %
26.06.2016 16:38 22,4 C 64 % 1014,4 hPa 0,0 l/m 6,1 km/h (2 Bft) S-SW 210 2 min 0,000 mm 2,5 UV-I 419 W/m 15,2 C 22,4 C 12,9 km/h (3 Bft) 94,74 %
26.06.2016 16:40 22,4 C 63 % 1014,4 hPa 0,0 l/m 8,5 km/h (2 Bft) W 270 2 min 0,000 mm 2,2 UV-I 371 W/m 15,0 C 21,7 C 12,9 km/h (3 Bft) 98,11 %
26.06.2016 16:42 22,4 C 64 % 1014,4 hPa 0,0 l/m 4,2 km/h (1 Bft) N 355 2 min 0,000 mm 2,4 UV-I 389 W/m 15,2 C 22,4 C 6,4 km/h (2 Bft) 100,00 %
26.06.2016 16:44 22,4 C 66 % 1014,3 hPa 0,0 l/m 2,6 km/h (1 Bft) W 277 0 min 0,000 mm 2,3 UV-I 348 W/m 15,7 C 22,4 C 4,8 km/h (1 Bft) 93,62 %
26.06.2016 16:46 22,4 C 65 % 1014,3 hPa 0,0 l/m 2,8 km/h (1 Bft) W-SW 257 0 min 0,000 mm 2,1 UV-I 324 W/m 15,5 C 22,4 C 4,8 km/h (1 Bft) 100,00 %
26.06.2016 16:48 22,4 C 65 % 1014,3 hPa 0,0 l/m 2,3 km/h (1 Bft) S-SW 209 0 min 0,000 mm 1,9 UV-I 301 W/m 15,5 C 22,4 C 3,2 km/h (1 Bft) 97,56 %
26.06.2016 16:50 22,4 C 64 % 1014,3 hPa 0,0 l/m 8,3 km/h (2 Bft) SW 228 0 min 0,000 mm 1,9 UV-I 306 W/m 15,2 C 21,8 C 14,5 km/h (3 Bft) 100,00 %
26.06.2016 16:52 22,4 C 64 % 1014,3 hPa 0,0 l/m 4,9 km/h (1 Bft) W 281 0 min 0,000 mm 1,9 UV-I 312 W/m 15,2 C 22,4 C 9,7 km/h (2 Bft) 100,00 %
26.06.2016 16:54 22,3 C 66 % 1014,3 hPa 0,0 l/m 4,9 km/h (1 Bft) SW 219 0 min 0,000 mm 1,8 UV-I 297 W/m 15,6 C 22,3 C 8,0 km/h (2 Bft) 94,29 %
26.06.2016 16:56 22,3 C 65 % 1014,4 hPa 0,0 l/m 9,1 km/h (2 Bft) W-SW 243 0 min 0,000 mm 1,7 UV-I 267 W/m 15,4 C 21,4 C 14,5 km/h (3 Bft) 100,00 %
26.06.2016 16:58 22,3 C 65 % 1014,3 hPa 0,0 l/m 10,1 km/h (2 Bft) W-SW 245 0 min 0,000 mm 1,6 UV-I 248 W/m 15,4 C 21,2 C 16,1 km/h (3 Bft) 100,00 %
26.06.2016 17:00 22,2 C 66 % 1014,3 hPa 0,0 l/m 8,5 km/h (2 Bft) S 188 0 min 0,000 mm 1,5 UV-I 226 W/m 15,5 C 21,5 C 16,1 km/h (3 Bft) 100,00 %
26.06.2016 17:02 22,2 C 66 % 1014,4 hPa 0,0 l/m 7,7 km/h (2 Bft) SW 225 0 min 0,229 mm 1,4 UV-I 208 W/m 15,5 C 21,8 C 9,7 km/h (2 Bft) 100,00 %
26.06.2016 17:04 22,1 C 66 % 1014,4 hPa 0,0 l/m 6,9 km/h (2 Bft) SW 235 0 min 0,000 mm 1,2 UV-I 187 W/m 15,4 C 21,9 C 9,7 km/h (2 Bft) 100,00 %
26.06.2016 17:06 22,1 C 66 % 1014,4 hPa 0,0 l/m 11,1 km/h (2 Bft) W-SW 247 0 min 0,000 mm 1,1 UV-I 166 W/m 15,4 C 20,7 C 20,9 km/h (4 Bft) 100,00 %
26.06.2016 17:08 21,9 C 67 % 1014,4 hPa 0,0 l/m 10,1 km/h (2 Bft) SW 229 0 min 0,000 mm 1,0 UV-I 152 W/m 15,5 C 20,7 C 16,1 km/h (3 Bft) 100,00 %
26.06.2016 17:10 21,9 C 66 % 1014,5 hPa 0,0 l/m 5,1 km/h (1 Bft) W-SW 247 0 min 0,000 mm 0,8 UV-I 125 W/m 15,3 C 21,9 C 8,0 km/h (2 Bft) 100,00 %
26.06.2016 17:12 21,8 C 67 % 1014,5 hPa 0,0 l/m 5,6 km/h (1 Bft) W 278 0 min 0,000 mm 0,6 UV-I 96 W/m 15,4 C 21,8 C 9,7 km/h (2 Bft) 100,00 %
26.06.2016 17:14 21,8 C 68 % 1014,5 hPa 0,0 l/m 6,6 km/h (2 Bft) W-SW 238 0 min 0,000 mm 0,2 UV-I 79 W/m 15,6 C 21,7 C 9,7 km/h (2 Bft) 97,87 %
26.06.2016 17:16 21,7 C 68 % 1014,5 hPa 0,0 l/m 5,6 km/h (1 Bft) SW 219 0 min 0,000 mm 0,0 UV-I 69 W/m 15,5 C 21,7 C 11,3 km/h (2 Bft) 100,00 %
26.06.2016 17:18 21,7 C 67 % 1014,6 hPa 0,0 l/m 6,0 km/h (2 Bft) SW 225 0 min 0,000 mm 0,0 UV-I 64 W/m 15,3 C 21,7 C 11,3 km/h (2 Bft) 100,00 %
26.06.2016 17:20 21,6 C 68 % 1014,6 hPa 0,0 l/m 6,1 km/h (2 Bft) W-SW 253 0 min 0,000 mm 0,0 UV-I 60 W/m 15,4 C 21,6 C 9,7 km/h (2 Bft) 100,00 %
26.06.2016 17:22 21,6 C 69 % 1014,6 hPa 0,0 l/m 5,2 km/h (1 Bft) SW 234 0 min 0,000 mm 0,0 UV-I 54 W/m 15,7 C 21,6 C 8,0 km/h (2 Bft) 97,73 %
26.06.2016 17:24 21,5 C 70 % 1014,6 hPa 0,0 l/m 6,9 km/h (2 Bft) S-SW 196 0 min 0,000 mm 0,0 UV-I 48 W/m 15,8 C 21,3 C 11,3 km/h (2 Bft) 100,00 %
26.06.2016 17:26 21,4 C 69 % 1014,7 hPa 0,0 l/m 6,6 km/h (2 Bft) SW 222 0 min 0,000 mm 0,0 UV-I 45 W/m 15,5 C 21,3 C 11,3 km/h (2 Bft) 98,00 %
26.06.2016 17:28 21,4 C 70 % 1014,7 hPa 0,0 l/m 7,9 km/h (2 Bft) SW 226 0 min 0,000 mm 0,0 UV-I 42 W/m 15,7 C 20,9 C 11,3 km/h (2 Bft) 100,00 %
26.06.2016 17:30 21,3 C 69 % 1014,7 hPa 0,0 l/m 8,4 km/h (2 Bft) S-SW 213 0 min 0,000 mm 0,0 UV-I 40 W/m 15,4 C 20,6 C 12,9 km/h (3 Bft) 98,21 %
26.06.2016 17:32 21,2 C 70 % 1014,7 hPa 0,0 l/m 8,9 km/h (2 Bft) W-SW 247 0 min 0,000 mm 0,0 UV-I 37 W/m 15,5 C 20,3 C 12,9 km/h (3 Bft) 100,00 %
26.06.2016 17:34 21,2 C 70 % 1014,7 hPa 0,0 l/m 8,2 km/h (2 Bft) SW 228 0 min 0,000 mm 0,0 UV-I 33 W/m 15,5 C 20,5 C 14,5 km/h (3 Bft) 100,00 %
26.06.2016 17:36 21,1 C 70 % 1014,7 hPa 0,0 l/m 9,5 km/h (2 Bft) S-SW 211 0 min 0,000 mm 0,0 UV-I 32 W/m 15,4 C 20,0 C 14,5 km/h (3 Bft) 98,57 %
26.06.2016 17:38 21,0 C 71 % 1014,8 hPa 0,0 l/m 8,2 km/h (2 Bft) SW 230 0 min 0,000 mm 0,0 UV-I 32 W/m 15,5 C 20,3 C 11,3 km/h (2 Bft) 100,00 %
26.06.2016 17:40 20,9 C 71 % 1014,7 hPa 0,0 l/m 7,8 km/h (2 Bft) SW 219 0 min 0,000 mm 0,0 UV-I 32 W/m 15,4 C 20,4 C 12,9 km/h (3 Bft) 100,00 %
26.06.2016 17:42 20,9 C 72 % 1014,7 hPa 0,0 l/m 8,0 km/h (2 Bft) W 260 0 min 0,000 mm 0,0 UV-I 32 W/m 15,7 C 20,3 C 11,3 km/h (2 Bft) 100,00 %
26.06.2016 17:44 20,8 C 72 % 1014,7 hPa 0,0 l/m 7,4 km/h (2 Bft) SW 236 0 min 0,000 mm 0,0 UV-I 32 W/m 15,6 C 20,4 C 11,3 km/h (2 Bft) 97,62 %
26.06.2016 17:46 20,8 C 72 % 1014,7 hPa 0,0 l/m 5,8 km/h (2 Bft) W-SW 244 0 min 0,000 mm 0,0 UV-I 32 W/m 15,6 C 20,8 C 8,0 km/h (2 Bft) 97,96 %
26.06.2016 17:48 20,7 C 72 % 1014,7 hPa 0,0 l/m 5,9 km/h (2 Bft) SW 225 0 min 0,000 mm 0,0 UV-I 36 W/m 15,5 C 20,7 C 8,0 km/h (2 Bft) 100,00 %
26.06.2016 17:50 20,7 C 73 % 1014,7 hPa 0,0 l/m 6,5 km/h (2 Bft) SW 229 0 min 0,000 mm 0,0 UV-I 39 W/m 15,7 C 20,7 C 9,7 km/h (2 Bft) 100,00 %
26.06.2016 17:52 20,7 C 73 % 1014,7 hPa 0,0 l/m 7,2 km/h (2 Bft) SW 232 0 min 0,000 mm 0,0 UV-I 41 W/m 15,7 C 20,4 C 9,7 km/h (2 Bft) 97,37 %
26.06.2016 17:54 20,6 C 73 % 1014,7 hPa 0,0 l/m 8,5 km/h (2 Bft) SW 234 0 min 0,000 mm 0,0 UV-I 42 W/m 15,6 C 19,8 C 14,5 km/h (3 Bft) 100,00 %
26.06.2016 17:56 20,6 C 73 % 1014,7 hPa 0,0 l/m 8,7 km/h (2 Bft) SW 221 0 min 0,000 mm 0,0 UV-I 40 W/m 15,6 C 19,7 C 14,5 km/h (3 Bft) 100,00 %
26.06.2016 17:58 20,6 C 73 % 1014,7 hPa 0,0 l/m 7,6 km/h (2 Bft) SW 223 0 min 0,000 mm 0,0 UV-I 37 W/m 15,6 C 20,1 C 12,9 km/h (3 Bft) 98,31 %
26.06.2016 18:00 20,5 C 74 % 1014,7 hPa 0,0 l/m 8,3 km/h (2 Bft) SW 215 0 min 0,076 mm 0,0 UV-I 34 W/m 15,7 C 19,8 C 14,5 km/h (3 Bft) 100,00 %
26.06.2016 18:02 20,4 C 73 % 1014,6 hPa 0,0 l/m 9,3 km/h (2 Bft) SW 232 0 min 0,000 mm 0,0 UV-I 33 W/m 15,4 C 19,3 C 12,9 km/h (3 Bft) 98,00 %
26.06.2016 18:04 20,3 C 74 % 1014,7 hPa 0,0 l/m 11,6 km/h (2 Bft) S-SW 213 0 min 0,000 mm 0,0 UV-I 33 W/m 15,5 C 18,5 C 17,7 km/h (3 Bft) 97,87 %
26.06.2016 18:06 20,3 C 74 % 1014,7 hPa 0,0 l/m 9,5 km/h (2 Bft) SW 223 0 min 0,000 mm 0,0 UV-I 33 W/m 15,5 C 19,1 C 17,7 km/h (3 Bft) 97,56 %
26.06.2016 18:08 20,2 C 74 % 1014,7 hPa 0,0 l/m 7,2 km/h (2 Bft) S-SW 200 0 min 0,000 mm 0,0 UV-I 33 W/m 15,4 C 19,9 C 12,9 km/h (3 Bft) 96,00 %
26.06.2016 18:10 20,2 C 74 % 1014,7 hPa 0,0 l/m 7,2 km/h (2 Bft) SW 235 0 min 0,000 mm 0,0 UV-I 31 W/m 15,4 C 19,9 C 9,7 km/h (2 Bft) 97,56 %
26.06.2016 18:12 20,1 C 75 % 1014,7 hPa 0,0 l/m 7,4 km/h (2 Bft) W-SW 254 0 min 0,000 mm 0,0 UV-I 29 W/m 15,5 C 19,7 C 12,9 km/h (3 Bft) 97,87 %
26.06.2016 18:14 20,1 C 76 % 1014,7 hPa 0,0 l/m 8,6 km/h (2 Bft) SW 226 0 min 0,000 mm 0,0 UV-I 27 W/m 15,7 C 19,2 C 16,1 km/h (3 Bft) 95,74 %
26.06.2016 18:16 20,1 C 78 % 1014,7 hPa 0,0 l/m 8,2 km/h (2 Bft) SW 215 0 min 0,000 mm 0,0 UV-I 26 W/m 16,1 C 19,4 C 12,9 km/h (3 Bft) 97,73 %
26.06.2016 18:18 20,0 C 79 % 1014,8 hPa 0,2 l/m 8,4 km/h (2 Bft) S-SW 209 0 min 0,000 mm 0,0 UV-I 25 W/m 16,2 C 19,2 C 14,5 km/h (3 Bft) 98,00 %
26.06.2016 18:20 19,9 C 79 % 1014,8 hPa 0,2 l/m 6,3 km/h (2 Bft) S-SW 197 0 min 0,000 mm 0,0 UV-I 26 W/m 16,1 C 19,9 C 9,7 km/h (2 Bft) 95,24 %
26.06.2016 18:22 19,8 C 80 % 1014,8 hPa 0,0 l/m 5,5 km/h (1 Bft) SW 229 0 min 0,000 mm 0,0 UV-I 31 W/m 16,2 C 19,8 C 9,7 km/h (2 Bft) 97,87 %
26.06.2016 18:24 19,8 C 81 % 1014,7 hPa 0,0 l/m 5,0 km/h (1 Bft) SW 225 0 min 0,000 mm 0,0 UV-I 33 W/m 16,4 C 19,8 C 9,7 km/h (2 Bft) 98,11 %
26.06.2016 18:26 19,7 C 82 % 1014,7 hPa 0,0 l/m 4,9 km/h (1 Bft) W 265 0 min 0,000 mm 0,0 UV-I 36 W/m 16,5 C 19,7 C 6,4 km/h (2 Bft) 97,87 %
26.06.2016 18:28 19,6 C 83 % 1014,7 hPa 0,2 l/m 6,6 km/h (2 Bft) W-SW 252 0 min 0,000 mm 0,0 UV-I 39 W/m 16,6 C 19,5 C 11,3 km/h (2 Bft) 97,56 %
26.06.2016 18:30 19,6 C 83 % 1014,7 hPa 0,0 l/m 6,7 km/h (2 Bft) W-SW 238 0 min 0,000 mm 0,0 UV-I 45 W/m 16,6 C 19,5 C 11,3 km/h (2 Bft) 96,00 %
26.06.2016 18:32 19,4 C 84 % 1014,7 hPa 0,0 l/m 8,2 km/h (2 Bft) W-SW 241 0 min 0,000 mm 0,0 UV-I 55 W/m 16,6 C 18,6 C 14,5 km/h (3 Bft) 98,21 %
26.06.2016 18:34 19,4 C 84 % 1014,7 hPa 0,0 l/m 7,8 km/h (2 Bft) W-SW 245 0 min 0,000 mm 0,0 UV-I 71 W/m 16,6 C 18,8 C 11,3 km/h (2 Bft) 97,56 %
26.06.2016 18:36 19,3 C 84 % 1014,6 hPa 0,0 l/m 8,9 km/h (2 Bft) W-SW 250 0 min 0,000 mm 0,0 UV-I 83 W/m 16,5 C 18,3 C 12,9 km/h (3 Bft) 96,55 %
26.06.2016 18:38 19,3 C 84 % 1014,8 hPa 0,0 l/m 7,5 km/h (2 Bft) W-SW 240 0 min 0,000 mm 0,0 UV-I 83 W/m 16,5 C 18,8 C 11,3 km/h (2 Bft) 96,92 %
26.06.2016 18:40 19,2 C 85 % 1014,8 hPa 0,0 l/m 6,1 km/h (2 Bft) W-SW 237 0 min 0,000 mm 0,0 UV-I 74 W/m 16,6 C 19,2 C 9,7 km/h (2 Bft) 97,87 %
26.06.2016 18:42 19,2 C 85 % 1014,8 hPa 0,0 l/m 6,3 km/h (2 Bft) W-SW 244 0 min 0,000 mm 0,0 UV-I 78 W/m 16,6 C 19,2 C 9,7 km/h (2 Bft) 100,00 %
26.06.2016 18:44 19,1 C 85 % 1014,8 hPa 0,0 l/m 6,8 km/h (2 Bft) W-SW 247 0 min 0,000 mm 0,0 UV-I 99 W/m 16,5 C 18,9 C 9,7 km/h (2 Bft) 100,00 %
26.06.2016 18:46 19,1 C 85 % 1014,8 hPa 0,0 l/m 4,2 km/h (1 Bft) W 270 0 min 0,000 mm 0,0 UV-I 123 W/m 16,5 C 19,1 C 6,4 km/h (2 Bft) 98,00 %
26.06.2016 18:48 19,1 C 85 % 1014,8 hPa 0,0 l/m 5,0 km/h (1 Bft) W-SW 258 0 min 0,000 mm 0,0 UV-I 139 W/m 16,5 C 19,1 C 8,0 km/h (2 Bft) 100,00 %
26.06.2016 18:50 19,1 C 85 % 1014,8 hPa 0,0 l/m 7,1 km/h (2 Bft) W-SW 244 0 min 0,000 mm 0,0 UV-I 151 W/m 16,5 C 18,8 C 12,9 km/h (3 Bft) 100,00 %
26.06.2016 18:52 19,0 C 85 % 1014,9 hPa 0,0 l/m 10,3 km/h (2 Bft) SW 230 0 min 0,000 mm 0,0 UV-I 167 W/m 16,4 C 17,4 C 14,5 km/h (3 Bft) 100,00 %
26.06.2016 18:54 19,0 C 85 % 1014,9 hPa 0,0 l/m 10,8 km/h (2 Bft) W 261 2 min 0,000 mm 0,0 UV-I 180 W/m 16,4 C 17,3 C 17,7 km/h (3 Bft) 100,00 %
26.06.2016 18:56 19,0 C 85 % 1014,9 hPa 0,0 l/m 9,9 km/h (2 Bft) W-SW 248 2 min 0,000 mm 0,0 UV-I 179 W/m 16,4 C 17,6 C 14,5 km/h (3 Bft) 100,00 %
26.06.2016 18:58 19,0 C 84 % 1014,9 hPa 0,0 l/m 8,5 km/h (2 Bft) W-SW 246 2 min 0,000 mm 0,0 UV-I 173 W/m 16,2 C 18,1 C 14,5 km/h (3 Bft) 100,00 %
26.06.2016 19:00 19,0 C 83 % 1014,9 hPa 0,0 l/m 10,1 km/h (2 Bft) W-SW 239 0 min 0,076 mm 0,0 UV-I 159 W/m 16,0 C 17,5 C 16,1 km/h (3 Bft) 96,36 %
26.06.2016 19:02 19,0 C 84 % 1015,0 hPa 0,0 l/m 10,8 km/h (2 Bft) W 264 0 min 0,000 mm 0,0 UV-I 137 W/m 16,2 C 17,3 C 17,7 km/h (3 Bft) 100,00 %
26.06.2016 19:04 19,0 C 83 % 1015,0 hPa 0,0 l/m 10,6 km/h (2 Bft) W-SW 248 0 min 0,000 mm 0,0 UV-I 119 W/m 16,0 C 17,3 C 17,7 km/h (3 Bft) 100,00 %
26.06.2016 19:06 18,9 C 83 % 1014,9 hPa 0,0 l/m 10,3 km/h (2 Bft) W 262 0 min 0,000 mm 0,0 UV-I 107 W/m 15,9 C 17,3 C 14,5 km/h (3 Bft) 100,00 %
26.06.2016 19:08 18,9 C 83 % 1014,9 hPa 0,0 l/m 8,7 km/h (2 Bft) W 261 0 min 0,000 mm 0,0 UV-I 99 W/m 15,9 C 17,9 C 14,5 km/h (3 Bft) 98,11 %
26.06.2016 19:10 18,9 C 83 % 1014,9 hPa 0,0 l/m 8,1 km/h (2 Bft) W 271 0 min 0,000 mm 0,0 UV-I 90 W/m 15,9 C 18,2 C 12,9 km/h (3 Bft) 100,00 %
26.06.2016 19:12 18,9 C 83 % 1014,9 hPa 0,0 l/m 5,4 km/h (1 Bft) SW 236 0 min 0,000 mm 0,0 UV-I 82 W/m 15,9 C 18,9 C 14,5 km/h (3 Bft) 100,00 %
26.06.2016 19:14 18,8 C 83 % 1014,9 hPa 0,0 l/m 7,4 km/h (2 Bft) W-SW 256 0 min 0,000 mm 0,0 UV-I 77 W/m 15,8 C 18,4 C 14,5 km/h (3 Bft) 100,00 %
26.06.2016 19:16 18,8 C 82 % 1015,0 hPa 0,0 l/m 8,2 km/h (2 Bft) W-SW 241 0 min 0,000 mm 0,0 UV-I 73 W/m 15,7 C 18,0 C 16,1 km/h (3 Bft) 100,00 %
26.06.2016 19:18 18,8 C 82 % 1015,0 hPa 0,0 l/m 7,6 km/h (2 Bft) W-SW 242 0 min 0,000 mm 0,0 UV-I 72 W/m 15,7 C 18,3 C 11,3 km/h (2 Bft) 100,00 %
26.06.2016 19:20 18,8 C 83 % 1015,0 hPa 0,0 l/m 5,9 km/h (2 Bft) W 280 0 min 0,000 mm 0,0 UV-I 75 W/m 15,8 C 18,8 C 11,3 km/h (2 Bft) 98,21 %
26.06.2016 19:22 18,8 C 83 % 1015,0 hPa 0,0 l/m 5,4 km/h (1 Bft) W 264 0 min 0,000 mm 0,0 UV-I 74 W/m 15,8 C 18,8 C 9,7 km/h (2 Bft) 100,00 %
26.06.2016 19:24 18,8 C 83 % 1014,9 hPa 0,0 l/m 5,5 km/h (1 Bft) W 259 0 min 0,000 mm 0,0 UV-I 72 W/m 15,8 C 18,8 C 9,7 km/h (2 Bft) 100,00 %
26.06.2016 19:26 18,7 C 83 % 1014,9 hPa 0,0 l/m 7,1 km/h (2 Bft) W 265 0 min 0,000 mm 0,0 UV-I 66 W/m 15,8 C 18,4 C 12,9 km/h (3 Bft) 100,00 %
26.06.2016 19:28 18,7 C 83 % 1015,0 hPa 0,0 l/m 5,3 km/h (1 Bft) W-SW 251 0 min 0,000 mm 0,0 UV-I 56 W/m 15,8 C 18,7 C 9,7 km/h (2 Bft) 100,00 %
26.06.2016 19:30 18,7 C 82 % 1015,0 hPa 0,0 l/m 6,5 km/h (2 Bft) W 281 0 min 0,000 mm 0,0 UV-I 48 W/m 15,6 C 18,7 C 8,0 km/h (2 Bft) 97,56 %
26.06.2016 19:32 18,7 C 82 % 1015,0 hPa 0,0 l/m 7,1 km/h (2 Bft) W-NW 289 0 min 0,000 mm 0,0 UV-I 43 W/m 15,6 C 18,4 C 12,9 km/h (3 Bft) 100,00 %
26.06.2016 19:34 18,7 C 83 % 1015,0 hPa 0,0 l/m 7,0 km/h (2 Bft) W 270 0 min 0,000 mm 0,0 UV-I 35 W/m 15,8 C 18,4 C 12,9 km/h (3 Bft) 100,00 %
26.06.2016 19:36 18,7 C 83 % 1015,0 hPa 0,0 l/m 5,4 km/h (1 Bft) W-SW 247 0 min 0,000 mm 0,0 UV-I 30 W/m 15,8 C 18,7 C 8,0 km/h (2 Bft) 100,00 %
26.06.2016 19:38 18,6 C 82 % 1015,0 hPa 0,0 l/m 7,1 km/h (2 Bft) W-SW 242 0 min 0,000 mm 0,0 UV-I 26 W/m 15,5 C 18,3 C 12,9 km/h (3 Bft) 100,00 %
26.06.2016 19:40 18,6 C 83 % 1015,0 hPa 0,0 l/m 6,1 km/h (2 Bft) W-SW 258 0 min 0,000 mm 0,0 UV-I 26 W/m 15,7 C 18,6 C 9,7 km/h (2 Bft) 98,00 %
26.06.2016 19:42 18,6 C 83 % 1015,0 hPa 0,0 l/m 7,3 km/h (2 Bft) W-SW 247 0 min 0,000 mm 0,0 UV-I 25 W/m 15,7 C 18,2 C 12,9 km/h (3 Bft) 100,00 %
26.06.2016 19:44 18,6 C 83 % 1015,1 hPa 0,0 l/m 7,3 km/h (2 Bft) W-SW 258 0 min 0,000 mm 0,0 UV-I 25 W/m 15,7 C 18,2 C 11,3 km/h (2 Bft) 100,00 %
26.06.2016 19:46 18,6 C 84 % 1015,1 hPa 0,0 l/m 8,2 km/h (2 Bft) SW 232 0 min 0,000 mm 0,0 UV-I 24 W/m 15,8 C 17,8 C 12,9 km/h (3 Bft) 100,00 %
26.06.2016 19:48 18,6 C 84 % 1015,0 hPa 0,0 l/m 8,4 km/h (2 Bft) SW 234 0 min 0,000 mm 0,0 UV-I 23 W/m 15,8 C 17,7 C 12,9 km/h (3 Bft) 100,00 %
26.06.2016 19:50 18,5 C 83 % 1015,1 hPa 0,0 l/m 7,1 km/h (2 Bft) W-SW 250 0 min 0,000 mm 0,0 UV-I 23 W/m 15,6 C 18,2 C 11,3 km/h (2 Bft) 100,00 %
26.06.2016 19:52 18,5 C 84 % 1015,1 hPa 0,0 l/m 6,4 km/h (2 Bft) W-SW 250 0 min 0,000 mm 0,0 UV-I 21 W/m 15,7 C 18,5 C 11,3 km/h (2 Bft) 100,00 %
26.06.2016 19:54 18,5 C 84 % 1015,2 hPa 0,0 l/m 7,5 km/h (2 Bft) W 259 0 min 0,000 mm 0,0 UV-I 21 W/m 15,7 C 18,0 C 14,5 km/h (3 Bft) 98,11 %
26.06.2016 19:56 18,4 C 84 % 1015,1 hPa 0,0 l/m 4,2 km/h (1 Bft) W-SW 257 0 min 0,000 mm 0,0 UV-I 21 W/m 15,6 C 18,4 C 6,4 km/h (2 Bft) 100,00 %
26.06.2016 19:58 18,4 C 83 % 1015,2 hPa 0,0 l/m 4,2 km/h (1 Bft) W 273 0 min 0,000 mm 0,0 UV-I 23 W/m 15,5 C 18,4 C 6,4 km/h (2 Bft) 100,00 %
26.06.2016 20:00 18,4 C 84 % 1015,2 hPa 0,0 l/m 4,3 km/h (1 Bft) SW 224 0 min 0,051 mm 0,0 UV-I 23 W/m 15,6 C 18,4 C 6,4 km/h (2 Bft) 97,83 %
26.06.2016 20:02 18,4 C 83 % 1015,2 hPa 0,0 l/m 6,4 km/h (2 Bft) W-NW 282 0 min 0,000 mm 0,0 UV-I 25 W/m 15,5 C 18,4 C 11,3 km/h (2 Bft) 100,00 %
26.06.2016 20:04 18,4 C 84 % 1015,2 hPa 0,0 l/m 6,4 km/h (2 Bft) W-SW 250 0 min 0,000 mm 0,0 UV-I 26 W/m 15,6 C 18,4 C 11,3 km/h (2 Bft) 98,00 %
26.06.2016 20:06 18,4 C 84 % 1015,2 hPa 0,0 l/m 6,2 km/h (2 Bft) W-SW 252 0 min 0,000 mm 0,0 UV-I 26 W/m 15,6 C 18,4 C 9,7 km/h (2 Bft) 95,74 %
26.06.2016 20:08 18,4 C 84 % 1015,2 hPa 0,0 l/m 5,7 km/h (1 Bft) W-SW 240 0 min 0,000 mm 0,0 UV-I 28 W/m 15,6 C 18,4 C 6,4 km/h (2 Bft) 97,56 %
26.06.2016 20:10 18,4 C 84 % 1015,3 hPa 0,0 l/m 5,7 km/h (1 Bft) SW 229 0 min 0,000 mm 0,0 UV-I 27 W/m 15,6 C 18,4 C 8,0 km/h (2 Bft) 98,11 %
26.06.2016 20:12 18,4 C 84 % 1015,3 hPa 0,0 l/m 6,1 km/h (2 Bft) SW 236 0 min 0,000 mm 0,0 UV-I 25 W/m 15,6 C 18,4 C 9,7 km/h (2 Bft) 95,74 %
26.06.2016 20:14 18,4 C 84 % 1015,3 hPa 0,0 l/m 6,6 km/h (2 Bft) W-SW 248 0 min 0,000 mm 0,0 UV-I 22 W/m 15,6 C 18,3 C 11,3 km/h (2 Bft) 97,56 %
26.06.2016 20:16 18,4 C 84 % 1015,3 hPa 0,0 l/m 7,7 km/h (2 Bft) W-SW 247 0 min 0,000 mm 0,0 UV-I 20 W/m 15,6 C 17,8 C 12,9 km/h (3 Bft) 98,21 %
26.06.2016 20:18 18,4 C 84 % 1015,2 hPa 0,0 l/m 8,4 km/h (2 Bft) W-SW 239 0 min 0,000 mm 0,0 UV-I 18 W/m 15,6 C 17,5 C 12,9 km/h (3 Bft) 97,62 %
26.06.2016 20:20 18,4 C 84 % 1015,3 hPa 0,0 l/m 8,2 km/h (2 Bft) SW 231 0 min 0,000 mm 0,0 UV-I 16 W/m 15,6 C 17,6 C 12,9 km/h (3 Bft) 98,15 %
26.06.2016 20:22 18,4 C 84 % 1015,3 hPa 0,0 l/m 8,4 km/h (2 Bft) SW 235 0 min 0,000 mm 0,0 UV-I 16 W/m 15,6 C 17,5 C 14,5 km/h (3 Bft) 97,44 %
26.06.2016 20:24 18,4 C 84 % 1015,4 hPa 0,0 l/m 8,5 km/h (2 Bft) W 261 0 min 0,000 mm 0,0 UV-I 15 W/m 15,6 C 17,5 C 12,9 km/h (3 Bft) 98,11 %
26.06.2016 20:26 18,4 C 84 % 1015,4 hPa 0,0 l/m 10,7 km/h (2 Bft) W 265 0 min 0,000 mm 0,0 UV-I 15 W/m 15,6 C 16,6 C 14,5 km/h (3 Bft) 93,62 %
26.06.2016 20:28 18,4 C 83 % 1015,4 hPa 0,0 l/m 12,4 km/h (3 Bft) W-SW 250 0 min 0,000 mm 0,0 UV-I 16 W/m 15,5 C 16,1 C 19,3 km/h (3 Bft) 100,00 %
26.06.2016 20:30 18,3 C 82 % 1015,4 hPa 0,0 l/m 12,7 km/h (3 Bft) SW 225 0 min 0,000 mm 0,0 UV-I 14 W/m 15,2 C 15,9 C 19,3 km/h (3 Bft) 96,43 %
26.06.2016 20:32 18,4 C 82 % 1015,4 hPa 0,0 l/m 8,7 km/h (2 Bft) W-SW 253 0 min 0,000 mm 0,0 UV-I 12 W/m 15,3 C 17,4 C 14,5 km/h (3 Bft) 94,74 %
26.06.2016 20:34 18,4 C 82 % 1015,4 hPa 0,0 l/m 9,9 km/h (2 Bft) W-SW 251 0 min 0,000 mm 0,0 UV-I 12 W/m 15,3 C 16,9 C 16,1 km/h (3 Bft) 97,73 %
26.06.2016 20:36 18,4 C 82 % 1015,4 hPa 0,0 l/m 9,3 km/h (2 Bft) W 277 0 min 0,000 mm 0,0 UV-I 11 W/m 15,3 C 17,1 C 14,5 km/h (3 Bft) 97,87 %
26.06.2016 20:38 18,4 C 82 % 1015,5 hPa 0,0 l/m 7,2 km/h (2 Bft) SW 219 0 min 0,000 mm 0,0 UV-I 11 W/m 15,3 C 18,0 C 12,9 km/h (3 Bft) 100,00 %
26.06.2016 20:40 18,4 C 82 % 1015,5 hPa 0,0 l/m 6,8 km/h (2 Bft) W 262 0 min 0,000 mm 0,0 UV-I 11 W/m 15,3 C 18,2 C 16,1 km/h (3 Bft) 98,00 %
26.06.2016 20:42 18,3 C 81 % 1015,6 hPa 0,0 l/m 9,1 km/h (2 Bft) W-SW 253 0 min 0,000 mm 0,0 UV-I 11 W/m 15,0 C 17,1 C 14,5 km/h (3 Bft) 97,73 %
26.06.2016 20:44 18,3 C 81 % 1015,6 hPa 0,0 l/m 7,6 km/h (2 Bft) W 260 0 min 0,000 mm 0,0 UV-I 10 W/m 15,0 C 17,7 C 12,9 km/h (3 Bft) 100,00 %
26.06.2016 20:46 18,3 C 81 % 1015,6 hPa 0,0 l/m 9,2 km/h (2 Bft) W-SW 249 0 min 0,000 mm 0,0 UV-I 9 W/m 15,0 C 17,1 C 16,1 km/h (3 Bft) 100,00 %
26.06.2016 20:48 18,3 C 81 % 1015,6 hPa 0,0 l/m 8,7 km/h (2 Bft) W 261 0 min 0,000 mm 0,0 UV-I 7 W/m 15,0 C 17,3 C 19,3 km/h (3 Bft) 100,00 %
26.06.2016 20:50 18,3 C 80 % 1015,6 hPa 0,0 l/m 12,9 km/h (3 Bft) W-SW 254 0 min 0,000 mm 0,0 UV-I 7 W/m 14,8 C 15,8 C 19,3 km/h (3 Bft) 97,87 %
26.06.2016 20:52 18,3 C 79 % 1015,6 hPa 0,0 l/m 11,2 km/h (2 Bft) W 263 0 min 0,000 mm 0,0 UV-I 6 W/m 14,6 C 16,3 C 22,5 km/h (4 Bft) 97,14 %
26.06.2016 20:54 18,2 C 78 % 1015,6 hPa 0,0 l/m 11,0 km/h (2 Bft) SW 234 0 min 0,000 mm 0,0 UV-I 5 W/m 14,3 C 16,3 C 17,7 km/h (3 Bft) 98,21 %
26.06.2016 20:56 18,2 C 78 % 1015,7 hPa 0,0 l/m 8,1 km/h (2 Bft) W 263 0 min 0,000 mm 0,0 UV-I 4 W/m 14,3 C 17,4 C 12,9 km/h (3 Bft) 100,00 %
26.06.2016 20:58 18,2 C 78 % 1015,7 hPa 0,0 l/m 8,1 km/h (2 Bft) W 259 0 min 0,000 mm 0,0 UV-I 0 W/m 14,3 C 17,4 C 12,9 km/h (3 Bft) 97,62 %
26.06.2016 21:00 18,1 C 78 % 1015,7 hPa 0,0 l/m 8,0 km/h (2 Bft) W 280 0 min 0,025 mm 0,0 UV-I 0 W/m 14,2 C 17,4 C 14,5 km/h (3 Bft) 98,18 %
26.06.2016 21:02 18,1 C 77 % 1015,6 hPa 0,0 l/m 10,7 km/h (2 Bft) W 267 0 min 0,000 mm 0,0 UV-I 0 W/m 14,0 C 16,3 C 20,9 km/h (4 Bft) 100,00 %
26.06.2016 21:04 18,1 C 77 % 1015,6 hPa 0,0 l/m 8,3 km/h (2 Bft) W-SW 240 0 min 0,000 mm 0,0 UV-I 0 W/m 14,0 C 17,2 C 16,1 km/h (3 Bft) 98,00 %
26.06.2016 21:06 18,0 C 77 % 1015,7 hPa 0,0 l/m 12,8 km/h (3 Bft) W 267 0 min 0,000 mm 0,0 UV-I 0 W/m 13,9 C 15,5 C 17,7 km/h (3 Bft) 100,00 %
26.06.2016 21:08 18,0 C 77 % 1015,7 hPa 0,0 l/m 13,8 km/h (3 Bft) W-SW 245 0 min 0,000 mm 0,0 UV-I 0 W/m 13,9 C 15,2 C 20,9 km/h (4 Bft) 100,00 %
26.06.2016 21:10 17,9 C 76 % 1015,8 hPa 0,0 l/m 12,9 km/h (3 Bft) W 276 0 min 0,000 mm 0,0 UV-I 0 W/m 13,6 C 15,3 C 19,3 km/h (3 Bft) 100,00 %
26.06.2016 21:12 17,9 C 76 % 1015,8 hPa 0,0 l/m 12,3 km/h (3 Bft) W-SW 254 0 min 0,000 mm 0,0 UV-I 0 W/m 13,6 C 15,5 C 17,7 km/h (3 Bft) 98,31 %
26.06.2016 21:14 17,9 C 76 % 1015,7 hPa 0,0 l/m 10,6 km/h (2 Bft) W-SW 257 0 min 0,000 mm 0,0 UV-I 0 W/m 13,6 C 16,1 C 19,3 km/h (3 Bft) 100,00 %
26.06.2016 21:16 17,9 C 77 % 1015,8 hPa 0,0 l/m 8,2 km/h (2 Bft) W-SW 257 0 min 0,000 mm 0,0 UV-I 0 W/m 13,8 C 17,1 C 14,5 km/h (3 Bft) 100,00 %
26.06.2016 21:18 17,9 C 77 % 1015,8 hPa 0,0 l/m 8,2 km/h (2 Bft) W 267 0 min 0,000 mm 0,0 UV-I 0 W/m 13,8 C 17,1 C 14,5 km/h (3 Bft) 100,00 %
26.06.2016 21:20 17,8 C 77 % 1015,9 hPa 0,0 l/m 10,1 km/h (2 Bft) SW 234 0 min 0,000 mm 0,0 UV-I 0 W/m 13,7 C 16,2 C 16,1 km/h (3 Bft) 100,00 %
26.06.2016 21:22 17,8 C 76 % 1016,0 hPa 0,0 l/m 8,7 km/h (2 Bft) W 281 0 min 0,000 mm 0,0 UV-I 0 W/m 13,5 C 16,7 C 16,1 km/h (3 Bft) 100,00 %
26.06.2016 21:24 17,8 C 77 % 1016,1 hPa 0,0 l/m 12,6 km/h (3 Bft) W-SW 252 0 min 0,000 mm 0,0 UV-I 0 W/m 13,7 C 15,3 C 19,3 km/h (3 Bft) 100,00 %
26.06.2016 21:26 17,8 C 77 % 1016,1 hPa 0,0 l/m 9,4 km/h (2 Bft) W-SW 254 0 min 0,000 mm 0,0 UV-I 0 W/m 13,7 C 16,4 C 19,3 km/h (3 Bft) 100,00 %
26.06.2016 21:28 17,8 C 77 % 1016,1 hPa 0,0 l/m 12,0 km/h (2 Bft) SW 236 0 min 0,000 mm 0,0 UV-I 0 W/m 13,7 C 15,5 C 19,3 km/h (3 Bft) 100,00 %
26.06.2016 21:30 17,8 C 77 % 1016,2 hPa 0,0 l/m 10,6 km/h (2 Bft) W-SW 251 0 min 0,000 mm 0,0 UV-I 0 W/m 13,7 C 16,0 C 14,5 km/h (3 Bft) 98,11 %
26.06.2016 21:32 17,8 C 77 % 1016,1 hPa 0,0 l/m 12,1 km/h (2 Bft) W 265 0 min 0,000 mm 0,0 UV-I 0 W/m 13,7 C 15,5 C 17,7 km/h (3 Bft) 97,56 %
26.06.2016 21:34 17,7 C 77 % 1016,1 hPa 0,0 l/m 9,8 km/h (2 Bft) W-NW 288 0 min 0,000 mm 0,0 UV-I 0 W/m 13,6 C 16,2 C 16,1 km/h (3 Bft) 100,00 %
26.06.2016 21:36 17,7 C 77 % 1016,2 hPa 0,0 l/m 7,2 km/h (2 Bft) W 271 0 min 0,000 mm 0,0 UV-I 0 W/m 13,6 C 17,3 C 16,1 km/h (3 Bft) 100,00 %
26.06.2016 21:38 17,7 C 76 % 1016,2 hPa 0,0 l/m 11,7 km/h (2 Bft) W 275 0 min 0,000 mm 0,0 UV-I 0 W/m 13,4 C 15,5 C 20,9 km/h (4 Bft) 100,00 %
26.06.2016 21:40 17,7 C 76 % 1016,3 hPa 0,0 l/m 8,0 km/h (2 Bft) W 259 0 min 0,000 mm 0,0 UV-I 0 W/m 13,4 C 16,9 C 14,5 km/h (3 Bft) 100,00 %
26.06.2016 21:42 17,7 C 76 % 1016,4 hPa 0,0 l/m 10,4 km/h (2 Bft) W 267 0 min 0,000 mm 0,0 UV-I 0 W/m 13,4 C 15,9 C 17,7 km/h (3 Bft) 100,00 %
26.06.2016 21:44 17,7 C 76 % 1016,4 hPa 0,0 l/m 6,4 km/h (2 Bft) W-SW 241 0 min 0,000 mm 0,0 UV-I 0 W/m 13,4 C 17,7 C 14,5 km/h (3 Bft) 100,00 %
26.06.2016 21:46 17,7 C 77 % 1016,4 hPa 0,0 l/m 7,5 km/h (2 Bft) W-SW 244 0 min 0,000 mm 0,0 UV-I 0 W/m 13,6 C 17,2 C 12,9 km/h (3 Bft) 100,00 %
26.06.2016 21:48 17,7 C 78 % 1016,4 hPa 0,0 l/m 9,7 km/h (2 Bft) SW 236 0 min 0,000 mm 0,0 UV-I 0 W/m 13,8 C 16,2 C 14,5 km/h (3 Bft) 100,00 %
26.06.2016 21:50 17,7 C 77 % 1016,5 hPa 0,0 l/m 11,7 km/h (2 Bft) W-SW 243 0 min 0,000 mm 0,0 UV-I 0 W/m 13,6 C 15,5 C 16,1 km/h (3 Bft) 100,00 %
26.06.2016 21:52 17,6 C 77 % 1016,6 hPa 0,0 l/m 11,1 km/h (2 Bft) W-SW 252 0 min 0,000 mm 0,0 UV-I 0 W/m 13,5 C 15,6 C 16,1 km/h (3 Bft) 97,92 %
26.06.2016 21:54 17,6 C 78 % 1016,6 hPa 0,0 l/m 7,9 km/h (2 Bft) W-SW 254 0 min 0,000 mm 0,0 UV-I 0 W/m 13,7 C 16,9 C 12,9 km/h (3 Bft) 100,00 %
26.06.2016 21:56 17,6 C 78 % 1016,7 hPa 0,0 l/m 12,7 km/h (3 Bft) W-SW 240 0 min 0,000 mm 0,0 UV-I 0 W/m 13,7 C 15,0 C 17,7 km/h (3 Bft) 100,00 %
26.06.2016 21:58 17,6 C 78 % 1016,7 hPa 0,0 l/m 11,7 km/h (2 Bft) W-SW 254 0 min 0,000 mm 0,0 UV-I 0 W/m 13,7 C 15,4 C 19,3 km/h (3 Bft) 100,00 %
26.06.2016 22:00 17,6 C 78 % 1016,7 hPa 0,0 l/m 12,5 km/h (3 Bft) W-SW 248 0 min 0,000 mm 0,0 UV-I 0 W/m 13,7 C 15,1 C 17,7 km/h (3 Bft) 100,00 %
26.06.2016 22:02 17,5 C 78 % 1016,8 hPa 0,0 l/m 12,8 km/h (3 Bft) W-SW 256 0 min 0,025 mm 0,0 UV-I 0 W/m 13,6 C 14,9 C 20,9 km/h (4 Bft) 100,00 %
26.06.2016 22:04 17,4 C 78 % 1016,7 hPa 0,0 l/m 11,5 km/h (2 Bft) W-SW 248 0 min 0,001 mm 0,0 UV-I 0 W/m 13,5 C 15,2 C 19,3 km/h (3 Bft) 96,00 %
26.06.2016 22:06 17,4 C 78 % 1016,7 hPa 0,0 l/m 13,5 km/h (3 Bft) W 259 0 min 0,000 mm 0,0 UV-I 0 W/m 13,5 C 14,5 C 24,1 km/h (4 Bft) 97,56 %
26.06.2016 22:08 17,4 C 78 % 1016,7 hPa 0,0 l/m 13,0 km/h (3 Bft) W-SW 244 0 min 0,000 mm 0,0 UV-I 0 W/m 13,5 C 14,7 C 17,7 km/h (3 Bft) 97,56 %
26.06.2016 22:10 17,3 C 78 % 1016,7 hPa 0,0 l/m 13,8 km/h (3 Bft) W-SW 237 0 min 0,000 mm 0,0 UV-I 0 W/m 13,4 C 14,3 C 19,3 km/h (3 Bft) 98,21 %
26.06.2016 22:12 17,3 C 78 % 1016,6 hPa 0,0 l/m 15,8 km/h (3 Bft) SW 232 0 min 0,000 mm 0,0 UV-I 0 W/m 13,4 C 13,8 C 22,5 km/h (4 Bft) 97,62 %
26.06.2016 22:14 17,3 C 78 % 1016,6 hPa 0,0 l/m 16,1 km/h (3 Bft) W 262 0 min 0,000 mm 0,0 UV-I 0 W/m 13,4 C 13,7 C 22,5 km/h (4 Bft) 93,88 %
26.06.2016 22:16 17,3 C 78 % 1016,6 hPa 0,0 l/m 15,8 km/h (3 Bft) W 267 0 min 0,000 mm 0,0 UV-I 0 W/m 13,4 C 13,8 C 22,5 km/h (4 Bft) 97,87 %
26.06.2016 22:18 17,2 C 77 % 1016,7 hPa 0,0 l/m 13,8 km/h (3 Bft) W-SW 238 0 min 0,000 mm 0,0 UV-I 0 W/m 13,1 C 14,2 C 17,7 km/h (3 Bft) 98,11 %
26.06.2016 22:20 17,2 C 77 % 1016,6 hPa 0,0 l/m 15,4 km/h (3 Bft) W 268 0 min 0,000 mm 0,0 UV-I 0 W/m 13,1 C 13,7 C 19,3 km/h (3 Bft) 97,62 %
26.06.2016 22:22 17,2 C 78 % 1016,6 hPa 0,0 l/m 10,5 km/h (2 Bft) W 269 0 min 0,000 mm 0,0 UV-I 0 W/m 13,3 C 15,4 C 19,3 km/h (3 Bft) 96,23 %
26.06.2016 22:24 17,2 C 78 % 1016,6 hPa 0,0 l/m 8,9 km/h (2 Bft) W-SW 253 0 min 0,000 mm 0,0 UV-I 0 W/m 13,3 C 16,0 C 16,1 km/h (3 Bft) 92,11 %
26.06.2016 22:26 17,2 C 77 % 1016,5 hPa 0,0 l/m 13,8 km/h (3 Bft) W 261 0 min 0,000 mm 0,0 UV-I 0 W/m 13,1 C 14,2 C 22,5 km/h (4 Bft) 98,00 %
26.06.2016 22:28 17,2 C 77 % 1016,5 hPa 0,0 l/m 11,4 km/h (2 Bft) W-SW 249 0 min 0,000 mm 0,0 UV-I 0 W/m 13,1 C 15,0 C 17,7 km/h (3 Bft) 96,00 %
26.06.2016 22:30 17,2 C 78 % 1016,5 hPa 0,0 l/m 8,8 km/h (2 Bft) W 263 0 min 0,000 mm 0,0 UV-I 0 W/m 13,3 C 16,0 C 14,5 km/h (3 Bft) 100,00 %
26.06.2016 22:32 17,1 C 78 % 1016,6 hPa 0,0 l/m 7,3 km/h (2 Bft) W-SW 238 0 min 0,000 mm 0,0 UV-I 0 W/m 13,2 C 16,6 C 14,5 km/h (3 Bft) 98,11 %
26.06.2016 22:34 17,1 C 79 % 1016,6 hPa 0,0 l/m 10,6 km/h (2 Bft) W-NW 296 0 min 0,000 mm 0,0 UV-I 0 W/m 13,4 C 15,2 C 16,1 km/h (3 Bft) 97,56 %
26.06.2016 22:36 17,1 C 80 % 1016,5 hPa 0,0 l/m 9,3 km/h (2 Bft) SW 236 0 min 0,000 mm 0,0 UV-I 0 W/m 13,6 C 15,7 C 14,5 km/h (3 Bft) 98,00 %
26.06.2016 22:38 17,0 C 80 % 1016,5 hPa 0,2 l/m 10,3 km/h (2 Bft) W-SW 245 0 min 0,000 mm 0,0 UV-I 0 W/m 13,5 C 15,2 C 17,7 km/h (3 Bft) 98,11 %
26.06.2016 22:40 16,9 C 81 % 1016,6 hPa 0,0 l/m 11,0 km/h (2 Bft) NW 323 0 min 0,000 mm 0,0 UV-I 0 W/m 13,6 C 14,8 C 14,5 km/h (3 Bft) 100,00 %
26.06.2016 22:42 16,8 C 81 % 1016,7 hPa 0,0 l/m 7,3 km/h (2 Bft) W-SW 254 0 min 0,000 mm 0,0 UV-I 0 W/m 13,5 C 16,3 C 12,9 km/h (3 Bft) 100,00 %
26.06.2016 22:44 16,8 C 83 % 1016,8 hPa 0,2 l/m 9,9 km/h (2 Bft) SW 224 0 min 0,000 mm 0,0 UV-I 0 W/m 13,9 C 15,1 C 16,1 km/h (3 Bft) 100,00 %
26.06.2016 22:46 16,7 C 83 % 1016,9 hPa 0,0 l/m 9,0 km/h (2 Bft) SW 221 0 min 0,000 mm 0,0 UV-I 0 W/m 13,8 C 15,4 C 12,9 km/h (3 Bft) 100,00 %
26.06.2016 22:48 16,6 C 84 % 1017,0 hPa 0,2 l/m 10,4 km/h (2 Bft) W-SW 247 0 min 0,000 mm 0,0 UV-I 0 W/m 13,9 C 14,7 C 16,1 km/h (3 Bft) 97,87 %
26.06.2016 22:50 16,4 C 85 % 1017,0 hPa 0,2 l/m 16,0 km/h (3 Bft) W 263 0 min 0,000 mm 0,0 UV-I 0 W/m 13,9 C 12,6 C 27,4 km/h (4 Bft) 100,00 %
26.06.2016 22:52 16,3 C 85 % 1017,1 hPa 0,2 l/m 16,1 km/h (3 Bft) SW 229 0 min 0,000 mm 0,0 UV-I 0 W/m 13,8 C 12,4 C 27,4 km/h (4 Bft) 100,00 %
26.06.2016 22:54 16,2 C 87 % 1017,2 hPa 0,2 l/m 15,4 km/h (3 Bft) SW 232 0 min 0,000 mm 0,0 UV-I 0 W/m 14,0 C 12,5 C 20,9 km/h (4 Bft) 97,73 %
26.06.2016 22:56 16,1 C 87 % 1017,2 hPa 0,2 l/m 11,7 km/h (2 Bft) SW 234 0 min 0,000 mm 0,0 UV-I 0 W/m 13,9 C 13,7 C 16,1 km/h (3 Bft) 100,00 %
26.06.2016 22:58 15,9 C 88 % 1017,2 hPa 0,2 l/m 13,5 km/h (3 Bft) W 266 0 min 0,000 mm 0,0 UV-I 0 W/m 13,9 C 12,8 C 22,5 km/h (4 Bft) 97,73 %
26.06.2016 23:00 15,8 C 88 % 1017,2 hPa 0,2 l/m 11,6 km/h (2 Bft) W-SW 240 0 min 0,000 mm 0,0 UV-I 0 W/m 13,8 C 13,3 C 19,3 km/h (3 Bft) 100,00 %
26.06.2016 23:02 15,7 C 89 % 1017,3 hPa 0,2 l/m 11,3 km/h (2 Bft) SW 223 0 min 0,025 mm 0,0 UV-I 0 W/m 13,9 C 13,3 C 16,1 km/h (3 Bft) 100,00 %
26.06.2016 23:04 15,6 C 89 % 1017,3 hPa 0,2 l/m 13,7 km/h (3 Bft) W-SW 238 0 min 0,000 mm 0,0 UV-I 0 W/m 13,8 C 12,3 C 17,7 km/h (3 Bft) 100,00 %
26.06.2016 23:06 15,4 C 90 % 1017,4 hPa 0,2 l/m 14,2 km/h (3 Bft) SW 234 0 min 0,000 mm 0,0 UV-I 0 W/m 13,8 C 11,9 C 22,5 km/h (4 Bft) 100,00 %
26.06.2016 23:08 15,3 C 90 % 1017,5 hPa 0,2 l/m 13,4 km/h (3 Bft) W-SW 254 0 min 0,000 mm 0,0 UV-I 0 W/m 13,7 C 12,1 C 22,5 km/h (4 Bft) 100,00 %
26.06.2016 23:10 15,2 C 90 % 1017,4 hPa 0,2 l/m 13,7 km/h (3 Bft) W-SW 242 0 min 0,000 mm 0,0 UV-I 0 W/m 13,6 C 11,9 C 20,9 km/h (4 Bft) 100,00 %
26.06.2016 23:12 15,1 C 90 % 1017,4 hPa 0,2 l/m 16,1 km/h (3 Bft) SW 216 0 min 0,000 mm 0,0 UV-I 0 W/m 13,5 C 11,0 C 20,9 km/h (4 Bft) 100,00 %
26.06.2016 23:14 15,0 C 90 % 1017,4 hPa 0,2 l/m 16,1 km/h (3 Bft) SW 232 0 min 0,000 mm 0,0 UV-I 0 W/m 13,4 C 10,8 C 24,1 km/h (4 Bft) 97,87 %
26.06.2016 23:16 14,9 C 91 % 1017,4 hPa 0,2 l/m 16,2 km/h (3 Bft) W-SW 249 0 min 0,000 mm 0,0 UV-I 0 W/m 13,4 C 10,7 C 25,7 km/h (4 Bft) 100,00 %
26.06.2016 23:18 14,8 C 91 % 1017,4 hPa 0,2 l/m 15,1 km/h (3 Bft) W-SW 258 0 min 0,000 mm 0,0 UV-I 0 W/m 13,3 C 10,9 C 20,9 km/h (4 Bft) 100,00 %
26.06.2016 23:20 14,8 C 91 % 1017,4 hPa 0,2 l/m 15,4 km/h (3 Bft) SW 236 0 min 0,000 mm 0,0 UV-I 0 W/m 13,3 C 10,8 C 24,1 km/h (4 Bft) 100,00 %
26.06.2016 23:22 14,7 C 92 % 1017,4 hPa 0,2 l/m 12,2 km/h (2 Bft) W-SW 240 0 min 0,000 mm 0,0 UV-I 0 W/m 13,4 C 11,8 C 17,7 km/h (3 Bft) 100,00 %
26.06.2016 23:24 14,6 C 92 % 1017,4 hPa 0,2 l/m 14,2 km/h (3 Bft) SW 221 0 min 0,000 mm 0,0 UV-I 0 W/m 13,3 C 11,0 C 24,1 km/h (4 Bft) 97,56 %
26.06.2016 23:26 14,6 C 92 % 1017,4 hPa 0,2 l/m 11,5 km/h (2 Bft) W 259 0 min 0,000 mm 0,0 UV-I 0 W/m 13,3 C 12,0 C 16,1 km/h (3 Bft) 100,00 %
26.06.2016 23:28 14,6 C 92 % 1017,4 hPa 0,2 l/m 11,4 km/h (2 Bft) S-SW 201 0 min 0,000 mm 0,0 UV-I 0 W/m 13,3 C 12,1 C 16,1 km/h (3 Bft) 100,00 %
26.06.2016 23:30 14,5 C 92 % 1017,4 hPa 0,4 l/m 10,4 km/h (2 Bft) W 266 0 min 0,000 mm 0,0 UV-I 0 W/m 13,2 C 12,4 C 16,1 km/h (3 Bft) 97,87 %
26.06.2016 23:32 14,5 C 93 % 1017,4 hPa 0,4 l/m 8,4 km/h (2 Bft) W-SW 247 0 min 0,000 mm 0,0 UV-I 0 W/m 13,4 C 13,4 C 14,5 km/h (3 Bft) 95,74 %
26.06.2016 23:34 14,4 C 93 % 1017,4 hPa 0,2 l/m 11,6 km/h (2 Bft) SW 229 0 min 0,000 mm 0,0 UV-I 0 W/m 13,3 C 11,7 C 16,1 km/h (3 Bft) 100,00 %
26.06.2016 23:36 14,4 C 93 % 1017,4 hPa 0,2 l/m 11,4 km/h (2 Bft) W 267 0 min 0,000 mm 0,0 UV-I 0 W/m 13,3 C 11,8 C 16,1 km/h (3 Bft) 97,92 %
26.06.2016 23:38 14,4 C 93 % 1017,4 hPa 0,2 l/m 10,2 km/h (2 Bft) W 259 0 min 0,000 mm 0,0 UV-I 0 W/m 13,3 C 12,4 C 16,1 km/h (3 Bft) 100,00 %
26.06.2016 23:40 14,3 C 93 % 1017,3 hPa 0,2 l/m 13,7 km/h (3 Bft) W-SW 249 0 min 0,000 mm 0,0 UV-I 0 W/m 13,2 C 10,8 C 19,3 km/h (3 Bft) 100,00 %
26.06.2016 23:42 14,3 C 93 % 1017,3 hPa 0,4 l/m 10,2 km/h (2 Bft) W-SW 254 0 min 0,000 mm 0,0 UV-I 0 W/m 13,2 C 12,3 C 17,7 km/h (3 Bft) 98,46 %
26.06.2016 23:44 14,3 C 93 % 1017,4 hPa 0,2 l/m 10,5 km/h (2 Bft) W 271 0 min 0,000 mm 0,0 UV-I 0 W/m 13,2 C 12,1 C 16,1 km/h (3 Bft) 97,37 %
26.06.2016 23:46 14,3 C 93 % 1017,3 hPa 0,2 l/m 10,8 km/h (2 Bft) W 266 0 min 0,000 mm 0,0 UV-I 0 W/m 13,2 C 12,0 C 16,1 km/h (3 Bft) 98,11 %
26.06.2016 23:48 14,3 C 94 % 1017,3 hPa 0,2 l/m 7,5 km/h (2 Bft) W-SW 253 0 min 0,000 mm 0,0 UV-I 0 W/m 13,3 C 13,7 C 16,1 km/h (3 Bft) 100,00 %
26.06.2016 23:50 14,2 C 94 % 1017,3 hPa 0,2 l/m 11,7 km/h (2 Bft) W-SW 249 0 min 0,000 mm 0,0 UV-I 0 W/m 13,2 C 11,5 C 17,7 km/h (3 Bft) 100,00 %
26.06.2016 23:52 14,2 C 94 % 1017,2 hPa 0,2 l/m 12,1 km/h (2 Bft) W 265 0 min 0,000 mm 0,0 UV-I 0 W/m 13,2 C 11,3 C 16,1 km/h (3 Bft) 98,11 %
26.06.2016 23:54 14,2 C 94 % 1017,2 hPa 0,0 l/m 9,9 km/h (2 Bft) W-NW 291 0 min 0,000 mm 0,0 UV-I 0 W/m 13,2 C 12,3 C 12,9 km/h (3 Bft) 100,00 %
26.06.2016 23:56 14,2 C 94 % 1017,2 hPa 0,2 l/m 6,6 km/h (2 Bft) W-SW 254 0 min 0,000 mm 0,0 UV-I 0 W/m 13,2 C 14,1 C 9,7 km/h (2 Bft) 96,23 %
26.06.2016 23:58 14,2 C 94 % 1017,1 hPa 0,2 l/m 7,3 km/h (2 Bft) W-NW 284 0 min 0,000 mm 0,0 UV-I 0 W/m 13,2 C 13,7 C 12,9 km/h (3 Bft) 97,73 %
_ Min-Zeit 23:58 16:20 00:08 - 15:08 - - - - - - 22:18 23:16 08:46 00:36
Minimum _ 14,1 C 62 % 1013,1 hPa - 0,8 km/h (0 Bft) - - - - - - 13,1 C 10,7 C 3,2 km/h (1 Bft) 92,00 %
_ Max-Zeit 16:04 23:48 23:08 23:30 00:32 - - 09:12 13:00 13:10 12:42 18:28 16:04 00:30 00:02
Maximum _ 22,6 C 94 % 1017,5 hPa 0,4 l/m 19,0 km/h
SW (3 Bft)
- - 2 min 0,483 mm 7,6 UV-I 1120 W/m 16,6 C 22,6 C 27,4 km/h
SW (4 Bft)
100,00 %
Durchschnitt _ 18,8 C 81 % 1015,3 hPa #8,8 l/m 7,4 km/h (2 Bft) W-SW - #4:24 h #3,048 mm 3,5 UV-I 285 W/m 15,4 C 17,9 C 12,5 km/h (3 Bft) 98,72 %